Date StartTime U_cm/s V_cm/s W_cm/s Ustd_cm/s Vstd_cm/s Wstd_cm/s Uvar_(cm/s)^2 Vvar_(cm/s)^2 Wvar_(cm/s)^2 KE_(m/s)^2 TurbulentKE_(m/s)^2 HorizWindSpeed_cm/s FrictionSpeec_cm/s DragCoef SpeedOfSound_m/s SonicTemperature_C Pressure_mb 
09/08/2013  00:00:00      -87.595      -30.347       -7.389       30.476       21.327       13.496      928.785      454.838      182.134        0.511        0.078       92.703       15.804        0.029      343.765       20.108      862.072
09/08/2013  00:01:00     -161.540      -55.337      -10.290       28.430       28.685       16.487      808.284      822.824      271.835        1.558        0.095      170.755        8.607        0.003      343.668       19.940      862.068
09/08/2013  00:02:00     -115.378       -9.922       -1.123       50.891       35.681       20.287     2589.884     1273.148      411.578        0.884        0.214      115.804       24.493        0.045      343.711       20.015      862.078
09/08/2013  00:03:00     -119.023       -0.047      -12.520       17.427       16.878       10.307      303.712      284.870      106.225        0.751        0.035      119.023        8.562        0.005      343.878       20.299      862.084
09/08/2013  00:04:00      -85.847        2.031       -6.260       23.620       10.364        9.831      557.900      107.407       96.643        0.409        0.038       85.871        5.789        0.005      343.939       20.404      862.077
09/08/2013  00:05:00      -64.553      -21.826        2.537       25.931       17.799       13.539      672.433      316.819      183.293        0.291        0.059       68.143       13.481        0.039      344.027       20.554      862.067
09/08/2013  00:06:00      -93.657      -27.877       -3.457       13.917       12.411        9.279      193.696      154.037       86.105        0.500        0.022       97.718        6.204        0.004      344.066       20.621      862.070
09/08/2013  00:07:00      -64.338      -35.808        1.183       28.793       12.788       11.066      829.015      163.524      122.464        0.327        0.056       73.631       13.955        0.036      343.992       20.495      862.082
09/08/2013  00:08:00        3.185       -6.272       -3.167       25.761       18.122       14.690      663.629      328.423      215.810        0.063        0.060        7.034        9.333        1.760      343.828       20.215      862.082
09/08/2013  00:09:00      -24.844       -4.312        9.734       30.987       15.653       13.484      960.211      245.021      181.823        0.106        0.069       25.216       14.855        0.347      343.705       20.006      862.074
09/08/2013  00:10:00      -89.798      -28.034       -2.816       36.815       20.432       12.856     1355.375      417.451      165.285        0.540        0.097       94.073       15.227        0.026      343.812       20.187      862.066
09/08/2013  00:11:00     -111.510       -4.092       -6.907       41.306       23.160       20.599     1706.227      536.401      424.312        0.758        0.133      111.585       19.792        0.031      343.628       19.872      862.068
09/08/2013  00:12:00     -151.938       -3.547      -18.691       15.643       14.686        9.171      244.699      215.668       84.103        1.200        0.027      151.979        6.193        0.002      343.663       19.933      862.067
09/08/2013  00:13:00     -119.337      -39.485       -2.718       25.383       18.369       16.680      644.280      337.409      278.213        0.853        0.063      125.699       15.788        0.016      343.702       20.000      862.065
09/08/2013  00:14:00     -115.068      -50.982       -1.205       31.156       25.399       15.083      970.714      645.102      227.490        0.884        0.092      125.857       12.450        0.010      343.692       19.983      862.069
09/08/2013  00:15:00     -100.846      -21.672       -3.902       22.974       19.670       11.948      527.819      386.916      142.752        0.586        0.053      103.148       11.043        0.011      343.688       19.975      862.073
09/08/2013  00:16:00     -127.430       10.734       -9.439       20.149       16.065       11.146      405.988      258.070      124.224        0.862        0.039      127.881        9.695        0.006      343.549       19.738      862.068
09/08/2013  00:17:00     -157.387        8.213      -18.285       32.292       31.461       16.415     1042.765      989.779      269.461        1.374        0.115      157.601       10.879        0.005      343.666       19.938      862.059
09/08/2013  00:18:00     -139.997       11.427      -10.034       39.782       28.315       17.445     1582.616      801.737      304.314        1.126        0.134      140.463       16.993        0.015      343.678       19.957      862.071
09/08/2013  00:19:00      -82.017       -8.930       -7.059       42.003       26.760       18.689     1764.288      716.108      349.275        0.484        0.141       82.502       20.041        0.059      343.550       19.740      862.084
09/08/2013  00:20:00      -98.161      -23.824       -3.414       27.288       25.766       17.985      744.657      663.899      323.455        0.597        0.087      101.011       16.416        0.026      343.567       19.769      862.085
09/08/2013  00:21:00     -105.463      -22.664       -2.177       23.532       20.239       14.486      553.766      409.628      209.846        0.641        0.059      107.871       11.987        0.012      343.523       19.692      862.096
09/08/2013  00:22:00     -121.406      -14.318       -5.540       15.214       24.900       12.438      231.457      620.004      154.702        0.799        0.050      122.247        8.099        0.004      343.500       19.657      862.124
09/08/2013  00:23:00      -78.046      -12.258       -1.786       23.490       16.324       12.552      551.780      266.464      157.564        0.361        0.049       79.003       11.759        0.022      343.444       19.558      862.135
09/08/2013  00:24:00      -14.767       -9.515        1.694       21.249        9.216        8.728      451.531       84.940       76.177        0.046        0.031       17.567        6.219        0.125      343.266       19.257      862.127
09/08/2013  00:25:00        7.869       -2.148        7.884       15.330       10.936       13.172      235.005      119.602      173.497        0.033        0.026        8.157        6.667        0.668      343.132       19.029      862.130
09/08/2013  00:26:00      -61.093      -17.611       -2.478       26.830       17.056       10.651      719.837      290.915      113.439        0.259        0.056       63.581       12.204        0.037      343.456       19.582      862.151
09/08/2013  00:27:00      -83.502      -36.889       -3.138       19.970       12.472       10.349      398.799      155.545      107.098        0.450        0.033       91.288        6.244        0.005      343.409       19.501      862.141
09/08/2013  00:28:00      -25.525      -16.988       -0.908       35.685       28.892       16.693     1273.412      834.769      278.673        0.166        0.119       30.662       15.159        0.244      343.201       19.146      862.139
09/08/2013  00:29:00      -73.190      -48.361        4.464       38.680       24.229       21.831     1496.139      587.063      476.577        0.514        0.128       87.724       17.433        0.039      343.308       19.328      862.142
09/08/2013  00:30:00      -96.305      -55.124       -1.561       32.626       23.863       16.143     1064.435      569.430      260.585        0.710        0.095      110.965       11.775        0.011      343.479       19.620      862.136
09/08/2013  00:31:00      -89.786      -39.920       -3.921       12.677       11.822       11.996      160.699      139.760      143.908        0.506        0.022       98.261        9.592        0.010      343.671       19.947      862.122
09/08/2013  00:32:00      -73.207      -10.014       -7.071       18.507       13.126        8.596      342.507      172.299       73.886        0.305        0.029       73.888        8.975        0.015      343.721       20.030      862.117
09/08/2013  00:33:00      -80.744      -32.988      -10.643       14.966       19.215        9.881      223.995      369.220       97.627        0.421        0.035       87.223        9.597        0.012      343.742       20.067      862.114
09/08/2013  00:34:00     -100.050      -20.710       -5.490       29.045       19.148       14.041      843.588      366.658      197.146        0.594        0.070      102.171       14.757        0.021      343.497       19.649      862.112
09/08/2013  00:35:00     -156.967      -61.095       -5.385       25.022       33.911       14.187      626.103     1149.966      201.279        1.519        0.099      168.438       12.686        0.006      343.420       19.521      862.111
09/08/2013  00:36:00     -151.330      -76.216        5.918       35.676       26.904       19.475     1272.764      723.834      379.291        1.556        0.119      169.439       14.467        0.007      343.573       19.779      862.115
09/08/2013  00:37:00     -123.715      -49.105       -2.265       50.429       33.019       19.296     2543.057     1090.285      372.331        1.086        0.200      133.104       21.378        0.026      343.495       19.647      862.105
09/08/2013  00:38:00     -123.624      -19.382       -2.942       40.909       39.422       25.791     1673.529     1554.129      665.167        0.978        0.195      125.134       25.842        0.043      343.451       19.570      862.094
09/08/2013  00:39:00      -89.128      -36.596        2.382       34.948       39.235       18.248     1221.344     1539.421      332.999        0.619        0.155       96.349       13.792        0.020      343.479       19.621      862.090
09/08/2013  00:40:00     -134.596       14.554      -13.860       33.553       17.672       10.088     1125.835      312.283      101.766        1.003        0.077      135.381       10.688        0.006      343.713       20.018      862.092
09/08/2013  00:41:00     -184.669       15.585      -15.938       22.575       29.152       14.366      509.612      849.826      206.381        1.808        0.078      185.326       10.262        0.003      343.655       19.920      862.091
09/08/2013  00:42:00     -155.015       17.869       -9.645       32.317       27.707       19.354     1044.416      767.657      374.591        1.331        0.109      156.042       14.375        0.008      343.601       19.828      862.094
09/08/2013  00:43:00     -109.134      -31.298       -1.934       42.902       29.877       18.859     1840.567      892.620      355.677        0.799        0.154      113.533       14.294        0.016      343.495       19.646      862.111
09/08/2013  00:44:00     -127.183      -33.418      -10.428       42.200       31.440       21.228     1780.852      988.494      450.622        1.031        0.161      131.501       19.532        0.022      343.352       19.402      862.124
09/08/2013  00:45:00     -109.064      -35.165       -2.943       27.872       27.474       20.321      776.822      754.828      412.953        0.754        0.097      114.593       14.339        0.016      343.248       19.226      862.127
09/08/2013  00:46:00      -98.403       21.262       -5.583       38.330       31.310       21.918     1469.194      980.338      480.411        0.655        0.146      100.674       17.680        0.031      343.220       19.178      862.132
09/08/2013  00:47:00     -106.356       41.439       -5.988       50.366       28.696       20.501     2536.701      823.469      420.303        0.842        0.189      114.144       25.772        0.051      343.189       19.126      862.154
09/08/2013  00:48:00     -149.008       21.826      -11.928       37.808       31.606       16.138     1429.449      998.911      260.441        1.275        0.134      150.598       15.370        0.010      343.464       19.593      862.158
09/08/2013  00:49:00      -95.226      -31.411      -14.462       36.776       49.055       22.347     1352.497     2406.393      499.379        0.726        0.213      100.273       22.391        0.050      343.368       19.430      862.168
09/08/2013  00:50:00      -45.827      -29.304        6.121       40.873       30.733       22.193     1670.573      944.493      492.514        0.305        0.155       54.396       21.995        0.163      343.251       19.230      862.191
09/08/2013  00:51:00      -48.047       10.153       -4.741       23.138       32.947       24.383      535.379     1085.496      594.528        0.232        0.111       49.108       13.545        0.076      343.211       19.164      862.193
09/08/2013  00:52:00      -57.329        1.938        1.669       40.315       25.696       21.879     1625.328      660.299      478.670        0.303        0.138       57.362       22.929        0.160      343.350       19.400      862.181
09/08/2013  00:53:00      -81.765       15.941       -5.282       31.491       24.265       22.271      991.673      588.814      495.999        0.452        0.104       83.304       20.064        0.058      343.289       19.295      862.177
09/08/2013  00:54:00      -95.793       -3.988      -10.897       23.700       16.231       14.969      561.697      263.452      224.059        0.518        0.052       95.876       12.724        0.018      343.308       19.328      862.190
09/08/2013  00:55:00      -81.638       -9.858       -3.504       23.409       30.596       19.280      547.987      936.117      371.711        0.431        0.093       82.231       18.415        0.050      343.160       19.076      862.190
09/08/2013  00:56:00      -53.511       -1.402        1.269       18.246       15.570       11.737      332.906      242.410      137.756        0.179        0.036       53.529        6.770        0.016      343.054       18.896      862.197
09/08/2013  00:57:00      -78.230      -32.225       -1.393       44.730       23.695       17.722     2000.772      561.461      314.061        0.502        0.144       84.607       18.153        0.046      343.011       18.824      862.210
09/08/2013  00:58:00     -114.527       -6.297       -8.713       27.958       38.319       17.846      781.657     1468.332      318.493        0.790        0.128      114.700       15.464        0.018      342.961       18.738      862.209
09/08/2013  00:59:00     -121.560      -34.322       -6.470       23.320       20.458       16.842      543.803      418.533      283.660        0.862        0.062      126.313        8.729        0.005      342.994       18.794      862.203
09/08/2013  01:00:00     -113.434      -39.525       -5.338       27.322       35.651       15.868      746.501     1271.019      251.784        0.836        0.113      120.123        9.797        0.007      342.990       18.787      862.220
09/08/2013  01:01:00     -123.573      -63.369       -7.412       28.832       31.420       16.064      831.270      987.217      258.040        1.071        0.104      138.873       10.666        0.006      343.023       18.843      862.224
09/08/2013  01:02:00     -100.154      -60.240       -4.548       50.716       27.818       21.186     2572.064      773.865      448.833        0.874        0.190      116.875       23.711        0.041      343.108       18.987      862.227
09/08/2013  01:03:00     -181.820      -75.337       -6.795       58.672       44.554       29.141     3442.432     1985.091      849.219        2.253        0.314      196.810       32.311        0.027      343.148       19.054      862.244
09/08/2013  01:04:00     -169.214      -79.270       -8.564       42.903       34.444       28.455     1840.679     1186.399      809.714        1.941        0.192      186.861       16.465        0.008      343.181       19.111      862.247
09/08/2013  01:05:00     -116.909      -32.579       -8.366       39.573       33.440       25.887     1566.014     1118.242      670.137        0.908        0.168      121.364       23.070        0.036      343.024       18.846      862.247
09/08/2013  01:06:00     -125.997      -26.954       -4.793       39.834       27.304       21.279     1586.778      745.485      452.794        0.970        0.139      128.848       18.346        0.020      342.909       18.650      862.257
09/08/2013  01:07:00     -138.233      -33.133        2.489       40.656       34.120       22.762     1652.946     1164.175      518.127        1.177        0.167      142.149       20.744        0.021      343.077       18.933      862.260
09/08/2013  01:08:00     -104.880      -28.550        7.552       45.038       51.275       23.211     2028.387     2629.118      538.770        0.853        0.260      108.696       22.277        0.042      343.116       19.002      862.259
09/08/2013  01:09:00     -174.391      -77.755       -2.977       46.609       36.815       25.075     2172.388     1355.339      628.738        2.031        0.208      190.940       24.367        0.016      343.281       19.282      862.263
09/08/2013  01:10:00     -125.383      -84.408       -2.664       51.683       42.206       26.725     2671.098     1781.356      714.250        1.401        0.258      151.148       30.020        0.039      343.205       19.152      862.279
09/08/2013  01:11:00      -75.455      -62.020       -1.167       54.480       28.599       22.959     2968.038      817.893      527.125        0.693        0.216       97.673       20.188        0.043      343.265       19.255      862.283
09/08/2013  01:12:00     -104.926      -36.046      -12.251       34.066       23.457       22.847     1160.514      550.237      521.989        0.735        0.112      110.945       17.640        0.025      343.295       19.305      862.291
09/08/2013  01:13:00      -23.664      -36.202        6.405       47.824       32.089       24.178     2287.090     1029.684      584.569        0.291        0.195       43.250       17.497        0.164      343.239       19.211      862.312
09/08/2013  01:14:00      -77.701      -78.294       -0.901       31.712       20.687       16.624     1005.661      427.941      276.353        0.694        0.085      110.306       14.328        0.017      343.263       19.253      862.306
09/08/2013  01:15:00      -61.758      -45.092       -0.275       19.919       30.054       13.403      396.762      903.271      179.642        0.366        0.074       76.468       10.683        0.020      343.242       19.217      862.300
09/08/2013  01:16:00      -75.229      -35.764       -7.194       12.887       14.117        9.861      166.065      199.298       97.231        0.373        0.023       83.297        8.666        0.011      343.319       19.348      862.306
09/08/2013  01:17:00      -67.371       -1.106       -9.854       11.901       11.670        8.956      141.633      136.188       80.219        0.250        0.018       67.380        7.040        0.011      343.261       19.246      862.298
09/08/2013  01:18:00     -111.831       -2.577      -11.833       30.508       14.094       14.936      930.714      198.630      223.070        0.700        0.068      111.860       15.765        0.020      343.068       18.920      862.284
09/08/2013  01:19:00     -133.494      -47.574      -11.300       18.328       11.163       12.557      335.913      124.610      157.690        1.041        0.031      141.718       11.148        0.006      343.015       18.831      862.287
09/08/2013  01:20:00     -140.408      -59.291       -3.222       23.948       21.290       19.348      573.493      453.250      374.364        1.232        0.070      152.413       13.653        0.008      342.881       18.601      862.287
09/08/2013  01:21:00      -68.047      -53.155        1.754       41.585       31.416       25.549     1729.305      986.951      652.749        0.541        0.168       86.348       20.344        0.056      342.774       18.419      862.277
09/08/2013  01:22:00      -84.334      -71.253        8.539       66.468       49.378       31.215     4417.935     2438.144      974.365        1.004        0.392      110.405       33.425        0.092      342.840       18.531      862.265
09/08/2013  01:23:00     -119.074      -79.047       -1.493       57.658       36.777       32.336     3324.484     1352.539     1045.618        1.307        0.286      142.923       24.311        0.029      343.100       18.973      862.256
09/08/2013  01:24:00     -109.713      -42.721       -1.183       29.732       35.962       24.354      883.981     1293.264      593.126        0.832        0.139      117.737       19.555        0.028      342.996       18.797      862.255
09/08/2013  01:25:00      -98.787      -21.390       -6.381       39.936       23.147       20.690     1594.903      535.779      428.066        0.641        0.128      101.076       16.441        0.026      342.914       18.657      862.241
09/08/2013  01:26:00      -79.059      -22.612        9.188       35.554       24.113       18.564     1264.086      581.456      344.621        0.452        0.110       82.230       19.127        0.054      342.777       18.423      862.235
09/08/2013  01:27:00     -121.137      -17.843       -1.211       35.300       29.784       20.235     1246.110      887.087      409.447        0.877        0.127      122.444       18.566        0.023      342.786       18.440      862.234
09/08/2013  01:28:00     -123.351      -32.625       -7.517       36.092       29.107       21.554     1302.652      847.233      464.570        0.947        0.131      127.592       14.510        0.013      342.704       18.299      862.243
09/08/2013  01:29:00     -114.191      -26.199       -3.825       32.914       28.010       18.693     1083.306      784.548      349.414        0.798        0.111      117.158       15.864        0.018      342.769       18.411      862.235
09/08/2013  01:30:00     -116.434      -32.474       -0.187       33.619       30.705       17.344     1130.219      942.783      300.812        0.849        0.119      120.878       15.679        0.017      342.696       18.285      862.220
09/08/2013  01:31:00     -117.571      -17.476        2.920       54.279       34.558       26.624     2946.212     1194.282      708.820        0.949        0.242      118.863       25.210        0.045      342.799       18.461      862.214
09/08/2013  01:32:00     -136.522      -46.925        4.578       58.913       41.231       24.714     3470.691     1699.965      610.780        1.332        0.289      144.361       29.003        0.040      342.919       18.666      862.204
09/08/2013  01:33:00     -125.581      -37.524        4.927       63.159       42.537       32.534     3989.044     1809.360     1058.493        1.203        0.343      131.067       31.215        0.057      342.781       18.429      862.194
09/08/2013  01:34:00     -156.119      -39.049       -3.120       64.690       58.304       28.110     4184.816     3399.317      790.196        1.714        0.419      160.928       28.321        0.031      342.735       18.350      862.198
09/08/2013  01:35:00     -197.740      -66.691       -8.153       44.021       43.283       22.360     1937.861     1873.427      499.968        2.396        0.216      208.684       17.250        0.007      342.784       18.434      862.207
09/08/2013  01:36:00     -209.144      -43.823      -12.702       43.153       36.409       26.556     1862.184     1325.641      705.196        2.486        0.195      213.686       20.871        0.010      342.885       18.605      862.201
09/08/2013  01:37:00     -185.846      -14.677      -13.644       65.418       48.165       30.203     4279.469     2319.912      912.214        2.122        0.376      186.424       32.787        0.031      342.846       18.539      862.192
09/08/2013  01:38:00     -185.319       31.977      -18.575       41.177       32.665       20.267     1695.576     1067.009      410.752        1.944        0.159      188.058       18.201        0.009      342.792       18.448      862.190
09/08/2013  01:39:00     -125.316        3.272       -9.459       36.477       33.901       19.506     1330.604     1149.246      380.465        0.933        0.143      125.359       18.904        0.023      342.588       18.103      862.188
09/08/2013  01:40:00      -95.424      -25.605       -5.998       50.725       33.058       27.790     2573.006     1092.836      772.282        0.712        0.222       98.800       29.075        0.087      342.505       17.961      862.177
09/08/2013  01:41:00     -108.726      -45.576       -9.457       36.978       37.360       22.508     1367.398     1395.754      506.621        0.863        0.163      117.892       15.536        0.017      342.498       17.949      862.180
09/08/2013  01:42:00      -62.328      -41.313       -2.483       56.467       41.444       26.391     3188.466     1717.611      696.509        0.560        0.280       74.777       17.600        0.055      342.375       17.740      862.194
09/08/2013  01:43:00     -104.943      -61.516        2.888       29.671       32.306       20.761      880.376     1043.704      431.031        0.858        0.118      121.644       17.455        0.021      342.479       17.917      862.194
09/08/2013  01:44:00      -94.506      -22.064       -2.528       33.459       22.474       15.617     1119.526      505.069      243.892        0.565        0.093       97.047       15.618        0.026      342.538       18.018      862.181
09/08/2013  01:45:00      -69.171        0.888       -1.400       18.073       16.678       13.328      326.633      278.155      177.642        0.278        0.039       69.177       13.226        0.037      342.530       18.005      862.173
09/08/2013  01:46:00      -64.804      -32.961       -0.241       33.659       29.369       17.992     1132.903      862.542      323.705        0.380        0.116       72.705       17.585        0.058      342.619       18.154      862.173
09/08/2013  01:47:00     -117.175      -37.734       -6.339       21.730       20.374       15.603      472.214      415.097      243.455        0.816        0.057      123.101       13.419        0.012      342.617       18.150      862.154
09/08/2013  01:48:00      -85.039      -53.646       -5.043       34.881       25.401       14.641     1216.671      645.215      214.367        0.611        0.104      100.546       13.879        0.019      342.615       18.147      862.149
09/08/2013  01:49:00       -5.223      -53.282       18.906       44.323       41.366       23.769     1964.521     1711.154      564.954        0.373        0.212       53.537       23.681        0.196      342.557       18.050      862.149
09/08/2013  01:50:00      -55.817      -56.800       10.805       56.231       44.381       28.043     3161.873     1969.684      786.399        0.619        0.296       79.636       27.622        0.120      342.597       18.118      862.144
09/08/2013  01:51:00     -122.164      -76.334      -10.793       58.533       45.277       25.289     3426.065     2049.967      639.529        1.349        0.306      144.052       22.527        0.024      342.607       18.135      862.135
09/08/2013  01:52:00     -143.635      -68.133       -4.775       65.359       51.314       30.163     4271.799     2633.092      909.814        1.655        0.391      158.975       20.636        0.017      342.436       17.842      862.135
09/08/2013  01:53:00     -155.722      -70.183       -4.571       37.060       39.838       24.507     1373.418     1587.061      600.593        1.638        0.178      170.806       15.869        0.009      342.390       17.764      862.132
09/08/2013  01:54:00     -120.577      -14.307       -2.878       50.962       40.039       23.365     2597.113     1603.150      545.939        0.975        0.237      121.423       17.035        0.020      342.270       17.561      862.148
09/08/2013  01:55:00     -116.801      -25.203       -7.578       29.959       24.604       21.911      897.553      605.359      480.114        0.816        0.099      119.489       19.264        0.026      342.341       17.684      862.156
09/08/2013  01:56:00      -99.222      -70.469       -6.954       28.813       28.901       25.647      830.183      835.273      657.761        0.859        0.116      121.700       20.607        0.029      342.436       17.845      862.152
09/08/2013  01:57:00      -95.606      -68.899       -2.332       66.025       42.724       28.601     4359.292     1825.324      818.028        1.045        0.350      117.846       29.850        0.064      342.436       17.845      862.162
09/08/2013  01:58:00      -56.658      -67.100        1.901       48.377       40.275       26.737     2340.358     1622.037      714.862        0.620        0.234       87.821       26.886        0.094      342.447       17.863      862.164
09/08/2013  01:59:00      -76.479      -29.370        1.717       48.828       27.090       24.923     2384.180      733.887      621.135        0.523        0.187       81.925       23.755        0.084      342.346       17.690      862.162
09/08/2013  02:00:00      -78.414      -32.590        3.611       39.634       38.417       19.365     1570.872     1475.898      375.003        0.532        0.171       84.917       15.547        0.034      342.327       17.658      862.161
09/08/2013  02:01:00     -131.629      -58.638       -4.526       43.100       30.642       27.307     1857.623      938.937      745.682        1.216        0.177      144.100       22.649        0.025      342.300       17.611      862.158
09/08/2013  02:02:00     -112.677      -61.508       -7.568       33.335       39.847       17.752     1111.203     1587.789      315.151        0.977        0.151      128.372       14.456        0.013      342.332       17.667      862.154
09/08/2013  02:03:00     -101.859      -62.800       -0.685       31.464       27.059       19.612      989.979      732.216      384.648        0.821        0.105      119.662       17.476        0.021      342.269       17.562      862.163
09/08/2013  02:04:00      -79.077      -53.296        5.539       37.921       29.145       21.789     1438.027      849.430      474.767        0.594        0.138       95.361       23.021        0.058      342.264       17.551      862.168
09/08/2013  02:05:00      -97.176      -61.935       -4.306       33.259       21.764       16.630     1106.154      473.686      276.559        0.758        0.093      115.235       17.106        0.022      342.283       17.585      862.156
09/08/2013  02:06:00      -82.628      -47.101        4.335       35.971       25.683       23.345     1293.882      659.599      545.009        0.578        0.125       95.110       21.221        0.050      342.198       17.439      862.151
09/08/2013  02:07:00     -116.229      -58.953       -2.470       26.309       26.390       23.547      692.139      696.412      554.485        0.947        0.097      130.325       12.923        0.010      342.210       17.459      862.155
09/08/2013  02:08:00     -130.847      -34.767       -8.092       24.906       29.118       16.200      620.287      847.866      262.428        1.006        0.087      135.388       11.671        0.007      342.216       17.469      862.153
09/08/2013  02:09:00     -131.825      -15.362       -8.659       32.400       24.485       21.330     1049.772      599.519      454.989        0.990        0.105      132.717       19.729        0.022      342.155       17.366      862.150
09/08/2013  02:10:00     -118.095      -15.126       -7.644       43.464       23.491       19.612     1889.102      551.817      384.644        0.853        0.141      119.060       20.520        0.030      342.106       17.285      862.146
09/08/2013  02:11:00     -134.138       -9.906      -12.804       36.302       28.367       19.463     1317.843      804.698      378.797        1.038        0.125      134.503       18.369        0.019      342.148       17.355      862.152
09/08/2013  02:12:00     -138.063      -35.219      -14.787       27.361       32.085       19.861      748.632     1029.460      394.453        1.135        0.109      142.484       15.586        0.012      342.199       17.441      862.147
09/08/2013  02:13:00     -113.141      -52.202       -5.153       34.046       36.500       22.775     1159.144     1332.240      518.706        0.928        0.151      124.603       20.544        0.027      341.994       17.093      862.153
09/08/2013  02:14:00     -101.860      -13.331       -3.231       19.569       30.248       15.223      382.927      914.925      231.746        0.605        0.076      102.728       12.696        0.015      342.020       17.138      862.166
09/08/2013  02:15:00      -94.267        5.726       -4.484       26.863       21.158       13.079      721.628      447.664      171.057        0.514        0.067       94.441       11.637        0.015      341.946       17.012      862.163
09/08/2013  02:16:00     -105.154        0.930       -8.018       40.114       23.739       15.952     1609.158      563.543      254.468        0.677        0.121      105.158       20.120        0.037      342.045       17.178      862.165
09/08/2013  02:17:00     -107.663       -7.010      -13.538       34.113       25.435       16.860     1163.705      646.932      284.248        0.696        0.105      107.891       10.655        0.010      342.136       17.336      862.170
09/08/2013  02:18:00      -85.397       11.133       -5.555       22.664       27.527       16.612      513.661      757.745      275.967        0.450        0.077       86.119       13.330        0.024      342.054       17.195      862.169
09/08/2013  02:19:00      -72.270       -9.799       -8.273       18.060       25.450       12.765      326.162      647.704      162.945        0.326        0.057       72.931        7.808        0.011      342.030       17.153      862.167
09/08/2013  02:20:00      -76.492      -47.323      -11.320       26.013       22.885       13.675      676.668      523.726      187.012        0.480        0.069       89.947       10.416        0.013      342.046       17.181      862.171
09/08/2013  02:21:00      -88.791      -44.767       -4.231       30.682       20.868       12.883      941.416      435.489      165.973        0.572        0.077       99.438       10.297        0.011      341.988       17.083      862.183
09/08/2013  02:22:00      -89.644      -41.960       -2.736       24.203       22.080       13.673      585.778      487.523      186.954        0.553        0.063       98.978        9.423        0.009      341.934       16.992      862.189
09/08/2013  02:23:00      -52.338      -33.499        7.081       34.784       19.434       15.427     1209.941      377.688      237.990        0.287        0.091       62.140       18.021        0.084      341.843       16.837      862.199
09/08/2013  02:24:00      -23.893      -29.249        8.333       28.076       22.336       15.675      788.281      498.916      245.692        0.151        0.077       37.767       13.520        0.128      341.929       16.983      862.208
09/08/2013  02:25:00      -10.068      -36.998       14.843       26.875       18.574       19.261      722.288      344.994      370.981        0.156        0.072       38.343       12.687        0.109      342.029       17.153      862.207
09/08/2013  02:26:00      -48.723      -31.474        6.017       25.771       25.718       21.566      664.123      661.417      465.081        0.260        0.090       58.004       15.552        0.072      342.008       17.117      862.204
09/08/2013  02:27:00      -66.064      -59.618        0.629       39.791       25.872       23.196     1583.361      669.360      538.065        0.535        0.140       88.988       22.935        0.066      342.112       17.292      862.195
09/08/2013  02:28:00      -70.250      -50.510        4.191       50.005       24.500       21.094     2500.450      600.259      444.965        0.552        0.177       86.523       21.874        0.064      342.105       17.281      862.197
09/08/2013  02:29:00     -107.478      -42.960       -3.579       29.485       32.881       17.630      869.370     1081.163      310.810        0.784        0.113      115.746       10.881        0.009      342.074       17.229      862.198
09/08/2013  02:30:00     -106.819      -34.955       -8.200       19.056       21.386       15.677      363.137      457.343      245.758        0.688        0.053      112.392        7.202        0.004      341.943       17.007      862.202
09/08/2013  02:31:00      -98.560      -22.771       -2.669       25.994       26.695       15.970      675.682      712.643      255.036        0.594        0.082      101.156       13.596        0.018      341.859       16.865      862.218
09/08/2013  02:32:00     -116.339       -6.488       -7.252       30.824       23.034       21.489      950.118      530.547      461.758        0.779        0.097      116.520       19.958        0.029      341.732       16.649      862.234
09/08/2013  02:33:00     -104.698       -9.473       -3.658       33.684       25.822       18.983     1134.593      666.774      360.367        0.661        0.108      105.126       17.362        0.027      341.713       16.617      862.234
09/08/2013  02:34:00      -91.402      -41.527        2.692       40.195       34.583       17.980     1615.603     1195.965      323.276        0.661        0.157      100.394       17.616        0.031      341.755       16.689      862.233
09/08/2013  02:35:00      -78.935      -39.853        1.762       45.040       31.940       18.285     2028.644     1020.134      334.334        0.560        0.169       88.425       20.537        0.054      341.752       16.683      862.232
09/08/2013  02:36:00      -98.051      -53.636        0.923       58.024       44.214       28.839     3366.827     1954.906      831.682        0.932        0.308      111.762       24.294        0.047      341.778       16.726      862.233
09/08/2013  02:37:00     -136.178      -84.192       -4.415       78.294       42.285       30.599     6129.878     1787.998      936.274        1.725        0.443      160.102       34.176        0.046      341.820       16.798      862.225
09/08/2013  02:38:00     -148.382     -112.265        5.032       58.118       44.036       35.733     3377.669     1939.211     1276.877        2.062        0.330      186.067       33.138        0.032      341.817       16.791      862.217
09/08/2013  02:39:00     -111.771     -100.634        3.252       48.466       42.985       31.331     2348.921     1847.739      981.609        1.390        0.259      150.399       26.556        0.031      341.823       16.801      862.206
09/08/2013  02:40:00     -119.046      -67.026        0.818       35.129       43.645       22.341     1234.069     1904.917      499.116        1.115        0.182      136.618       17.204        0.016      341.813       16.785      862.209
09/08/2013  02:41:00      -75.737      -48.134       11.375       52.376       37.454       30.489     2743.258     1402.811      929.588        0.663        0.254       89.738       28.753        0.103      341.831       16.816      862.216
09/08/2013  02:42:00      -82.176      -55.808        3.900       56.806       44.889       27.151     3226.907     2015.050      737.197        0.793        0.299       99.335       23.992        0.058      341.806       16.775      862.204
09/08/2013  02:43:00     -109.638     -106.670       -1.949       48.642       45.877       29.616     2366.080     2104.715      877.126        1.437        0.267      152.967       32.327        0.045      341.799       16.762      862.201
09/08/2013  02:44:00     -120.915     -127.728       -4.266       59.754       46.566       32.955     3570.501     2168.384     1086.027        1.889        0.341      175.883       31.580        0.032      341.767       16.708      862.205
09/08/2013  02:45:00     -125.313     -103.204        6.655       70.545       57.715       37.132     4976.535     3330.979     1378.811        1.804        0.484      162.340       42.086        0.067      341.696       16.587      862.205
09/08/2013  02:46:00     -141.209     -124.296        0.209       69.174       56.297       35.388     4785.006     3169.345     1252.298        2.230        0.460      188.121       38.024        0.041      341.694       16.582      862.202
09/08/2013  02:47:00     -125.990     -105.818        2.569       73.460       60.229       42.815     5396.380     3627.474     1833.144        1.896        0.543      164.532       42.073        0.065      341.670       16.542      862.204
09/08/2013  02:48:00     -173.472     -127.132       -5.475       59.628       47.658       32.190     3555.529     2271.275     1036.173        2.657        0.343      215.070       31.749        0.022      341.613       16.445      862.201
09/08/2013  02:49:00      -79.041      -64.403       10.344       53.959       40.884       28.203     2911.597     1671.512      795.408        0.794        0.269      101.957       29.234        0.082      341.570       16.373      862.192
09/08/2013  02:50:00      -71.800      -59.049       12.540       68.267       38.084       28.447     4660.316     1450.427      809.238        0.786        0.346       92.963       36.080        0.151      341.620       16.459      862.195
09/08/2013  02:51:00      -89.553      -86.806        1.021       45.989       45.273       29.703     2114.970     2049.624      882.246        1.030        0.252      124.720       23.135        0.034      341.591       16.410      862.209
09/08/2013  02:52:00      -80.129      -55.775        4.846       61.540       43.918       26.319     3787.226     1928.803      692.668        0.798        0.320       97.630       28.196        0.083      341.557       16.353      862.210
09/08/2013  02:53:00      -40.237      -59.439       12.785       49.767       33.937       23.474     2476.771     1151.721      551.013        0.475        0.209       71.777       24.598        0.117      341.590       16.409      862.226
09/08/2013  02:54:00      -24.888      -55.312       12.342       39.033       36.411       26.162     1523.604     1325.796      684.443        0.368        0.177       60.653       21.085        0.121      341.589       16.405      862.236
09/08/2013  02:55:00      -82.545      -60.622       -3.654       25.954       37.628       22.613      673.620     1415.851      511.347        0.655        0.130      102.414        7.938        0.006      341.577       16.385      862.237
09/08/2013  02:56:00      -56.306      -58.296        2.029       73.247       39.111       28.956     5365.122     1529.657      838.470        0.715        0.387       81.048       27.101        0.112      341.557       16.352      862.224
09/08/2013  02:57:00     -108.311      -92.438       -8.776       65.611       40.522       29.036     4304.793     1642.045      843.076        1.357        0.339      142.394       31.892        0.050      341.520       16.289      862.217
09/08/2013  02:58:00     -100.545      -81.634        1.192       59.393       54.213       33.258     3527.482     2939.078     1106.080        1.217        0.379      129.512       24.358        0.035      341.356       16.011      862.201
09/08/2013  02:59:00     -180.030      -95.488       -2.807       74.318       60.378       41.271     5523.159     3645.479     1703.255        2.620        0.544      203.786       34.627        0.029      341.351       16.001      862.173
09/08/2013  03:00:00     -187.721      -92.321       -5.241       46.224       56.148       29.874     2136.674     3152.633      892.436        2.498        0.309      209.195       26.408        0.016      341.472       16.205      862.157
09/08/2013  03:01:00      -75.952      -66.738       -3.416       50.985       58.136       28.143     2599.474     3379.836      792.032        0.850        0.339      101.107       22.236        0.048      341.341       15.985      862.147
09/08/2013  03:02:00      -88.402      -46.455       -1.091       46.700       28.508       23.244     2180.890      812.686      540.270        0.675        0.177       99.865       24.357        0.059      341.390       16.070      862.116
09/08/2013  03:03:00     -108.120      -38.856        2.666       65.094       38.415       30.256     4237.256     1475.676      915.396        0.992        0.331      114.890       29.971        0.068      341.392       16.072      862.099
09/08/2013  03:04:00      -68.116      -31.066        6.743       41.062       30.023       18.402     1686.108      901.373      338.636        0.429        0.146       74.866       17.179        0.053      341.301       15.920      862.092
09/08/2013  03:05:00      -21.283      -16.162        7.618       41.352       35.394       20.047     1710.022     1252.705      401.872        0.207        0.168       26.724       20.801        0.606      341.250       15.832      862.079
09/08/2013  03:06:00      -48.749      -36.328        9.441       46.962       29.170       19.820     2205.387      850.908      392.823        0.362        0.172       60.796       18.636        0.094      341.281       15.886      862.077
09/08/2013  03:07:00     -111.056      -75.647      -13.135       57.489       32.697       24.860     3304.971     1069.100      618.014        1.161        0.250      134.372       28.470        0.045      341.339       15.983      862.087
09/08/2013  03:08:00     -149.502     -122.269        4.032       50.699       39.134       27.501     2570.410     1531.506      756.314        2.109        0.243      193.133       24.907        0.017      341.309       15.931      862.089
09/08/2013  03:09:00      -94.797      -23.618        3.218       58.434       32.246       32.422     3414.583     1039.820     1051.194        0.753        0.275       97.695       36.193        0.137      341.296       15.910      862.088
09/08/2013  03:10:00     -113.019      -11.391      -11.147       35.754       21.566       18.229     1278.336      465.071      332.293        0.755        0.104      113.591       17.296        0.023      341.295       15.910      862.072
09/08/2013  03:11:00      -90.806       -9.654        1.175       46.293       30.134       23.465     2143.002      908.036      550.604        0.597        0.180       91.318       26.003        0.081      341.101       15.580      862.077
09/08/2013  03:12:00      -94.364      -29.010        0.031       40.759       21.615       20.291     1661.269      467.193      411.734        0.614        0.127       98.723       23.032        0.054      341.257       15.843      862.091
09/08/2013  03:13:00      -93.290      -92.695        6.118       62.050       60.477       24.559     3850.221     3657.436      603.124        1.272        0.406      131.512       21.022        0.026      341.363       16.024      862.124
09/08/2013  03:14:00     -132.585     -106.566       -3.318       56.406       71.028       36.435     3181.596     5044.995     1327.514        1.925        0.478      170.104       31.023        0.033      341.260       15.849      862.105
09/08/2013  03:15:00     -193.738        1.039      -13.987       32.741       47.232       24.305     1071.991     2230.815      590.720        2.081        0.195      193.741       21.751        0.013      341.401       16.088      862.044
09/08/2013  03:16:00     -161.082       -5.804      -11.495       36.626       42.990       22.588     1341.445     1848.105      510.216        1.491        0.185      161.186       17.521        0.012      341.389       16.067      862.030
09/08/2013  03:17:00     -123.945      -37.791       -8.365       44.290       37.163       19.872     1961.603     1381.121      394.908        1.030        0.187      129.578       22.408        0.030      341.368       16.031      862.021
09/08/2013  03:18:00      -45.583      -64.089       -2.627       45.118       42.790       26.328     2035.656     1831.024      693.155        0.538        0.228       78.646       15.987        0.041      341.397       16.082      862.044
09/08/2013  03:19:00      -94.656      -77.554       17.459       56.389       79.238       37.834     3179.754     6278.666     1431.400        1.308        0.544      122.370       35.799        0.086      341.245       15.823      862.063
09/08/2013  03:20:00     -164.498      -76.755       -5.301       59.673       47.046       29.485     3560.818     2213.294      869.367        1.981        0.332      181.524       19.386        0.011      341.561       16.357      862.045
09/08/2013  03:21:00     -155.315        1.637      -15.936       56.609       40.227       23.840     3204.597     1618.247      568.346        1.488        0.270      155.324       24.218        0.024      341.393       16.074      862.019
09/08/2013  03:22:00     -147.504      -19.298      -12.757       55.924       28.665       23.448     3127.453      821.660      549.825        1.339        0.225      148.761       17.462        0.014      341.205       15.757      862.014
09/08/2013  03:23:00      -67.917      -16.147       -2.681       56.256       26.452       21.162     3164.747      699.719      447.822        0.460        0.216       69.810       24.578        0.124      341.243       15.819      862.045
09/08/2013  03:24:00      -88.169      -79.729       -0.901       84.236       61.674       41.500     7095.700     3803.642     1722.211        1.337        0.631      118.871       39.868        0.112      341.329       15.966      862.074
09/08/2013  03:25:00     -129.553      -39.183        1.519       62.786       54.031       21.502     3942.143     2919.320      462.330        1.282        0.366      135.349       25.697        0.036      341.654       16.516      862.056
09/08/2013  03:26:00     -148.054       32.090       -8.011       46.557       24.175       16.821     2167.510      584.416      282.954        1.302        0.152      151.492       11.868        0.006      341.723       16.633      862.028
09/08/2013  03:27:00      -48.044      -36.781       -5.476       44.551       22.803       21.278     1984.751      519.989      452.737        0.332        0.148       60.507       23.237        0.147      341.548       16.337      862.048
09/08/2013  03:28:00      -50.987     -136.033       -6.240       72.142       76.059       33.278     5204.510     5784.921     1107.454        1.662        0.605      145.274       32.375        0.050      341.603       16.429      862.081
09/08/2013  03:29:00     -145.799     -137.939       -3.771       63.722       56.388       38.119     4060.455     3179.619     1453.056        2.449        0.435      200.710       36.724        0.033      341.358       16.014      862.088
09/08/2013  03:30:00     -155.515      -70.049       -6.626       61.351       38.737       24.581     3763.951     1500.550      604.221        1.750        0.293      170.563       26.302        0.024      341.335       15.974      862.057
09/08/2013  03:31:00      -56.655       21.543       -2.470       27.280       27.955       16.416      744.220      781.476      269.481        0.274        0.090       60.612       10.269        0.029      341.299       15.916      862.014
09/08/2013  03:32:00      -70.097       -5.458       -4.560       28.953       42.846       18.206      838.266     1835.818      331.445        0.398        0.150       70.309       15.489        0.049      341.548       16.338      862.035
09/08/2013  03:33:00      -15.635      -27.202        0.084       34.827       13.672       14.335     1212.887      186.926      205.493        0.129        0.080       31.375       10.985        0.123      341.577       16.386      862.050
09/08/2013  03:34:00      -41.006      -36.236        4.955       32.376       27.257       20.120     1048.221      742.946      404.815        0.261        0.110       54.723       15.538        0.081      341.488       16.234      862.061
09/08/2013  03:35:00      -75.700      -66.141        4.045       44.412       43.502       27.533     1972.454     1892.438      758.079        0.737        0.231      100.524       27.503        0.075      341.414       16.110      862.079
09/08/2013  03:36:00      -79.094      -59.960        8.561       50.035       34.581       25.834     2503.520     1195.822      667.389        0.714        0.218       99.253       21.668        0.048      341.418       16.117      862.084
09/08/2013  03:37:00      -71.343      -44.675        2.893       29.123       30.803       18.485      848.145      948.847      341.679        0.462        0.107       84.176       10.977        0.017      341.517       16.285      862.074
09/08/2013  03:38:00      -30.595      -36.857        5.586       29.957       17.441       16.332      897.399      304.171      266.747        0.190        0.073       47.901       16.425        0.118      341.572       16.377      862.076
09/08/2013  03:39:00      -10.997      -39.407       11.366       37.871       33.726       17.477     1434.201     1137.457      305.436        0.234        0.144       40.913       16.090        0.155      341.477       16.216      862.097
09/08/2013  03:40:00     -103.316      -58.938       -9.098       44.909       31.716       25.144     2016.822     1005.899      632.239        0.894        0.183      118.945       18.362        0.024      341.325       15.959      862.094
09/08/2013  03:41:00     -100.009      -76.847       -1.400       45.781       25.684       24.672     2095.918      659.661      608.695        0.964        0.168      126.124       23.083        0.033      341.310       15.934      862.087
09/08/2013  03:42:00      -68.551      -37.364        2.124       28.071       26.016       13.237      787.967      676.813      175.211        0.387        0.082       78.073        6.695        0.007      341.320       15.950      862.094
09/08/2013  03:43:00      -12.533      -45.298        5.516       32.071       35.664       21.902     1028.580     1271.914      479.685        0.251        0.139       47.000       12.728        0.073      341.330       15.968      862.113
09/08/2013  03:44:00     -101.427     -121.603      -16.043       32.311       23.576       16.658     1044.031      555.825      277.498        1.360        0.094      158.351       10.893        0.005      341.279       15.881      862.110
09/08/2013  03:45:00      -94.603      -82.174        6.576       47.208       35.435       35.196     2228.639     1255.610     1238.746        1.023        0.236      125.309       26.989        0.046      341.225       15.789      862.091
09/08/2013  03:46:00      -91.096      -62.852        2.616       47.545       32.862       20.265     2260.529     1079.934      410.677        0.800        0.188      110.674       22.591        0.042      341.202       15.751      862.076
09/08/2013  03:47:00      -92.823      -54.827       -3.636       29.925       32.791       17.865      895.494     1075.238      319.170        0.696        0.114      107.805        9.750        0.008      341.232       15.802      862.077
09/08/2013  03:48:00     -130.994      -25.767       -6.545       32.808       26.502       17.618     1076.375      702.357      310.386        0.998        0.104      133.504       16.397        0.015      341.113       15.600      862.080
09/08/2013  03:49:00      -82.414      -11.061       -1.545       45.341       26.667       20.380     2055.785      711.145      415.361        0.505        0.159       83.153       21.833        0.069      340.971       15.360      862.080
09/08/2013  03:50:00      -97.574      -41.515        3.584       50.940       34.130       27.341     2594.891     1164.837      747.535        0.788        0.225      106.039       25.609        0.058      340.984       15.382      862.077
09/08/2013  03:51:00     -108.694      -56.464        0.674       31.237       34.996       17.959      975.776     1224.713      322.518        0.876        0.126      122.485       14.881        0.015      341.027       15.455      862.074
09/08/2013  03:52:00     -127.564      -36.744       -1.646       21.643       22.468       14.795      468.416      504.811      218.881        0.941        0.060      132.750       11.856        0.008      340.997       15.404      862.072
09/08/2013  03:53:00      -87.589      -43.559       -1.678       31.169       27.218       22.449      971.533      740.829      503.959        0.589        0.111       97.823       19.131        0.038      341.043       15.483      862.075
09/08/2013  03:54:00      -52.447      -40.653       -1.328       37.094       26.237       15.905     1376.000      688.368      252.983        0.336        0.116       66.358       14.712        0.049      341.067       15.522      862.071
09/08/2013  03:55:00      -63.603      -42.621       -0.287       32.170       28.407       17.810     1034.921      806.962      317.193        0.401        0.108       76.563       12.890        0.028      341.077       15.539      862.045
09/08/2013  03:56:00      -37.887      -36.331        0.198       31.230       14.854        9.860      975.336      220.652       97.219        0.202        0.065       52.492        9.176        0.031      341.134       15.635      862.031
09/08/2013  03:57:00       -6.595      -27.287        7.867       23.844       15.636       14.301      568.525      244.489      204.527        0.093        0.051       28.073       12.723        0.205      341.122       15.614      862.035
09/08/2013  03:58:00      -26.629      -22.695       11.776       37.041       29.410       24.074     1372.010      864.970      579.557        0.209        0.141       34.988       24.852        0.505      341.063       15.516      862.062
09/08/2013  03:59:00      -65.142      -69.223       -3.018       41.213       21.024       18.783     1698.543      442.001      352.819        0.577        0.125       95.054       20.172        0.045      341.038       15.474      862.062
09/08/2013  04:00:00      -68.801      -28.086        0.736       27.705       24.262       12.992      767.580      588.641      168.780        0.352        0.076       74.312       16.280        0.048      341.072       15.533      862.067
09/08/2013  04:01:00      -49.128      -37.589       -5.358       17.584       17.220       11.711      309.188      296.513      137.150        0.230        0.037       61.859        7.811        0.016      341.142       15.650      862.072
09/08/2013  04:02:00       -3.769      -51.728      -17.710       29.820       31.353       18.098      889.256      982.992      327.542        0.260        0.110       51.865       13.213        0.065      341.196       15.742      862.090
09/08/2013  04:03:00      -36.051      -41.091        7.595       29.071       44.218       20.614      845.128     1955.244      424.934        0.313        0.161       54.664       16.991        0.097      341.093       15.567      862.089
09/08/2013  04:04:00      -24.259      -14.867        8.702       36.171       29.792       23.203     1308.351      887.540      538.389        0.181        0.137       28.452       16.260        0.327      340.998       15.406      862.083
09/08/2013  04:05:00      -64.644      -37.778       -1.689       34.067       28.361       20.425     1160.573      804.330      417.200        0.400        0.119       74.874       15.979        0.046      340.973       15.364      862.068
09/08/2013  04:06:00      -60.790      -26.456        1.410       26.030       29.604       21.817      677.570      876.405      475.984        0.321        0.101       66.298       12.936        0.038      340.916       15.266      862.065
09/08/2013  04:07:00      -55.469      -49.769       10.276       58.714       32.549       25.755     3447.358     1059.413      663.345        0.541        0.259       74.523       20.663        0.077      340.918       15.270      862.062
09/08/2013  04:08:00      -82.941      -42.410        8.569       49.204       34.988       31.783     2421.067     1224.126     1010.137        0.670        0.233       93.154       27.722        0.089      340.837       15.133      862.066
09/08/2013  04:09:00     -113.400      -68.996       -3.437       43.432       34.616       24.343     1886.358     1198.288      592.589        1.065        0.184      132.741       23.494        0.031      340.877       15.201      862.074
09/08/2013  04:10:00      -76.243      -53.190        5.185       56.091       25.364       20.058     3146.218      643.348      402.337        0.643        0.210       92.963       22.488        0.059      340.903       15.245      862.077
09/08/2013  04:11:00      -78.650      -54.532       -6.577       18.660       18.980       12.109      348.195      360.239      146.639        0.503        0.043       95.705        8.975        0.009      340.906       15.249      862.084
09/08/2013  04:12:00      -44.208      -45.783       -6.253       21.030       15.844       14.197      442.277      251.036      201.551        0.249        0.045       63.643       12.541        0.039      340.989       15.390      862.081
09/08/2013  04:13:00      -49.565      -33.132       -0.731       24.249       18.195       16.329      588.012      331.047      266.628        0.237        0.059       59.619       10.138        0.029      340.974       15.365      862.079
09/08/2013  04:14:00      -43.129      -44.994        5.302       42.228       31.817       25.600     1783.198     1012.334      655.340        0.368        0.173       62.327       25.568        0.168      340.841       15.140      862.082
09/08/2013  04:15:00     -106.702      -65.227        5.447       45.034       29.582       21.692     2028.026      875.098      470.524        0.952        0.169      125.059       22.829        0.033      340.737       14.963      862.087
09/08/2013  04:16:00      -44.954      -40.169       10.783       36.552       34.631       21.563     1336.085     1199.274      464.942        0.337        0.150       60.286       18.602        0.095      340.743       14.973      862.075
09/08/2013  04:17:00      -67.081      -60.007        0.535       25.226       27.198       16.917      636.362      739.747      286.195        0.488        0.083       90.004       17.660        0.038      340.841       15.139      862.060
09/08/2013  04:18:00      -16.976      -15.792        3.677       27.193       12.435       11.363      739.453      154.620      129.124        0.079        0.051       23.185       13.084        0.318      340.819       15.102      862.046
09/08/2013  04:19:00      -36.349      -12.325        1.117       11.974        9.661        6.215      143.375       93.338       38.620        0.087        0.014       38.381        3.462        0.008      340.869       15.186      862.045
09/08/2013  04:20:00       -7.792      -28.080        1.444       27.683       14.330       10.561      766.364      205.343      111.538        0.097        0.054       29.141       10.947        0.141      340.903       15.245      862.059
09/08/2013  04:21:00      -61.525      -29.929       -0.141       30.834       22.971       16.857      950.723      527.674      284.151        0.322        0.088       68.419       12.557        0.034      340.863       15.177      862.068
09/08/2013  04:22:00      -83.333      -53.871       -4.584       20.562       19.606       11.140      422.810      384.386      124.090        0.540        0.047       99.230        9.289        0.009      340.784       15.043      862.070
09/08/2013  04:23:00     -101.838      -48.344       -8.899       25.489       22.395       15.560      649.673      501.526      242.121        0.709        0.070      112.730       12.646        0.013      340.741       14.971      862.067
09/08/2013  04:24:00      -85.278      -38.642       -8.808       22.306       25.424       14.427      497.538      646.383      208.136        0.510        0.068       93.624        8.200        0.008      340.717       14.929      862.059
09/08/2013  04:25:00      -68.745      -28.591      -10.178       17.637       14.078        9.543      311.068      198.196       91.071        0.312        0.030       74.453        5.814        0.006      340.709       14.917      862.047
09/08/2013  04:26:00      -51.137       -9.596       -4.602       10.837       17.414        9.123      117.444      303.240       83.237        0.162        0.025       52.030        5.880        0.013      340.737       14.964      862.037
09/08/2013  04:27:00      -76.237      -13.307       -9.949       10.190       14.181        9.951      103.831      201.111       99.025        0.325        0.020       77.389        4.109        0.003      340.750       14.985      862.023
09/08/2013  04:28:00      -85.194      -18.812      -11.656       13.397       14.474        8.087      179.484      209.484       65.395        0.410        0.023       87.246        6.808        0.006      340.686       14.878      862.015
09/08/2013  04:29:00     -108.835      -25.388      -17.305       21.786       12.055       10.481      474.645      145.331      109.857        0.676        0.036      111.756        6.933        0.004      340.677       14.863      862.022
09/08/2013  04:30:00      -97.114      -41.051       -2.178       18.182       17.214       12.964      330.595      296.306      168.053        0.596        0.040      105.434       10.364        0.010      340.606       14.744      862.041
09/08/2013  04:31:00     -101.486      -34.315       -7.357       20.892       13.048       15.100      436.461      170.251      228.010        0.618        0.042      107.130       11.014        0.011      340.472       14.515      862.047
09/08/2013  04:32:00     -106.148      -38.972       -9.729       20.523       18.442       11.237      421.194      340.106      126.262        0.688        0.044      113.076        8.621        0.006      340.504       14.571      862.057
09/08/2013  04:33:00      -77.549      -44.380      -10.170       13.674       11.588       12.006      186.979      134.273      144.144        0.428        0.023       89.349        4.216        0.002      340.508       14.576      862.058
09/08/2013  04:34:00      -70.058      -39.533       -3.001       14.127       10.970        9.965      199.563      120.331       99.298        0.345        0.021       80.442        8.901        0.012      340.470       14.511      862.069
09/08/2013  04:35:00      -63.592      -49.103       -4.702       28.304       19.551       16.185      801.090      382.248      261.942        0.396        0.072       80.343       11.485        0.020      340.512       14.584      862.076
09/08/2013  04:36:00      -48.691      -58.484        1.381       27.023       24.296       18.252      730.243      590.310      333.139        0.372        0.083       76.100       18.456        0.059      340.590       14.715      862.073
09/08/2013  04:37:00      -78.923      -45.781       -6.744       21.398       16.582       11.796      457.888      274.970      139.140        0.462        0.044       91.241        5.130        0.003      340.643       14.804      862.068
09/08/2013  04:38:00      -74.479      -57.979       -3.016       25.436       17.576       16.697      646.977      308.922      278.789        0.508        0.062       94.385       14.934        0.025      340.638       14.798      862.069
09/08/2013  04:39:00      -78.939      -47.909       -3.978       18.202       15.354       14.610      331.303      235.742      213.439        0.466        0.039       92.339       12.997        0.020      340.594       14.723      862.071
09/08/2013  04:40:00      -86.793      -37.785      -11.207       12.141       13.286        6.905      147.413      176.521       47.673        0.473        0.019       94.661        4.054        0.002      340.569       14.681      862.056
09/08/2013  04:41:00      -96.028      -23.839      -16.284       10.361       11.569       10.628      107.355      133.852      112.949        0.520        0.018       98.943        3.950        0.002      340.564       14.672      862.049
09/08/2013  04:42:00     -112.209      -22.044      -17.452       13.080       10.912       10.453      171.096      119.066      109.257        0.689        0.020      114.354        5.647        0.002      340.543       14.636      862.048
09/08/2013  04:43:00     -102.915      -48.066       -7.369       13.275       17.511       10.497      176.234      306.645      110.179        0.677        0.030      113.586        9.195        0.007      340.484       14.536      862.071
09/08/2013  04:44:00      -78.709      -53.343       -1.763       37.028       18.860       22.836     1371.044      355.695      521.489        0.565        0.112       95.082       18.119        0.036      340.406       14.403      862.083
09/08/2013  04:45:00      -54.516      -36.357        3.318       43.167       19.267       15.909     1863.390      371.226      253.088        0.340        0.124       65.528       12.334        0.035      340.465       14.504      862.095
09/08/2013  04:46:00      -60.211      -65.698        0.428       32.120       24.106       16.259     1031.712      581.092      264.341        0.491        0.094       89.115        9.766        0.012      340.406       14.404      862.096
09/08/2013  04:47:00      -81.881      -59.141        3.808       39.084       21.728       17.546     1527.573      472.099      307.858        0.626        0.115      101.005       19.557        0.037      340.414       14.417      862.098
09/08/2013  04:48:00     -105.946      -51.812       -1.902       19.692       24.823       15.567      387.794      616.175      242.327        0.758        0.062      117.936        9.265        0.006      340.423       14.433      862.106
09/08/2013  04:49:00     -111.768      -46.531       -1.420       35.208       34.050       16.690     1239.589     1159.389      278.550        0.867        0.134      121.067       17.582        0.021      340.398       14.392      862.110
09/08/2013  04:50:00     -113.066      -26.060       -0.623       33.666       24.683       17.484     1133.385      609.256      305.688        0.776        0.102      116.030       17.456        0.023      340.386       14.372      862.111
09/08/2013  04:51:00     -115.692      -36.305       -6.071       21.899       22.134       13.081      479.574      489.934      171.116        0.794        0.057      121.254        7.718        0.004      340.335       14.283      862.120
09/08/2013  04:52:00     -102.850      -29.230       -0.471       39.697       22.245       16.494     1575.849      494.856      272.046        0.689        0.117      106.923       15.827        0.022      340.222       14.093      862.127
09/08/2013  04:53:00      -81.157      -26.804       -4.539       28.854       27.989       15.145      832.580      783.405      229.357        0.459        0.092       85.469       13.126        0.024      340.286       14.202      862.125
09/08/2013  04:54:00      -47.209      -23.476       -0.876       40.735       18.902       12.716     1659.322      357.291      161.706        0.248        0.109       52.724       12.958        0.060      340.368       14.341      862.120
09/08/2013  04:55:00      -63.525      -42.373       -0.094       38.031       18.743       18.626     1446.359      351.305      346.913        0.399        0.107       76.361       22.386        0.086      340.290       14.209      862.115
09/08/2013  04:56:00      -92.824      -55.357       -6.156       19.899       15.900       16.596      395.954      252.807      275.424        0.632        0.046      108.078       12.740        0.014      340.334       14.284      862.122
09/08/2013  04:57:00     -105.061      -59.406      -11.127       17.077       17.860       15.620      291.611      318.968      243.973        0.777        0.043      120.694        8.439        0.005      340.370       14.343      862.133
09/08/2013  04:58:00     -120.847      -39.759      -10.721        8.435        9.729        6.907       71.152       94.655       47.706        0.826        0.011      127.219        4.893        0.001      340.379       14.359      862.144
09/08/2013  04:59:00      -98.301      -29.933       -5.339       34.789       25.759       20.396     1210.284      663.545      416.009        0.644        0.114      102.757       20.398        0.039      340.404       14.402      862.166
09/08/2013  05:00:00     -106.084      -40.243        1.686       30.449       19.855       12.915      927.145      394.223      166.809        0.718        0.074      113.461        8.882        0.006      340.512       14.584      862.172
09/08/2013  05:01:00      -78.299      -38.826        0.311       33.659       17.597       15.870     1132.914      309.652      251.850        0.467        0.085       87.397       12.305        0.020      340.534       14.620      862.177
09/08/2013  05:02:00      -46.253      -31.373       10.536       34.776       23.171       17.004     1209.392      536.893      289.132        0.263        0.102       55.889       19.027        0.116      340.498       14.559      862.192
09/08/2013  05:03:00      -56.284      -35.198        7.767       32.195       21.523       15.965     1036.524      463.229      254.870        0.311        0.088       66.384       15.860        0.057      340.445       14.470      862.208
09/08/2013  05:04:00      -62.680      -43.320       -2.147       27.684       14.169        8.428      766.409      200.766       71.031        0.342        0.052       76.193        1.841        0.001      340.442       14.466      862.217
09/08/2013  05:05:00      -24.845      -41.166       -0.435       27.227       25.655       13.375      741.307      658.170      178.893        0.194        0.079       48.082       14.182        0.087      340.484       14.536      862.219
09/08/2013  05:06:00      -69.985      -46.960        0.612       40.601       30.055       19.203     1648.479      903.306      368.746        0.501        0.146       84.280       15.512        0.034      340.444       14.469      862.226
09/08/2013  05:07:00     -101.662      -42.926        2.593       27.792       26.719       15.849      772.423      713.921      251.199        0.696        0.087      110.353       13.665        0.015      340.455       14.488      862.224
09/08/2013  05:08:00      -90.747      -23.143       -1.087       38.857       26.780       16.663     1509.869      717.147      277.655        0.564        0.125       93.652       16.538        0.031      340.429       14.442      862.232
09/08/2013  05:09:00     -105.214      -50.365       -6.793       32.233       33.238       22.382     1038.965     1104.786      500.938        0.815        0.132      116.647       22.637        0.038      340.315       14.250      862.241
09/08/2013  05:10:00      -79.074      -49.883       -5.026       29.582       24.009       22.680      875.110      576.444      514.379        0.537        0.098       93.494       15.586        0.028      340.344       14.302      862.264
09/08/2013  05:11:00     -121.951      -39.859      -12.695       42.167       31.701       23.001     1778.081     1004.954      529.060        0.997        0.166      128.300       22.908        0.032      340.332       14.280      862.270
09/08/2013  05:12:00     -151.367      -33.726       -8.172       54.024       39.045       25.462     2918.621     1524.476      648.296        1.460        0.255      155.078       27.025        0.030      340.197       14.052      862.261
09/08/2013  05:13:00     -150.431      -33.009       -4.461       41.474       29.219       23.455     1720.116      853.773      550.160        1.343        0.156      154.010       22.218        0.021      340.159       13.987      862.247
09/08/2013  05:14:00      -91.938       -2.386        3.597       44.427       34.613       23.371     1973.737     1198.084      546.195        0.609        0.186       91.969       22.723        0.061      340.283       14.197      862.240
09/08/2013  05:15:00     -101.232      -58.498       -0.991       22.347       35.396       17.768      499.396     1252.876      315.708        0.787        0.103      116.919       15.488        0.018      340.383       14.366      862.243
09/08/2013  05:16:00     -102.494      -69.991       -0.731       54.696       31.394       23.106     2991.632      985.569      533.875        0.996        0.226      124.112       16.602        0.018      340.360       14.327      862.243
09/08/2013  05:17:00     -139.472      -82.668       -0.211       49.142       37.079       26.773     2414.914     1374.851      716.804        1.540        0.225      162.131       24.688        0.023      340.276       14.185      862.250
09/08/2013  05:18:00     -174.382      -84.767      -11.660       48.060       31.688       24.282     2309.755     1004.117      589.604        2.082        0.195      193.893       23.750        0.015      340.376       14.352      862.257
09/08/2013  05:19:00     -134.106      -40.285       -0.390       49.670       37.329       20.136     2467.112     1393.429      405.464        1.194        0.213      140.026       20.952        0.022      340.409       14.410      862.259
09/08/2013  05:20:00     -133.018        3.973      -12.233       24.096       18.633       14.735      580.593      347.187      217.114        0.950        0.057      133.077       11.251        0.007      340.352       14.313      862.239
09/08/2013  05:21:00     -107.496       25.816      -16.725       40.384       30.689       16.694     1630.836      941.809      278.702        0.768        0.143      110.553       19.272        0.030      340.524       14.604      862.206
09/08/2013  05:22:00     -145.163       31.511      -13.581       26.095       22.864       14.501      680.926      522.764      210.283        1.183        0.071      148.543        8.110        0.003      340.666       14.844      862.198
09/08/2013  05:23:00     -139.026       -5.876      -14.334       28.356       27.441       15.270      804.051      753.036      233.172        1.068        0.090      139.150        9.114        0.004      340.740       14.969      862.208
09/08/2013  05:24:00     -177.005      -52.474       -6.221       30.606       36.610       16.783      936.709     1340.320      281.677        1.834        0.128      184.619        9.489        0.003      340.405       14.403      862.225
09/08/2013  05:25:00     -161.620      -73.425       -0.114       51.979       50.953       26.980     2701.862     2596.238      727.902        1.877        0.301      177.517       17.401        0.010      340.309       14.240      862.242
09/08/2013  05:26:00     -121.664      -99.544       -1.885       77.845       50.018       32.191     6059.822     2501.840     1036.288        1.715        0.480      157.198       33.252        0.045      340.393       14.382      862.269
09/08/2013  05:27:00     -124.238     -104.697       -0.714       58.721       54.133       30.881     3448.174     2930.381      953.660        1.686        0.367      162.470       29.147        0.032      340.415       14.418      862.288
09/08/2013  05:28:00     -117.095      -72.069        4.266       45.589       42.241       24.949     2078.382     1784.287      622.431        1.170        0.224      137.496       22.690        0.027      340.408       14.408      862.300
09/08/2013  05:29:00      -79.417      -46.857       -0.996       39.416       24.347       16.967     1553.633      592.756      287.863        0.547        0.122       92.210       15.324        0.028      340.428       14.442      862.309
09/08/2013  05:30:00      -51.234      -62.580        0.563       34.919       42.287       19.277     1219.312     1788.225      371.607        0.496        0.169       80.878       11.889        0.022      340.450       14.479      862.309
09/08/2013  05:31:00      -94.409      -74.554       -3.620       20.020       23.442       19.188      400.788      549.516      368.179        0.790        0.066      120.296        8.860        0.005      340.491       14.549      862.294
09/08/2013  05:32:00      -96.225      -45.681       -5.409       34.084       20.166       16.292     1161.729      406.686      265.436        0.660        0.092      106.518       13.928        0.017      340.463       14.498      862.287
09/08/2013  05:33:00      -85.080      -48.822        2.529       27.585       28.580       17.067      760.911      816.815      291.298        0.575        0.093       98.093       14.455        0.022      340.403       14.399      862.282
09/08/2013  05:34:00     -102.797      -66.274        0.545       36.595       29.628       22.495     1339.158      877.848      506.007        0.884        0.136      122.309       18.029        0.022      340.362       14.331      862.295
09/08/2013  05:35:00     -108.193      -63.765       -2.293       52.188       37.724       22.584     2723.598     1423.063      510.036        1.022        0.233      125.586       22.416        0.032      340.292       14.211      862.297
09/08/2013  05:36:00     -119.432      -56.234       -6.723       74.468       30.212       16.882     5545.503      912.783      284.986        1.211        0.337      132.008       28.639        0.047      340.296       14.218      862.300
09/08/2013  05:37:00      -32.071      -13.672        2.625       32.558       19.954       17.063     1060.031      398.182      291.139        0.149        0.087       34.864       14.683        0.177      340.250       14.138      862.300
09/08/2013  05:38:00      -28.892      -22.581       -0.565       22.969       11.036       11.177      527.557      121.794      124.916        0.106        0.039       36.669       11.813        0.104      340.282       14.195      862.303
09/08/2013  05:39:00      -58.108      -14.326      -11.218       14.882       14.974        8.767      221.475      224.225       76.858        0.212        0.026       59.848        5.212        0.008      340.197       14.051      862.302
09/08/2013  05:40:00      -30.100      -25.352        3.913       31.551       21.383       21.035      995.474      457.249      442.465        0.173        0.095       39.353       17.942        0.208      340.252       14.143      862.312
09/08/2013  05:41:00      -93.184      -86.429        9.886       54.566       47.757       34.207     2977.468     2280.720     1170.128        1.134        0.321      127.095       31.241        0.060      340.182       14.025      862.340
09/08/2013  05:42:00     -180.148     -120.705       -3.731       76.361       61.389       41.801     5830.953     3768.584     1747.289        2.919        0.567      216.848       41.470        0.037      340.138       13.947      862.362
09/08/2013  05:43:00     -185.572      -86.056      -10.287       52.760       49.490       28.756     2783.635     2449.260      826.887        2.400        0.303      204.555       27.440        0.018      340.084       13.858      862.369
09/08/2013  05:44:00     -134.640      -48.192       -4.698       28.364       30.033       18.287      804.534      901.960      334.429        1.126        0.102      143.005       16.795        0.014      340.126       13.932      862.373
09/08/2013  05:45:00     -108.027      -47.107       -8.879       19.096       15.869       12.617      364.658      251.824      159.200        0.737        0.039      117.851       10.753        0.008      340.169       14.003      862.368
09/08/2013  05:46:00      -61.171      -20.795       -4.000       20.202       15.373       10.075      408.138      236.317      101.500        0.247        0.037       64.609        8.528        0.017      340.165       13.998      862.373
09/08/2013  05:47:00      -13.159      -33.809       -8.480       15.480       12.278        7.879      239.631      150.760       62.083        0.092        0.023       36.280        3.610        0.010      340.375       14.352      862.364
09/08/2013  05:48:00        1.287      -38.531       -7.817       11.667        8.133       10.471      136.130       66.152      109.640        0.093        0.016       38.553        5.127        0.018      340.220       14.088      862.366
09/08/2013  05:49:00      -68.673      -45.958        3.687       43.187       25.945       19.414     1865.126      673.158      376.909        0.488        0.146       82.633       15.053        0.033      340.286       14.202      862.379
09/08/2013  05:50:00     -126.496      -79.337       -2.499       36.475       27.850       20.615     1330.401      775.613      424.971        1.242        0.127      149.317       18.530        0.015      340.127       13.933      862.397
09/08/2013  05:51:00     -123.721      -33.615        0.382       45.225       37.279       21.281     2045.264     1389.751      452.893        1.016        0.194      128.206       18.828        0.022      340.140       13.954      862.398
09/08/2013  05:52:00      -96.537      -23.697       -0.650       31.517       26.901       21.755      993.333      723.653      473.284        0.604        0.110       99.403       20.145        0.041      340.254       14.146      862.392
09/08/2013  05:53:00      -95.299      -27.449       -5.475       26.821       22.999       13.160      719.392      528.943      173.190        0.564        0.071       99.173       11.749        0.014      340.416       14.420      862.377
09/08/2013  05:54:00      -45.878      -44.689        7.257       46.500       40.059       23.828     2162.217     1604.752      567.770        0.424        0.217       64.046       26.101        0.166      340.322       14.261      862.382
09/08/2013  05:55:00     -129.724      -94.509       -1.647       62.623       41.006       33.096     3921.688     1681.460     1095.341        1.623        0.335      160.500       34.321        0.046      340.192       14.043      862.367
09/08/2013  05:56:00      -84.123      -63.450        6.578       60.859       31.476       27.080     3703.809      990.710      733.305        0.829        0.271      105.368       21.811        0.043      340.201       14.057      862.358
09/08/2013  05:57:00     -104.733      -98.927        3.310       57.200       33.642       31.176     3271.847     1131.762      971.973        1.307        0.269      144.067       31.577        0.048      340.207       14.068      862.366
09/08/2013  05:58:00     -132.170      -98.317       -4.570       51.973       47.842       31.348     2701.182     2288.889      982.696        1.656        0.299      164.727       16.990        0.011      340.179       14.020      862.362
09/08/2013  05:59:00     -127.949      -92.531       -6.535       53.473       42.942       26.827     2859.397     1844.011      719.664        1.520        0.271      157.902       25.279        0.026      340.148       13.967      862.360
09/08/2013  06:00:00     -101.509      -39.779        0.970       42.132       37.306       18.473     1775.080     1391.757      341.236        0.770        0.175      109.026       18.891        0.030      340.167       14.001      862.346
09/08/2013  06:01:00      -98.460      -58.946       -2.578       57.450       19.563       20.998     3300.522      382.728      440.923        0.865        0.206      114.756       19.624        0.029      340.191       14.041      862.343
09/08/2013  06:02:00     -106.151      -69.644        3.173       42.160       32.168       25.887     1777.470     1034.754      670.127        0.980        0.174      126.958       21.762        0.029      340.090       13.872      862.349
09/08/2013  06:03:00     -117.826     -102.065       -3.939       62.224       57.865       27.646     3871.805     3348.351      764.297        1.615        0.399      155.885       29.588        0.036      340.176       14.014      862.352
09/08/2013  06:04:00     -125.696      -99.014       -0.142       59.142       48.651       31.458     3497.805     2366.876      989.633        1.623        0.343      160.010       29.468        0.034      340.183       14.028      862.351
09/08/2013  06:05:00     -177.804      -92.836       -1.794       45.701       48.161       27.694     2088.596     2319.518      766.976        2.270        0.259      200.581       25.202        0.016      340.142       13.957      862.344
09/08/2013  06:06:00     -109.077      -36.779        0.725       37.494       50.245       21.914     1405.813     2524.540      480.208        0.883        0.221      115.111       19.153        0.028      340.139       13.954      862.346
09/08/2013  06:07:00      -92.013      -80.578        1.597       66.216       37.066       27.879     4384.517     1373.904      777.245        1.075        0.327      122.308       31.622        0.067      340.175       14.014      862.355
09/08/2013  06:08:00      -52.384      -54.988       12.631       45.748       42.283       27.804     2092.917     1787.818      773.037        0.529        0.233       75.946       19.935        0.069      340.256       14.149      862.368
09/08/2013  06:09:00      -64.998      -44.198       -8.969       40.287       42.877       29.206     1623.039     1838.452      852.981        0.529        0.216       78.601       15.964        0.041      340.351       14.313      862.383
09/08/2013  06:10:00      -49.628      -67.717       15.218       70.261       35.806       34.105     4936.556     1282.085     1163.142        0.733        0.369       83.956       27.887        0.110      340.294       14.214      862.399
09/08/2013  06:11:00      -46.338      -54.526        9.423       44.986       50.134       31.568     2023.741     2513.414      996.561        0.537        0.277       71.556       24.789        0.120      340.180       14.022      862.402
09/08/2013  06:12:00      -53.737      -41.753        5.795       62.488       38.836       32.124     3904.768     1508.227     1031.947        0.555        0.322       68.051       27.152        0.159      340.140       13.955      862.419
09/08/2013  06:13:00      -86.030      -69.767       -0.366       66.798       48.685       30.858     4461.931     2370.205      952.222        1.002        0.389      110.764       32.674        0.087      340.099       13.885      862.428
09/08/2013  06:14:00      -65.875      -33.302        7.474       55.445       50.981       28.156     3074.125     2599.055      792.777        0.598        0.323       73.814       29.333        0.158      339.958       13.648      862.417
09/08/2013  06:15:00      -80.001      -63.262        0.761       51.895       39.920       27.426     2693.078     1593.625      752.171        0.772        0.252      101.991       25.105        0.061      340.009       13.735      862.399
09/08/2013  06:16:00      -83.258     -102.091       -7.073       40.653       36.860       24.530     1652.679     1358.634      601.705        1.051        0.181      131.737       22.590        0.029      340.027       13.765      862.403
09/08/2013  06:17:00     -120.553      -94.956       -4.024       43.098       43.280       23.893     1857.425     1873.166      570.866        1.393        0.215      153.459       17.820        0.013      340.015       13.744      862.406
09/08/2013  06:18:00      -58.286      -47.638        9.889       64.795       34.364       28.730     4198.430     1180.893      825.384        0.598        0.310       75.277       27.375        0.132      340.024       13.759      862.408
09/08/2013  06:19:00      -75.443      -43.130        8.326       83.157       44.442       34.402     6915.126     1975.068     1183.498        0.885        0.504       86.901       40.926        0.222      340.032       13.772      862.411
09/08/2013  06:20:00     -127.427      -99.814       -0.896       53.211       48.321       33.190     2831.378     2334.944     1101.548        1.623        0.313      161.866       32.790        0.041      339.965       13.661      862.429
09/08/2013  06:21:00     -122.558      -83.374        0.243       65.573       58.388       37.381     4299.868     3409.182     1397.363        1.554        0.455      148.229       33.891        0.052      339.949       13.631      862.437
09/08/2013  06:22:00     -109.828      -73.510       -4.026       61.436       46.565       24.776     3774.345     2168.298      613.856        1.202        0.328      132.158       25.629        0.038      339.996       13.712      862.438
09/08/2013  06:23:00      -99.517      -81.986        2.444       49.363       37.377       27.630     2436.682     1397.020      763.429        1.061        0.230      128.939       28.052        0.047      339.986       13.695      862.432
09/08/2013  06:24:00     -128.096     -118.217       -7.198       32.516       25.366       26.399     1057.287      643.420      696.925        1.642        0.120      174.310       20.525        0.014      339.983       13.690      862.452
09/08/2013  06:25:00      -88.565      -33.284       -1.348       57.456       51.724       37.524     3301.195     2675.390     1408.036        0.817        0.369       94.613       27.364        0.084      339.895       13.543      862.458
09/08/2013  06:26:00     -160.335      -94.119      -16.041       57.729       40.665       31.359     3332.694     1653.618      983.416        2.040        0.298      185.918       26.746        0.021      339.901       13.551      862.449
09/08/2013  06:27:00     -128.778      -88.058       -3.880       55.644       44.879       31.616     3096.277     2014.108      999.543        1.523        0.305      156.007       30.259        0.038      339.942       13.619      862.436
09/08/2013  06:28:00     -101.556      -67.714        5.867       43.821       37.715       27.210     1920.311     1422.399      740.391        0.951        0.204      122.061       22.127        0.033      339.934       13.609      862.443
09/08/2013  06:29:00     -108.488      -46.933       -1.075       23.288       23.470       14.949      542.348      550.830      223.487        0.764        0.066      118.205        9.822        0.007      339.949       13.634      862.455
09/08/2013  06:30:00      -68.481      -26.550        4.052       32.858       35.686       17.405     1079.623     1273.502      302.932        0.403        0.133       73.448       17.914        0.059      339.934       13.607      862.469
09/08/2013  06:31:00      -75.061       -1.007       -5.162       30.575       19.976       16.266      934.855      399.030      264.595        0.363        0.080       75.068       16.437        0.048      339.892       13.537      862.479
09/08/2013  06:32:00      -90.447       -8.448       -6.520       38.246       22.918       16.294     1462.750      525.249      265.501        0.527        0.113       90.841       19.680        0.047      339.829       13.431      862.506
09/08/2013  06:33:00      -89.268      -22.971       -4.347       23.661       23.486       14.591      559.855      551.581      212.902        0.492        0.066       92.176       11.278        0.015      339.767       13.327      862.533
09/08/2013  06:34:00      -22.051      -52.500       15.268       49.430       28.685       22.055     2443.352      822.806      486.415        0.361        0.188       56.943       23.947        0.177      339.937       13.613      862.552
09/08/2013  06:35:00     -129.526      -58.338        3.498       58.390       32.156       22.100     3409.416     1033.998      488.391        1.256        0.247      142.057       21.998        0.024      339.799       13.378      862.544
09/08/2013  06:36:00     -109.748      -28.839        1.286       51.200       43.716       27.696     2621.404     1911.113      767.063        0.909        0.265      113.473       26.226        0.053      339.780       13.348      862.525
09/08/2013  06:37:00     -116.360      -34.187       -4.189       42.037       38.074       22.522     1767.133     1449.633      507.242        0.922        0.186      121.278       21.454        0.031      339.838       13.447      862.538
09/08/2013  06:38:00      -79.730      -24.588      -10.385       37.923       31.674       12.736     1438.122     1003.224      162.203        0.484        0.130       83.436        8.770        0.011      339.782       13.352      862.543
09/08/2013  06:39:00      -74.096       -0.416       -4.162       44.024       27.853       16.682     1938.123      775.812      278.282        0.425        0.150       74.097       13.814        0.035      339.640       13.112      862.545
09/08/2013  06:40:00      -73.900        4.239        1.269       48.788       29.984       15.908     2380.252      899.057      253.066        0.451        0.177       74.022       15.583        0.044      339.597       13.041      862.541
09/08/2013  06:41:00      -78.404      -29.236       -2.404       30.311       24.858       18.180      918.729      617.932      330.519        0.444        0.093       83.677       17.675        0.045      339.652       13.132      862.557
09/08/2013  06:42:00      -63.981      -24.795        4.992       37.838       28.839       18.069     1431.710      831.674      326.506        0.366        0.129       68.617       16.870        0.060      339.662       13.148      862.581
09/08/2013  06:43:00      -78.499      -61.900       -2.133       46.844       37.358       22.361     2194.327     1395.616      500.036        0.704        0.204       99.969       24.798        0.062      339.775       13.341      862.584
09/08/2013  06:44:00      -99.910      -45.531        0.151       36.479       43.319       24.564     1330.728     1876.511      603.410        0.793        0.191      109.796       18.582        0.029      339.810       13.400      862.586
09/08/2013  06:45:00     -115.160      -94.547       -9.504       49.764       53.377       32.536     2476.448     2849.097     1058.608        1.434        0.319      149.000       27.384        0.034      339.763       13.320      862.595
09/08/2013  06:46:00     -117.588        0.174      -10.236       36.081       45.909       19.810     1301.822     2107.655      392.438        0.887        0.190      117.589       21.293        0.033      339.687       13.191      862.596
09/08/2013  06:47:00      -89.238      -41.081       -7.124       18.980       21.251       14.443      360.237      451.624      208.611        0.536        0.051       98.240        6.697        0.005      339.698       13.211      862.598
09/08/2013  06:48:00      -91.815      -34.696       -0.999       25.536       26.917       16.777      652.074      724.548      281.452        0.565        0.083       98.152       11.702        0.014      339.683       13.185      862.598
09/08/2013  06:49:00      -65.162      -28.930        0.959       53.156       30.412       23.674     2825.550      924.894      560.461        0.470        0.216       71.295       28.225        0.157      339.696       13.205      862.599
09/08/2013  06:50:00      -78.258      -16.375       -0.504       26.642       24.558       16.243      709.775      603.078      263.821        0.398        0.079       79.953        9.925        0.015      339.661       13.147      862.609
09/08/2013  06:51:00      -70.112      -35.724        5.503       39.696       21.882       20.631     1575.745      478.810      425.621        0.435        0.124       78.689       20.294        0.067      339.674       13.170      862.618
09/08/2013  06:52:00      -70.326      -73.693       -3.508       27.924       19.932       15.684      779.726      397.292      245.977        0.591        0.071      101.865       15.608        0.023      339.744       13.289      862.646
09/08/2013  06:53:00      -56.143      -60.917       -4.769       27.174       24.716       19.216      738.416      610.865      369.258        0.430        0.086       82.843       20.477        0.061      339.777       13.343      862.662
09/08/2013  06:54:00      -53.198      -44.945       -2.672       28.348       14.839       13.989      803.622      220.181      195.693        0.304        0.061       69.642       13.658        0.038      339.784       13.354      862.659
09/08/2013  06:55:00      -66.808      -26.143       -9.897       13.233       16.482       14.157      175.107      271.672      200.413        0.295        0.032       71.741        9.850        0.019      339.808       13.397      862.654
09/08/2013  06:56:00      -39.757      -22.555        0.592       30.169       14.179       11.644      910.174      201.039      135.581        0.167        0.062       45.709        6.299        0.019      339.788       13.361      862.652
09/08/2013  06:57:00      -22.906      -37.131        3.347       23.543       30.259       15.907      554.255      915.622      253.028        0.182        0.086       43.628       18.537        0.181      339.807       13.394      862.649
09/08/2013  06:58:00      -72.035      -62.348        1.863       52.469       56.018       24.601     2753.019     3137.983      605.227        0.779        0.325       95.270       13.962        0.021      339.756       13.308      862.654
09/08/2013  06:59:00     -145.025     -116.587       -9.536       63.569       55.060       31.322     4041.005     3031.581      981.047        2.138        0.403      186.077       25.455        0.019      339.739       13.276      862.667
09/08/2013  07:00:00     -135.789     -106.374       -8.284       59.629       53.784       27.579     3555.641     2892.666      760.590        1.851        0.360      172.494       27.121        0.025      339.741       13.281      862.675
09/08/2013  07:01:00     -138.739      -63.942      -16.505       24.571       38.236       15.021      603.753     1461.977      225.634        1.295        0.115      152.765        8.975        0.003      339.751       13.300      862.671
09/08/2013  07:02:00      -74.506      -36.192       -4.883       34.148       31.803       20.824     1166.103     1011.458      433.655        0.475        0.131       82.831       17.905        0.047      339.753       13.304      862.668
09/08/2013  07:03:00      -21.606      -24.969       -8.097       25.006       11.601       11.229      625.284      134.582      126.085        0.102        0.044       33.020        9.159        0.077      339.854       13.473      862.677
09/08/2013  07:04:00       -5.702       -6.774       -6.570       15.033        8.728       12.160      225.990       76.182      147.876        0.029        0.023        8.854       10.665        1.451      339.927       13.596      862.693
09/08/2013  07:05:00       -8.727      -44.989        0.693       20.671       30.987       15.623      427.285      960.181      244.075        0.187        0.082       45.828       12.245        0.071      339.886       13.527      862.714
09/08/2013  07:06:00        3.324      -34.785        5.143       21.169       15.057       17.929      448.142      226.713      321.432        0.112        0.050       34.943       12.890        0.136      339.857       13.476      862.745
09/08/2013  07:07:00      -17.321      -11.041        7.767       24.092       14.145       19.370      580.413      200.089      375.194        0.082        0.058       20.540       18.513        0.812      339.932       13.605      862.766
09/08/2013  07:08:00      -38.351      -10.714       -6.855       20.663       31.128       17.694      426.966      968.968      313.076        0.167        0.085       39.819       12.638        0.101      339.916       13.577      862.765
09/08/2013  07:09:00      -76.178      -11.188       -8.779       20.516       16.654       16.341      420.914      277.365      267.027        0.349        0.048       76.995       10.910        0.020      339.914       13.574      862.763
09/08/2013  07:10:00      -58.199      -26.570       -5.246       42.982       24.200       24.456     1847.493      585.656      598.099        0.358        0.152       63.977       23.512        0.135      339.919       13.583      862.763
09/08/2013  07:11:00      -44.906      -28.192       -3.690       19.304       14.714       11.480      372.656      216.506      131.783        0.177        0.036       53.022       10.428        0.039      339.920       13.583      862.769
09/08/2013  07:12:00      -17.251       -6.390        6.575       31.541       17.275       16.490      994.817      298.420      271.906        0.097        0.078       18.396       16.352        0.790      340.038       13.782      862.772
09/08/2013  07:13:00       -9.381       -8.544        2.444       18.968       16.597       15.504      359.769      275.456      240.375        0.052        0.044       12.689       10.234        0.651      340.021       13.754      862.764
09/08/2013  07:14:00      -14.389       16.802       -9.155       14.843       24.860       12.508      220.325      618.025      156.438        0.078        0.050       22.122       11.229        0.258      339.993       13.707      862.763
09/08/2013  07:15:00      -50.171        4.729        4.301       31.101       30.051       18.018      967.293      903.081      324.661        0.238        0.110       50.394       13.662        0.073      340.041       13.787      862.753
09/08/2013  07:16:00      -46.195      -29.062       11.162       39.849       30.671       20.161     1587.915      940.729      406.478        0.302        0.147       54.577       23.206        0.181      340.063       13.824      862.747
09/08/2013  07:17:00      -66.583      -59.028        1.811       45.949       32.406       23.456     2111.314     1050.129      550.201        0.582        0.186       88.981       23.437        0.069      339.956       13.646      862.753
09/08/2013  07:18:00     -104.015      -58.512       -1.789       40.877       41.995       23.727     1670.904     1763.573      562.950        0.912        0.200      119.343       22.875        0.037      339.928       13.597      862.755
09/08/2013  07:19:00      -70.110      -51.217       -4.922       31.303       34.364       15.420      979.905     1180.857      237.790        0.498        0.120       86.825       12.613        0.021      339.949       13.632      862.746
09/08/2013  07:20:00      -43.182      -36.821       -1.451       25.669       20.601       12.361      658.892      424.381      152.797        0.223        0.062       56.750       14.560        0.066      340.034       13.777      862.754
09/08/2013  07:21:00      -57.398      -26.742       -4.496       34.273       25.776       14.897     1174.626      664.425      221.916        0.305        0.103       63.322       15.952        0.063      340.124       13.928      862.758
09/08/2013  07:22:00      -84.017      -24.991       -7.237       26.003       24.718       17.677      676.174      610.974      312.474        0.467        0.080       87.655       13.829        0.025      340.056       13.813      862.766
09/08/2013  07:23:00      -88.404       -3.539       -1.029       33.707       33.422       21.274     1136.159     1117.059      452.562        0.527        0.135       88.475       20.759        0.055      339.992       13.705      862.774
09/08/2013  07:24:00     -104.678      -57.610       -3.579       43.259       34.285       20.720     1871.335     1175.477      429.323        0.888        0.174      119.484       21.980        0.034      339.983       13.690      862.794
09/08/2013  07:25:00     -125.025      -31.347       -4.895       30.826       28.994       16.063      950.230      840.678      258.035        0.934        0.102      128.895        9.442        0.005      339.930       13.602      862.825
09/08/2013  07:26:00      -77.899       -2.968       -3.410       35.237       28.538       20.801     1241.619      814.438      432.672        0.429        0.124       77.955       18.179        0.054      339.954       13.642      862.839
09/08/2013  07:27:00     -146.027       20.888       -9.795       32.297       20.355       19.325     1043.110      414.320      373.464        1.184        0.092      147.514       18.377        0.016      339.890       13.532      862.820
09/08/2013  07:28:00     -134.172        0.139       -9.855       41.233       26.393       15.430     1700.160      696.580      238.092        1.037        0.132      134.172       18.777        0.020      339.867       13.495      862.808
09/08/2013  07:29:00      -99.635      -27.762        2.360       34.119       32.306       20.769     1164.133     1043.681      431.348        0.667        0.132      103.430       19.779        0.037      339.924       13.592      862.796
09/08/2013  07:30:00      -95.050      -61.020       -5.657       39.291       28.849       16.141     1543.754      832.273      260.547        0.771        0.132      112.951       14.673        0.017      339.998       13.717      862.806
09/08/2013  07:31:00     -100.052      -42.085       -7.697       31.159       28.392       17.867      970.910      806.115      319.231        0.697        0.105      108.543       14.483        0.018      339.933       13.606      862.816
09/08/2013  07:32:00      -83.451      -22.702       -6.992       29.476       21.480       18.538      868.829      461.371      343.661        0.460        0.084       86.484       16.564        0.037      339.988       13.696      862.831
09/08/2013  07:33:00      -83.025      -13.482      -10.923       17.319       16.816       12.037      299.939      282.767      144.883        0.396        0.036       84.113        7.118        0.007      340.040       13.783      862.839
09/08/2013  07:34:00      -89.879        2.584       -5.859       22.378       23.571        8.012      500.753      555.615       64.189        0.462        0.056       89.917        5.711        0.004      340.081       13.855      862.826
09/08/2013  07:35:00     -124.684       -9.074       -9.186       21.327       23.907       15.783      454.847      571.528      249.112        0.849        0.064      125.014       12.977        0.011      340.068       13.835      862.819
09/08/2013  07:36:00     -111.239      -48.822      -11.203       28.291       14.053       11.130      800.405      197.478      123.881        0.800        0.056      121.481        9.616        0.006      340.120       13.923      862.812
09/08/2013  07:37:00      -93.419       -7.195        2.672       32.274       27.503       19.402     1041.579      756.392      376.431        0.548        0.109       93.696       18.594        0.039      340.158       13.986      862.819
09/08/2013  07:38:00      -76.448      -29.005       -3.809       20.630       19.966       11.247      425.594      398.622      126.496        0.383        0.048       81.766        8.695        0.011      340.187       14.033      862.807
09/08/2013  07:39:00      -78.670      -18.969       -8.846        8.142        8.161        7.715       66.292       66.598       59.518        0.341        0.010       80.924        2.628        0.001      340.221       14.092      862.803
09/08/2013  07:40:00      -66.961      -25.219       -1.727       23.074       21.346       14.615      532.411      455.637      213.598        0.316        0.060       71.553       13.939        0.038      340.264       14.163      862.791
09/08/2013  07:41:00      -58.596      -36.254        4.352       23.153       19.983       14.926      536.070      399.303      222.790        0.296        0.058       68.904        9.945        0.021      340.338       14.289      862.772
09/08/2013  07:42:00      -50.815      -28.825       -1.322       24.765       17.533       16.226      613.287      307.417      263.285        0.230        0.059       58.422       11.702        0.040      340.441       14.463      862.765
09/08/2013  07:43:00      -39.757      -22.913       -5.891       28.985       14.801        8.612      840.117      219.078       74.168        0.164        0.057       45.887        7.958        0.030      340.474       14.519      862.759
09/08/2013  07:44:00       -7.113      -20.227        9.177        8.683       10.807       11.576       75.389      116.782      134.003        0.043        0.016       21.441        1.296        0.004      340.658       14.832      862.751
09/08/2013  07:45:00      -27.378        1.511        0.007       11.275        8.438        9.243      127.128       71.193       85.432        0.052        0.014       27.419        6.369        0.054      340.572       14.684      862.745
09/08/2013  07:46:00      -22.400        7.863       -1.812       15.316        8.337       10.461      234.568       69.511      109.424        0.049        0.021       23.740        9.229        0.151      340.667       14.845      862.746
09/08/2013  07:47:00      -25.064       -3.179       -5.752        8.846        8.946        8.749       78.257       80.026       76.543        0.045        0.012       25.264        7.509        0.088      340.640       14.801      862.744
09/08/2013  07:48:00      -34.021       -5.509       -9.381       14.954       21.348       14.164      223.634      455.736      200.607        0.108        0.044       34.464       15.564        0.204      340.631       14.785      862.745
09/08/2013  07:49:00       21.921      -15.198       16.917       33.700       24.296       23.270     1135.668      590.312      541.488        0.163        0.113       26.674       22.224        0.694      340.887       15.218      862.741
09/08/2013  07:50:00      -12.949      -36.255       -5.894       14.991       12.909       11.249      224.742      166.632      126.547        0.102        0.026       38.498       11.563        0.090      340.720       14.938      862.737
09/08/2013  07:51:00      -33.737      -49.823       -2.749       17.344       13.142       12.271      300.800      172.704      150.586        0.213        0.031       60.171       10.058        0.028      340.732       14.956      862.734
09/08/2013  07:52:00      -34.115      -48.562       -3.897       15.499       13.719        9.814      240.224      188.216       96.310        0.203        0.026       59.347        8.146        0.019      340.760       15.001      862.744
09/08/2013  07:53:00      -41.260      -33.229       -3.614       25.539       26.448       16.104      652.249      699.517      259.333        0.222        0.081       52.977       18.107        0.117      340.885       15.214      862.747
09/08/2013  07:54:00       -8.939      -20.257       -4.417       42.130       33.360       28.899     1774.906     1112.898      835.173        0.212        0.186       22.142       26.329        1.414      340.903       15.246      862.745
09/08/2013  07:55:00      -41.972        4.546       -4.682       19.233       16.391       20.113      369.892      268.680      404.541        0.142        0.052       42.218       16.523        0.153      341.004       15.416      862.738
09/08/2013  07:56:00      -26.116       -5.023        1.913       22.953       19.769       12.448      526.826      390.795      154.948        0.089        0.054       26.595        8.296        0.097      341.057       15.505      862.726
09/08/2013  07:57:00      -17.880      -59.951        3.985       22.677       30.716       15.067      514.232      943.497      227.015        0.281        0.084       62.560       13.585        0.047      340.957       15.336      862.721
09/08/2013  07:58:00      -65.893      -90.044       -6.816       30.208       26.096       19.057      912.530      681.009      363.182        0.723        0.098      111.579       11.424        0.010      340.792       15.057      862.725
09/08/2013  07:59:00      -48.110      -60.610        5.983       28.513       36.655       21.726      812.973     1343.619      472.037        0.433        0.131       77.383       16.035        0.043      340.981       15.376      862.726
09/08/2013  08:00:00      -57.805      -55.992        4.763       39.451       39.826       21.083     1556.389     1586.121      444.485        0.504        0.179       80.477       19.972        0.062      340.991       15.393      862.723
09/08/2013  08:01:00      -76.924      -86.045       -0.276       23.906       27.874       17.886      571.511      776.944      319.912        0.749        0.083      115.417       15.697        0.018      340.874       15.196      862.717
09/08/2013  08:02:00      -57.215      -41.275       -2.152       19.856       18.183       10.894      394.250      330.606      118.684        0.291        0.042       70.550        7.670        0.012      340.936       15.299      862.712
09/08/2013  08:03:00      -33.681      -44.155        7.504       24.594       24.136       11.519      604.847      582.542      132.697        0.223        0.066       55.535       11.665        0.044      340.985       15.384      862.723
09/08/2013  08:04:00      -66.347      -67.459       -6.450       21.452       24.031       20.037      460.170      577.474      401.501        0.522        0.072       94.619       18.182        0.037      341.042       15.480      862.721
09/08/2013  08:05:00      -55.494      -35.700        2.917       25.116       29.322       16.481      630.811      859.780      271.625        0.306        0.088       65.985       16.262        0.061      341.188       15.728      862.716
09/08/2013  08:06:00      -16.688      -17.921       11.879       20.514       18.436       16.484      420.820      339.875      271.736        0.089        0.052       24.487       16.107        0.433      341.338       15.982      862.716
09/08/2013  08:07:00       -6.980      -23.816       -0.091        9.026       12.836       11.449       81.461      164.775      131.083        0.050        0.019       24.818        9.551        0.148      341.340       15.985      862.716
09/08/2013  08:08:00       -2.126      -30.920        3.742       13.211       17.070       16.009      174.538      291.395      256.300        0.085        0.036       30.993       11.958        0.149      341.327       15.963      862.724
09/08/2013  08:09:00       35.851      -24.200       14.173       34.703       30.433       26.812     1204.310      926.143      718.901        0.246        0.142       43.254       20.133        0.217      341.280       15.883      862.731
09/08/2013  08:10:00       27.312      -59.937       -0.094       32.102       33.755       27.562     1030.536     1139.369      759.649        0.363        0.146       65.866       16.946        0.066      341.125       15.621      862.742
09/08/2013  08:11:00      -15.697      -37.936        2.893       33.444       18.945       21.555     1118.505      358.909      464.600        0.182        0.097       41.056       12.364        0.091      341.365       16.027      862.743
09/08/2013  08:12:00      -53.329      -32.129       -2.924       18.686       19.371        9.629      349.150      375.242       92.725        0.235        0.041       62.260        6.054        0.009      341.333       15.973      862.728
09/08/2013  08:13:00      -47.432      -34.374       -6.306       15.716       14.241        9.462      246.993      202.820       89.537        0.201        0.027       58.578        6.832        0.014      341.374       16.043      862.720
09/08/2013  08:14:00       -3.281      -30.631      -12.933       26.060       19.134       14.115      679.131      366.094      199.229        0.118        0.062       30.806       11.553        0.141      341.320       15.951      862.702
09/08/2013  08:15:00        4.424      -52.895      -16.794       21.890       17.566       21.884      479.155      308.578      478.912        0.218        0.063       53.079        4.995        0.009      341.198       15.744      862.683
09/08/2013  08:16:00        9.605      -42.332       -7.340       25.863       19.276       18.508      668.893      371.570      342.563        0.166        0.069       43.408       14.275        0.108      341.272       15.871      862.674
09/08/2013  08:17:00      -12.863      -24.351      -18.572       20.148       21.528       16.804      405.941      463.436      282.370        0.113        0.058       27.540        8.642        0.098      341.224       15.788      862.664
09/08/2013  08:18:00       -2.663      -47.744        4.813       23.669       16.124       17.592      560.207      259.987      309.476        0.172        0.056       47.818        9.056        0.036      341.245       15.823      862.661
09/08/2013  08:19:00      -49.239      -67.209       -5.041       17.230       17.182       13.109      296.890      295.230      171.851        0.387        0.038       83.316        9.859        0.014      341.493       16.243      862.664
09/08/2013  08:20:00      -38.297      -54.039       -4.009       13.036       10.147        9.872      169.949      102.956       97.448        0.239        0.019       66.233        8.401        0.016      341.534       16.312      862.674
09/08/2013  08:21:00       -5.874      -21.035       -3.381       13.496       13.284       10.066      182.142      176.471      101.327        0.047        0.023       21.840        8.252        0.143      341.709       16.610      862.684
09/08/2013  08:22:00        9.567      -36.014       -9.988       24.746       18.516       20.241      612.340      342.846      409.680        0.143        0.068       37.263       11.563        0.096      341.492       16.242      862.692
09/08/2013  08:23:00      -10.358      -34.657       -1.196       24.100       17.214       18.222      580.789      296.327      332.032        0.126        0.060       36.172        5.472        0.023      341.702       16.599      862.705
09/08/2013  08:24:00      -42.596      -13.993       -4.647       28.963       22.183       20.635      838.858      492.103      425.787        0.189        0.088       44.836       12.540        0.078      341.613       16.446      862.711
09/08/2013  08:25:00      -20.744       -4.777       13.775       21.724       18.565       17.736      471.948      344.653      314.578        0.089        0.057       21.287       14.873        0.488      341.959       17.035      862.722
09/08/2013  08:26:00        9.034      -38.164      -13.726       26.060       25.773       22.104      679.145      664.231      488.595        0.178        0.092       39.218       13.310        0.115      341.565       16.367      862.732
09/08/2013  08:27:00       13.091      -38.687       -6.181       35.514       28.398       29.234     1261.257      806.469      854.599        0.231        0.146       40.842        7.772        0.036      341.564       16.363      862.740
09/08/2013  08:28:00       -9.684       -1.307       16.603       16.551       17.497       14.660      273.945      306.144      214.930        0.058        0.040        9.772        7.781        0.634      342.351       17.699      862.756
09/08/2013  08:29:00      -10.444       -1.836       31.172       14.948       23.522       17.284      223.437      553.288      298.727        0.108        0.054       10.605        7.072        0.445      342.434       17.840      862.759
09/08/2013  08:30:00        3.343        9.338       52.314       34.370       45.204       29.242     1181.330     2043.367      855.105        0.346        0.204        9.918       31.707       10.220      342.574       18.079      862.765
09/08/2013  08:31:00       -2.671       17.953       45.694       18.639       26.357       17.804      347.415      694.708      316.998        0.189        0.068       18.150       12.221        0.453      342.746       18.373      862.770
09/08/2013  08:32:00      -19.136        5.164       13.437       14.756       25.349       23.185      217.746      642.575      537.524        0.099        0.070       19.821       14.582        0.541      342.499       17.952      862.767
09/08/2013  08:33:00      -39.369       26.316        6.841       24.320       22.800       21.120      591.448      519.860      446.042        0.192        0.078       47.355       14.160        0.089      342.230       17.495      862.767
09/08/2013  08:34:00      -34.016       12.019        8.264       27.799       31.411       30.376      772.763      986.621      922.696        0.203        0.134       36.077       25.997        0.519      342.270       17.564      862.767
09/08/2013  08:35:00      -21.595        8.700       24.869       18.278       18.460       22.826      334.083      340.776      521.022        0.118        0.060       23.282       16.686        0.514      342.608       18.137      862.769
09/08/2013  08:36:00      -14.055       17.040       49.117       18.782       43.331       25.315      352.762     1877.563      640.831        0.289        0.144       22.089       26.829        1.475      342.498       17.949      862.758
09/08/2013  08:37:00       26.432       23.642       35.734       47.056       27.549       33.389     2214.314      758.946     1114.820        0.331        0.204       35.463       23.636        0.444      342.375       17.742      862.757
09/08/2013  08:38:00       -1.010       20.362       43.029       21.139       36.092       24.997      446.845     1302.660      624.841        0.232        0.119       20.387       20.471        1.008      342.661       18.226      862.750
09/08/2013  08:39:00       22.360      -62.371       -1.011       35.140       25.369       26.975     1234.846      643.562      727.668        0.350        0.130       66.258       17.111        0.067      342.369       17.730      862.755
09/08/2013  08:40:00       17.012      -50.010       11.288       35.997       48.183       30.170     1295.772     2321.615      910.243        0.372        0.226       52.824       21.847        0.171      342.410       17.801      862.747
09/08/2013  08:41:00        9.744      -35.110        8.011       29.800       32.143       38.423      888.067     1033.199     1476.292        0.239        0.170       36.437       24.552        0.454      341.881       16.902      862.736
09/08/2013  08:42:00        9.767        7.962       15.576       30.463       30.874       27.687      928.008      953.224      766.579        0.152        0.132       12.601       12.265        0.947      342.309       17.631      862.734
09/08/2013  08:43:00        1.135      -25.562       10.444       17.135       33.411       21.797      293.623     1116.299      475.125        0.132        0.094       25.588       15.209        0.353      342.336       17.675      862.727
09/08/2013  08:44:00       12.565       11.795       12.046       21.839       26.611       17.852      476.922      708.123      318.708        0.097        0.075       17.234        7.025        0.166      342.625       18.166      862.731
09/08/2013  08:45:00       21.048      -18.503        0.054       40.423       16.554       20.883     1634.014      274.033      436.109        0.156        0.117       28.024       19.464        0.482      342.246       17.523      862.728
09/08/2013  08:46:00        0.120      -33.491      -14.071       31.289       24.735       26.578      978.980      611.796      706.366        0.181        0.115       33.491       12.947        0.149      342.116       17.300      862.726
09/08/2013  08:47:00      -29.171      -13.978       -8.655       11.461       12.765        8.925      131.363      162.953       79.663        0.075        0.019       32.347        5.038        0.024      342.165       17.383      862.728
09/08/2013  08:48:00      -17.596      -36.292       -1.909       17.665       22.942       10.352      312.046      526.341      107.160        0.129        0.047       40.333       10.569        0.069      342.327       17.660      862.727
09/08/2013  08:49:00      -37.525       -2.296        0.801       21.562       11.337       11.530      464.935      128.538      132.952        0.107        0.036       37.595       12.679        0.114      342.561       18.057      862.720
09/08/2013  08:50:00       -5.948       17.281       30.367       19.289       18.832       25.680      372.081      354.660      659.463        0.132        0.069       18.276       15.615        0.730      343.221       19.181      862.718
09/08/2013  08:51:00       26.616       -2.611       18.814       41.023       37.296       29.129     1682.854     1390.991      848.486        0.249        0.196       26.744       31.093        1.352      342.501       17.956      862.709
09/08/2013  08:52:00       13.470        6.117       27.398       30.649       27.934       24.661      939.331      780.312      608.157        0.165        0.116       14.794       16.571        1.255      342.820       18.498      862.701
09/08/2013  08:53:00        5.647        6.037       20.631       25.531       15.764       17.691      651.809      248.498      312.958        0.085        0.061        8.266        9.783        1.400      343.138       19.040      862.699
09/08/2013  08:54:00       21.565       -1.575        9.314       24.024       11.826       22.542      577.133      139.857      508.161        0.089        0.061       21.622       15.391        0.507      342.857       18.561      862.698
09/08/2013  08:55:00       13.577        1.083       23.538       15.164       10.026       15.007      229.953      100.525      225.210        0.065        0.028       13.621       10.560        0.601      343.260       19.246      862.690
09/08/2013  08:56:00       41.371      -14.301      -14.835       31.020       34.524       19.321      962.241     1191.934      373.320        0.233        0.126       43.773       14.678        0.112      342.214       17.466      862.684
09/08/2013  08:57:00       39.824       -1.764       13.420       28.284       32.718       29.364      799.969     1070.448      862.260        0.225        0.137       39.863        7.396        0.034      342.413       17.804      862.685
09/08/2013  08:58:00       10.794       14.443       37.671       29.964       37.124       15.998      897.834     1378.161      255.939        0.214        0.127       18.030       12.840        0.507      343.002       18.808      862.679
09/08/2013  08:59:00       40.821      -16.486       29.958       31.875       29.271       27.276     1016.004      856.806      743.998        0.273        0.131       44.025       15.035        0.117      342.669       18.240      862.682
09/08/2013  09:00:00       48.885      -39.347       -1.547       39.118       24.131       32.728     1530.252      582.295     1071.097        0.356        0.159       62.753       21.541        0.118      342.127       17.318      862.673
09/08/2013  09:01:00       55.285        8.568       22.322       33.796       34.141       35.594     1142.194     1165.613     1266.953        0.360        0.179       55.945       23.980        0.184      342.793       18.451      862.675
09/08/2013  09:02:00       60.217       37.445       -2.412       28.556       28.107       23.195      815.437      790.019      538.031        0.359        0.107       70.910       16.057        0.051      342.554       18.046      862.673
09/08/2013  09:03:00       74.342       46.499       16.116       40.810       24.968       25.389     1665.485      623.379      644.617        0.544        0.147       87.686       11.168        0.016      342.732       18.347      862.669
09/08/2013  09:04:00       55.413       53.247       14.098       47.219       38.208       33.509     2229.593     1459.855     1122.851        0.546        0.241       76.850       30.065        0.153      343.097       18.971      862.669
09/08/2013  09:05:00       52.474       35.082       17.340       27.402       18.765       25.705      750.843      352.134      660.755        0.302        0.088       63.121       15.432        0.060      343.126       19.018      862.669
09/08/2013  09:06:00       20.411       11.048       31.395       29.176       40.461       25.437      851.256     1637.133      647.028        0.233        0.157       23.209       21.353        0.846      343.103       18.979      862.670
09/08/2013  09:07:00        9.662       -2.930       22.226       22.255       45.743       26.888      495.299     2092.420      722.986        0.195        0.166       10.096       31.403        9.675      342.690       18.278      862.680
09/08/2013  09:08:00       31.543        5.148       29.224       31.948       44.829       28.706     1020.699     2009.600      824.035        0.286        0.193       31.960       23.610        0.546      342.893       18.623      862.674
09/08/2013  09:09:00       74.350       57.754       42.292       36.381       38.325       27.657     1323.541     1468.785      764.902        0.710        0.178       94.146       14.998        0.025      342.836       18.525      862.657
09/08/2013  09:10:00       31.336       34.982       46.313       48.678       44.109       30.516     2369.571     1945.581      931.201        0.480        0.262       46.965       21.302        0.206      343.061       18.909      862.653
09/08/2013  09:11:00       58.371       32.751       18.819       36.191       41.001       29.803     1309.805     1681.093      888.241        0.436        0.194       66.931       13.924        0.043      342.892       18.619      862.652
09/08/2013  09:12:00       22.366      -42.575        2.404       28.725       29.252       24.709      825.104      855.685      610.542        0.230        0.115       48.092       15.413        0.103      342.620       18.158      862.643
09/08/2013  09:13:00       27.157       36.122       52.944       29.785       30.577       25.838      887.148      934.948      667.627        0.367        0.124       45.192       18.962        0.176      343.377       19.446      862.644
09/08/2013  09:14:00       30.890       30.639        9.166       20.129       19.392       19.925      405.176      376.048      397.004        0.158        0.059       43.508       13.412        0.095      343.023       18.842      862.650
09/08/2013  09:15:00      -32.839       33.233        6.991       25.378       37.935       18.705      644.049     1439.062      349.888        0.233        0.122       46.720       14.289        0.094      343.067       18.919      862.647
09/08/2013  09:16:00      -22.767       12.525       15.051       30.236       15.262       17.951      914.242      232.916      322.246        0.119        0.073       25.985       17.312        0.444      343.361       19.419      862.647
09/08/2013  09:17:00       -9.339       -8.625       23.566       14.319       27.603       20.555      205.039      761.951      422.514        0.105        0.069       12.713       17.887        1.980      343.561       19.760      862.641
09/08/2013  09:18:00        8.440      -44.845       11.424       29.305       35.116       30.623      858.776     1233.131      937.773        0.262        0.151       45.632       15.999        0.123      342.907       18.645      862.637
09/08/2013  09:19:00       32.013       -5.319       11.014       31.590       47.580       44.198      997.950     2263.814     1953.455        0.319        0.261       32.452       35.470        1.195      343.076       18.934      862.629
09/08/2013  09:20:00       19.278      -13.925       20.768       33.188       33.460       30.391     1101.413     1119.553      923.629        0.207        0.157       23.781       25.515        1.151      343.557       19.753      862.624
09/08/2013  09:21:00        4.625      -58.413       -3.541       35.168       33.361       32.481     1236.795     1112.947     1055.039        0.342        0.170       58.596       16.373        0.078      342.597       18.119      862.616
09/08/2013  09:22:00       68.973      -36.077       -1.722       38.304       73.529       36.759     1467.178     5406.563     1351.227        0.714        0.411       77.839       40.011        0.264      342.702       18.296      862.615
09/08/2013  09:23:00      110.803       84.056       41.762       33.308       20.801       23.565     1109.401      432.700      555.320        1.159        0.105      139.078       13.952        0.010      343.059       18.903      862.610
09/08/2013  09:24:00       95.339       82.668       35.982       36.455       27.481       34.716     1328.942      755.180     1205.227        1.025        0.164      126.188        8.680        0.005      343.153       19.064      862.610
09/08/2013  09:25:00       97.088       68.472       22.959       33.385       41.821       30.421     1114.587     1748.965      925.450        0.921        0.189      118.805       14.161        0.014      343.316       19.344      862.607
09/08/2013  09:26:00      102.103       63.140       16.725       33.563       38.648       36.041     1126.470     1493.648     1298.960        0.930        0.196      120.049       22.358        0.035      343.524       19.696      862.601
09/08/2013  09:27:00      143.043       78.018       26.133       38.961       30.250       28.617     1517.989      915.068      818.956        1.524        0.163      162.936       18.899        0.013      343.194       19.133      862.595
09/08/2013  09:28:00       86.360       53.151       10.761       31.184       23.930       28.496      972.462      572.657      812.045        0.638        0.118      101.405       11.699        0.013      343.280       19.281      862.602
09/08/2013  09:29:00       90.169       58.835        1.833       32.124       29.777       26.509     1031.978      886.692      702.749        0.711        0.131      107.667       10.683        0.010      343.362       19.419      862.600
09/08/2013  09:30:00       69.803       50.605       12.020       44.164       30.469       28.918     1950.426      928.358      836.229        0.565        0.186       86.217       25.417        0.087      343.661       19.931      862.593
09/08/2013  09:31:00       75.965       36.637       13.374       41.145       32.164       27.571     1692.948     1034.542      760.170        0.539        0.174       84.339       22.376        0.070      343.325       19.358      862.584
09/08/2013  09:32:00       23.843       31.429       16.266       34.184       26.262       30.187     1168.542      689.712      911.276        0.229        0.138       39.449       19.774        0.251      343.814       20.192      862.582
09/08/2013  09:33:00       91.284       50.283       14.428       60.281       35.798       29.489     3633.849     1281.518      869.602        0.843        0.289      104.217       22.127        0.045      343.829       20.219      862.571
09/08/2013  09:34:00      137.385      102.536       19.774       39.604       29.231       28.946     1568.470      854.444      837.876        1.652        0.163      171.430       26.281        0.024      343.248       19.226      862.562
09/08/2013  09:35:00       84.673       63.502       27.985       49.064       40.760       30.336     2407.271     1661.357      920.267        0.849        0.249      105.839       30.966        0.086      343.612       19.846      862.556
09/08/2013  09:36:00       25.350       -0.835       30.727       45.522       45.491       20.108     2072.265     2069.407      404.317        0.307        0.227       25.364       16.931        0.446      343.917       20.367      862.550
09/08/2013  09:37:00       16.748       28.966       45.523       39.512       40.423       23.172     1561.191     1634.036      536.953        0.346        0.187       33.459       29.493        0.777      344.244       20.925      862.544
09/08/2013  09:38:00       52.166       65.554       47.317       40.197       35.730       33.005     1615.777     1276.629     1089.325        0.662        0.199       83.777       12.216        0.021      343.641       19.896      862.536
09/08/2013  09:39:00       85.387      112.069       91.248       44.586       48.592       28.723     1987.944     2361.165      825.023        1.667        0.259      140.892        9.204        0.004      343.489       19.636      862.527
09/08/2013  09:40:00       44.581       57.333       30.268       52.277       42.638       28.950     2732.863     1818.006      838.075        0.579        0.269       72.626       13.376        0.034      343.663       19.934      862.522
09/08/2013  09:41:00       84.941       50.716       11.364       60.791       33.713       31.740     3695.556     1136.544     1007.437        0.788        0.292       98.930       12.421        0.016      343.901       20.340      862.510
09/08/2013  09:42:00       27.914       24.659       17.539       29.634       28.545       25.596      878.152      814.828      655.179        0.202        0.117       37.246       12.358        0.110      344.238       20.914      862.513
09/08/2013  09:43:00       26.614       18.288       20.119       25.539       27.356       29.060      652.226      748.333      844.487        0.185        0.112       32.292       13.174        0.166      344.452       21.281      862.514
09/08/2013  09:44:00       16.176       35.061        9.931       37.598       31.357       27.982     1413.594      983.267      782.968        0.238        0.159       38.612       15.132        0.154      344.485       21.338      862.505
09/08/2013  09:45:00       48.909       59.614       -8.943       27.339       24.152       29.539      747.409      583.327      872.572        0.411        0.110       77.110       14.715        0.036      344.070       20.629      862.501
09/08/2013  09:46:00       -0.995       26.923        4.735       30.084       25.256       19.028      905.029      637.844      362.048        0.133        0.095       26.942       17.313        0.413      344.006       20.519      862.494
09/08/2013  09:47:00       44.969       28.530       19.900       31.699       38.348       28.157     1004.818     1470.573      792.815        0.325        0.163       53.256       18.761        0.124      343.964       20.447      862.488
09/08/2013  09:48:00      -11.133      -33.347        4.475       16.302       22.422       19.336      265.759      502.751      373.886        0.120        0.057       35.157        6.574        0.035      343.469       19.603      862.487
09/08/2013  09:49:00        5.542      -36.269        5.374       33.588       30.620       21.798     1128.121      937.556      475.159        0.196        0.127       36.690       14.036        0.146      343.457       19.582      862.484
09/08/2013  09:50:00       24.206      -60.127      -15.692       41.618       33.590       25.132     1732.053     1128.275      631.607        0.397        0.175       64.817        8.636        0.018      343.428       19.534      862.484
09/08/2013  09:51:00        5.006        2.232        8.523       25.082       21.951       29.427      629.126      481.837      865.968        0.104        0.099        5.481       12.349        5.076      344.254       20.943      862.483
09/08/2013  09:52:00       -5.044      -17.001        7.999       20.287       25.727       17.893      411.556      661.885      320.167        0.089        0.070       17.733        7.166        0.163      344.046       20.588      862.484
09/08/2013  09:53:00       12.698      -11.414       12.789       19.621       45.166       22.549      384.996     2039.971      508.461        0.169        0.147       17.074       18.964        1.234      344.302       21.025      862.496
09/08/2013  09:54:00        6.012      -18.864       21.401       53.347       48.425       28.440     2845.855     2344.983      808.826        0.342        0.300       19.799       29.533        2.225      344.069       20.627      862.498
09/08/2013  09:55:00        3.527        7.776       28.942       26.733       42.193       33.415      714.652     1780.263     1116.567        0.226        0.181        8.539       29.623       12.036      344.457       21.289      862.502
09/08/2013  09:56:00      -11.185      -52.111        9.541       28.415       47.191       39.932      807.420     2226.983     1594.579        0.378        0.231       53.298       12.354        0.054      344.416       21.219      862.505
09/08/2013  09:57:00       11.133       -3.200       42.185       28.679       44.873       27.598      822.473     2013.595      761.632        0.276        0.180       11.583       23.606        4.153      345.100       22.391      862.507
09/08/2013  09:58:00      -23.560        5.122       32.130       26.015       38.975       26.800      676.794     1519.085      718.252        0.226        0.146       24.110       22.037        0.835      344.563       21.471      862.503
09/08/2013  09:59:00       -9.728       27.144       40.823       29.482       29.708       26.803      869.188      882.566      718.402        0.248        0.124       28.834       26.840        0.866      344.652       21.623      862.493
09/08/2013  10:00:00       14.132       -0.186        5.161       20.176       19.060       16.843      407.059      363.287      283.701        0.064        0.053       14.133        9.509        0.453      344.229       20.901      862.471
09/08/2013  10:01:00       27.245       -8.125       15.270       32.257       36.233       30.817     1040.484     1312.823      949.688        0.217        0.165       28.431       24.634        0.751      344.281       20.988      862.463
09/08/2013  10:02:00       17.440      -58.963       10.562       30.479       53.734       28.109      928.961     2887.296      790.100        0.425        0.230       61.489       20.667        0.113      344.248       20.933      862.452
09/08/2013  10:03:00       11.465      -78.215        1.094       33.657       38.231       31.725     1132.770     1461.632     1006.444        0.492        0.180       79.051       18.687        0.056      344.324       21.063      862.447
09/08/2013  10:04:00       13.631       -3.812       23.939       21.094       21.238       25.312      444.974      451.073      640.697        0.115        0.077       14.154       11.887        0.705      344.690       21.689      862.447
09/08/2013  10:05:00       32.961       24.369       10.939       25.216       20.391       30.551      635.859      415.777      933.379        0.189        0.099       40.992       20.819        0.258      344.501       21.365      862.440
09/08/2013  10:06:00       34.531       -9.986       19.076       30.269       27.119       25.149      916.216      735.454      632.482        0.197        0.114       35.946       21.482        0.357      344.663       21.644      862.434
09/08/2013  10:07:00      -37.793       24.494      -20.099       30.718       21.121       21.433      943.588      446.090      459.381        0.214        0.092       45.036       21.445        0.227      344.391       21.177      862.422
09/08/2013  10:08:00      -10.305       12.288       27.414       22.530       30.136       22.991      507.613      908.183      528.600        0.148        0.097       16.037       16.543        1.064      345.175       22.518      862.419
09/08/2013  10:09:00       12.525      -26.308       13.292       33.044       35.087       23.289     1091.920     1231.112      542.362        0.194        0.143       29.137       16.941        0.338      344.424       21.231      862.418
09/08/2013  10:10:00        4.710        3.121       -2.831       29.548       22.107       25.265      873.087      488.703      638.333        0.102        0.100        5.650       10.759        3.626      344.546       21.443      862.409
09/08/2013  10:11:00      -27.799      -28.208       27.746       33.014       55.855       32.425     1089.929     3119.772     1051.367        0.380        0.263       39.604       16.729        0.178      344.889       22.029      862.396
09/08/2013  10:12:00       -5.527      -60.954        5.431       53.710       55.093       42.636     2884.751     3035.255     1817.835        0.576        0.387       61.204       27.005        0.195      344.914       22.072      862.382
09/08/2013  10:13:00       13.763       10.809       22.473       41.006       32.617       41.072     1681.453     1063.898     1686.888        0.262        0.222       17.500       21.985        1.578      345.213       22.584      862.379
09/08/2013  10:14:00       -0.575       31.043       47.516       30.392       29.938       24.777      923.665      896.285      613.900        0.283        0.122       31.048       16.456        0.281      345.162       22.497      862.373
09/08/2013  10:15:00       10.160      -14.227       35.385       45.314       75.752       40.773     2053.323     5738.412     1662.416        0.550        0.473       17.482       46.501        7.075      345.077       22.350      862.368
09/08/2013  10:16:00       16.999      -62.232       12.133       37.917       67.084       38.278     1437.686     4500.274     1465.241        0.585        0.370       64.512       47.479        0.542      345.052       22.308      862.372
09/08/2013  10:17:00       58.089      -31.916        8.378       35.895       55.105       43.645     1288.446     3036.586     1904.888        0.535        0.311       66.280       41.572        0.393      344.994       22.209      862.361
09/08/2013  10:18:00       -7.974      -34.969       21.674       22.622       38.702       24.258      511.748     1497.867      588.443        0.218        0.130       35.866       16.667        0.216      345.229       22.612      862.349
09/08/2013  10:19:00      -18.197      -43.920       19.828       37.597       54.748       36.066     1413.543     2997.297     1300.721        0.418        0.286       47.541       39.318        0.684      345.198       22.558      862.350
09/08/2013  10:20:00      -53.669      -62.380        1.913       24.114       44.343       23.590      581.480     1966.288      556.485        0.494        0.155       82.290       10.017        0.015      344.623       21.573      862.347
09/08/2013  10:21:00      -50.481      -70.138       -2.168       26.279       18.684       18.919      690.585      349.086      357.942        0.443        0.070       86.416       13.352        0.024      344.551       21.449      862.335
09/08/2013  10:22:00      -55.471      -47.349        0.492       41.679       25.496       17.970     1737.144      650.028      322.915        0.401        0.136       72.931       15.849        0.047      344.770       21.825      862.323
09/08/2013  10:23:00      -66.585        3.730       -2.086       15.639       16.477       14.719      244.583      271.477      216.663        0.259        0.037       66.690       11.325        0.029      344.627       21.581      862.300
09/08/2013  10:24:00      -25.322      -13.106       -8.976       16.278       12.721        6.659      264.970      161.816       44.344        0.068        0.024       28.512        2.624        0.008      344.780       21.842      862.275
09/08/2013  10:25:00       -8.698       12.246        5.125       26.682       23.503       29.352      711.948      552.382      861.538        0.119        0.106       15.020       14.462        0.927      345.215       22.587      862.258
09/08/2013  10:26:00        4.468        7.211       28.100       34.773       24.488       30.258     1209.173      599.649      915.542        0.179        0.136        8.483       11.510        1.841      345.395       22.896      862.242
09/08/2013  10:27:00       21.026       17.991       31.971       44.340       37.646       39.057     1966.066     1417.252     1525.485        0.335        0.245       27.673       32.080        1.344      345.000       22.218      862.234
09/08/2013  10:28:00       34.532       42.091       36.914       51.953       40.558       35.600     2699.076     1644.933     1267.340        0.497        0.281       54.444       29.480        0.293      345.170       22.510      862.227
09/08/2013  10:29:00       27.726       -1.340       17.239       40.467       25.622       27.973     1637.552      656.496      782.490        0.207        0.154       27.758        9.053        0.106      345.065       22.329      862.218
09/08/2013  10:30:00       13.954       -4.555       31.848       28.747       44.624       31.879      826.417     1991.325     1016.290        0.253        0.192       14.679       22.173        2.282      345.568       23.192      862.213
09/08/2013  10:31:00       -0.774      -58.249        9.137       44.820       37.158       36.973     2008.833     1380.722     1366.967        0.412        0.238       58.254       27.625        0.225      345.477       23.036      862.212
09/08/2013  10:32:00      -16.831      -40.758        1.036       48.848       46.887       24.301     2386.153     2198.383      590.532        0.356        0.259       44.097       24.961        0.320      345.379       22.868      862.205
09/08/2013  10:33:00       -1.119      -42.977        7.182       41.595       33.897       25.390     1730.120     1148.983      644.646        0.271        0.176       42.991       19.446        0.205      345.411       22.923      862.202
09/08/2013  10:34:00      -25.983      -50.557       -0.447       27.865       27.751       20.540      776.481      770.145      421.904        0.260        0.098       56.843       13.991        0.061      344.979       22.181      862.188
09/08/2013  10:35:00      -20.789       -9.646       16.660       27.290       22.642       20.193      744.764      512.656      407.770        0.123        0.083       22.917       19.694        0.739      345.747       23.499      862.174
09/08/2013  10:36:00        0.835      -25.573        5.493       24.469       23.978       22.686      598.745      574.962      514.652        0.119        0.084       25.587       19.600        0.587      345.275       22.689      862.168
09/08/2013  10:37:00       -7.558       -3.812       21.945       16.549       27.482       25.210      273.854      755.273      635.562        0.111        0.083        8.465       19.156        5.121      345.429       22.953      862.157
09/08/2013  10:38:00       22.267      -10.958       18.319       27.829       34.319       24.710      774.468     1177.784      610.566        0.176        0.128       24.818       20.720        0.697      344.979       22.181      862.146
09/08/2013  10:39:00      -41.074      -45.092       -4.005       31.121       25.976       16.616      968.528      674.748      276.103        0.283        0.096       60.995       11.140        0.033      344.947       22.128      862.140
09/08/2013  10:40:00      -54.289      -14.841        0.503       26.982       24.814       18.548      728.035      615.722      344.028        0.243        0.084       56.281       15.268        0.074      345.317       22.762      862.129
09/08/2013  10:41:00       12.850        6.083       33.080       26.797       44.695       27.541      718.061     1997.652      758.524        0.238        0.174       14.217       21.500        2.287      346.167       24.220      862.126
09/08/2013  10:42:00       62.571      -67.988        6.301       76.792       81.749       47.286     5896.982     6682.955     2235.944        1.169        0.741       92.399       57.511        0.387      345.506       23.085      862.119
09/08/2013  10:43:00       25.497      -24.158       29.307       44.942       60.152       47.842     2019.756     3618.206     2288.821        0.501        0.396       35.124       45.881        1.706      345.950       23.848      862.120
09/08/2013  10:44:00       19.771      -30.112       27.558       40.449       62.475       38.199     1636.090     3903.115     1459.189        0.453        0.350       36.022       28.834        0.641      346.103       24.110      862.124
09/08/2013  10:45:00       46.872      -24.974       42.532       52.014       80.771       47.413     2705.448     6523.931     2248.030        0.805        0.574       53.110       59.768        1.266      345.810       23.607      862.106
09/08/2013  10:46:00       16.663       14.614       20.201       32.549       34.989       41.067     1059.467     1224.231     1686.482        0.243        0.199       22.163       34.452        2.416      345.913       23.783      862.100
09/08/2013  10:47:00       40.372       -2.404       26.900       25.916       41.162       29.295      671.631     1694.307      858.212        0.279        0.161       40.443       19.656        0.236      345.749       23.503      862.094
09/08/2013  10:48:00      -34.225       18.527       14.804       36.285       26.091       24.375     1316.576      680.723      594.125        0.216        0.130       38.918       24.346        0.391      345.818       23.621      862.086
09/08/2013  10:49:00       10.095      -38.643       -3.484       27.941       44.140       29.304      780.726     1948.364      858.737        0.260        0.179       39.940       28.647        0.514      346.132       24.161      862.077
09/08/2013  10:50:00        5.612      -14.225       47.397       22.725       40.941       29.101      516.428     1676.130      846.843        0.276        0.152       15.292       16.255        1.130      346.255       24.371      862.052
09/08/2013  10:51:00       95.310       57.770       30.524       42.093       39.102       35.265     1771.792     1528.950     1243.605        0.895        0.227      111.451       16.662        0.022      345.564       23.186      862.046
09/08/2013  10:52:00      109.425       77.204        7.600       47.494       32.859       36.530     2255.674     1079.699     1334.446        1.133        0.233      133.919       15.988        0.014      345.624       23.289      862.019
09/08/2013  10:53:00       59.176       60.846       16.214       40.623       31.948       29.229     1650.235     1020.651      854.308        0.550        0.176       84.877       21.153        0.062      345.842       23.663      861.997
09/08/2013  10:54:00       59.061       34.556       12.509       23.199       25.253       26.880      538.192      637.725      722.557        0.337        0.095       68.428       15.390        0.051      345.941       23.833      861.974
09/08/2013  10:55:00      108.989       52.863        6.013       74.900       38.860       39.946     5609.974     1510.098     1595.714        1.171        0.436      121.133        7.358        0.004      345.922       23.797      861.950
09/08/2013  10:56:00      101.025       85.127        0.422       57.160       51.071       32.833     3267.255     2608.204     1078.015        1.220        0.348      132.108       19.016        0.021      345.688       23.396      861.954
09/08/2013  10:57:00       52.178       31.249       10.132       40.456       33.144       39.745     1636.713     1098.518     1579.675        0.406        0.216       60.820       16.693        0.075      345.944       23.837      861.957
09/08/2013  10:58:00      -14.999        0.321       24.077       30.116       17.441       16.818      906.945      304.191      282.830        0.115        0.075       15.002       12.708        0.717      346.455       24.715      861.956
09/08/2013  10:59:00       15.974       24.377       22.194       34.478       24.608       20.590     1188.700      605.553      423.961        0.178        0.111       29.144        8.401        0.083      346.593       24.954      861.952
09/08/2013  11:00:00       31.565       26.875       11.654       34.441       22.355       28.234     1186.151      499.766      797.137        0.217        0.124       41.457       24.168        0.340      346.281       24.418      861.947
09/08/2013  11:01:00       -5.736       10.661       30.835       21.242       30.081       26.162      451.235      904.875      684.439        0.157        0.102       12.106       16.661        1.894      346.851       25.396      861.938
09/08/2013  11:02:00       22.166       69.864       99.010       58.288       52.614       61.479     3397.511     2768.184     3779.668        1.256        0.497       73.296       56.014        0.584      346.188       24.255      861.924
09/08/2013  11:03:00       91.412       44.609       49.015       71.639       83.365       54.492     5132.135     6949.783     2969.370        1.390        0.753      101.716       45.096        0.197      346.036       23.994      861.917
09/08/2013  11:04:00       53.015       35.218       59.190       49.683       68.127       41.267     2468.396     4641.221     1702.961        0.818        0.441       63.647       37.046        0.339      346.287       24.425      861.919
09/08/2013  11:05:00       57.283       61.007       26.993       39.609       37.455       39.267     1568.878     1402.882     1541.864        0.612        0.226       83.685       17.005        0.041      346.020       23.967      861.904
09/08/2013  11:06:00       19.854       17.932       19.322       31.443       23.937       17.342      988.644      572.965      300.753        0.148        0.093       26.753       20.496        0.587      346.692       25.124      861.885
09/08/2013  11:07:00       35.644      -35.915       24.088       49.847       43.648       31.361     2484.720     1905.123      983.517        0.426        0.269       50.600       29.088        0.330      346.291       24.435      861.863
09/08/2013  11:08:00        8.415       31.303       31.712       29.336       29.081       22.686      860.596      845.695      514.675        0.214        0.111       32.415       15.562        0.230      346.874       25.437      861.839
09/08/2013  11:09:00       36.045       41.733       18.750       39.004       37.122       33.464     1521.291     1378.024     1119.836        0.371        0.201       55.145       14.638        0.070      346.509       24.808      861.813
09/08/2013  11:10:00        5.558       11.392       29.934       16.893       23.889       22.748      285.379      570.679      517.477        0.121        0.069       12.675       17.909        1.996      347.047       25.734      861.789
09/08/2013  11:11:00       27.329       30.425       11.478       21.755       31.448       22.656      473.258      988.978      513.302        0.189        0.099       40.897       20.273        0.246      346.354       24.540      861.770
09/08/2013  11:12:00       33.772        2.960        3.617       36.662       36.087       28.135     1344.090     1302.274      791.568        0.230        0.172       33.902       20.112        0.352      346.459       24.723      861.748
09/08/2013  11:13:00       15.594       59.783       79.070       37.698       47.581       32.274     1421.140     2263.953     1041.633        0.740        0.236       61.783       32.175        0.271      346.783       25.280      861.744
09/08/2013  11:14:00       38.976       31.074       72.067       56.111       91.420       50.006     3148.393     8357.599     2500.589        1.084        0.700       49.847       54.222        1.183      346.511       24.810      861.736
09/08/2013  11:15:00       50.448       45.576       73.936       51.465       53.889       48.265     2648.596     2904.073     2329.531        0.898        0.394       67.986       29.561        0.189      346.600       24.963      861.740
09/08/2013  11:16:00       45.583       48.567       11.554       57.460       53.256       34.150     3301.642     2836.160     1166.246        0.594        0.365       66.608       23.680        0.126      346.399       24.619      861.747
09/08/2013  11:17:00        9.697      -47.029        9.906       44.177       31.333       16.616     1951.618      981.731      276.088        0.281        0.160       48.019       11.133        0.054      346.370       24.568      861.735
09/08/2013  11:18:00       70.585      -26.186       29.864       47.418       44.699       39.716     2248.474     1997.995     1577.354        0.619        0.291       75.285       32.905        0.191      346.169       24.223      861.716
09/08/2013  11:19:00       32.458      -42.917        7.387       51.150       34.174       18.835     2616.352     1167.829      354.739        0.354        0.207       53.809       18.055        0.113      346.264       24.386      861.699
09/08/2013  11:20:00       -5.201       77.038        0.526       28.286       89.399       29.847      800.072     7992.114      890.860        0.782        0.484       77.214       42.700        0.306      346.739       25.203      861.692
09/08/2013  11:21:00       -0.523       87.940        7.310       30.979       94.073       33.853      959.726     8849.769     1146.033        0.937        0.548       87.941       37.600        0.183      347.019       25.686      861.691
09/08/2013  11:22:00      -44.667       13.975       -0.521       46.298       29.015       33.397     2143.492      841.884     1115.354        0.314        0.205       46.802       34.551        0.545      346.552       24.881      861.685
09/08/2013  11:23:00      -15.002      -20.989       16.505       36.805       30.567       24.465     1354.583      934.317      598.529        0.191        0.144       25.799       25.423        0.971      346.704       25.144      861.670
09/08/2013  11:24:00        8.167        1.946       21.996       25.122       20.005       17.105      631.135      400.194      292.573        0.094        0.066        8.395       14.210        2.865      347.143       25.899      861.667
09/08/2013  11:25:00       22.372        8.030       22.293       51.008       21.637       21.054     2601.819      468.153      443.281        0.229        0.176       23.770        8.736        0.135      347.324       26.212      861.661
09/08/2013  11:26:00       47.134       31.592       16.731       43.186       34.245       29.478     1865.058     1172.735      868.937        0.370        0.195       56.742       14.083        0.062      346.935       25.540      861.640
09/08/2013  11:27:00       47.361       54.894        6.553       56.022       38.878       31.912     3138.424     1511.481     1018.367        0.548        0.283       72.502       27.731        0.146      346.877       25.441      861.628
09/08/2013  11:28:00       20.411       25.750       45.103       33.928       27.826       33.578     1151.114      774.259     1127.467        0.308        0.153       32.858       13.658        0.173      347.357       26.268      861.609
09/08/2013  11:29:00       21.158       25.930       66.438       46.158       66.827       48.422     2130.602     4465.892     2344.731        0.724        0.447       33.467       52.266        2.439      347.133       25.883      861.604
09/08/2013  11:30:00       13.809       11.760       83.049       47.465       55.178       40.273     2252.954     3044.644     1621.947        0.707        0.346       18.138       33.505        3.412      347.141       25.895      861.583
09/08/2013  11:31:00       84.788       75.998       74.846       55.372       50.206       43.659     3066.067     2520.681     1906.068        1.303        0.375      113.862       21.036        0.034      346.753       25.226      861.589
09/08/2013  11:32:00      118.331       75.058       45.734       57.961       38.638       55.120     3359.424     1492.894     3038.211        1.481        0.395      140.129       41.099        0.086      346.370       24.569      861.589
09/08/2013  11:33:00       23.447        9.299       14.766       28.016       20.531       20.058      784.869      421.517      402.324        0.123        0.080       25.223       13.770        0.298      346.964       25.592      861.585
09/08/2013  11:34:00       52.724       28.553       66.371       82.432      105.550       55.824     6795.087    11140.787     3116.343        1.452        1.053       59.959       62.271        1.079      347.099       25.822      861.572
09/08/2013  11:35:00      143.488       95.264       69.539       99.854       74.818       70.681     9970.755     5597.755     4995.811        2.753        1.028      172.232       60.470        0.123      346.609       24.978      861.563
09/08/2013  11:36:00       82.243      104.255      101.409      101.795       62.392       66.909    10362.163     3892.802     4476.810        2.332        0.937      132.789       69.177        0.271      346.677       25.095      861.557
09/08/2013  11:37:00      108.206      103.351       87.392       89.868       80.157       65.412     8076.227     6425.104     4278.753        2.440        0.939      149.633       66.147        0.195      346.618       24.993      861.544
09/08/2013  11:38:00      114.710       58.358       63.791       81.908       58.255       55.485     6708.949     3393.607     3078.592        1.690        0.659      128.701       49.792        0.150      346.597       24.958      861.547
09/08/2013  11:39:00       42.162       59.073       82.022       57.725       49.873       32.251     3332.197     2487.356     1040.133        0.943        0.343       72.576       34.882        0.231      346.785       25.282      861.536
09/08/2013  11:40:00       80.900       63.720       51.077       65.600       56.970       48.455     4303.295     3245.566     2347.928        1.155        0.495      102.981       39.872        0.150      347.056       25.749      861.525
09/08/2013  11:41:00       48.057       53.133       41.950       65.129       48.046       46.598     4241.749     2308.462     2171.371        0.781        0.436       71.642       37.704        0.277      347.227       26.045      861.515
09/08/2013  11:42:00       91.647       63.665       51.659       51.836       32.401       37.851     2686.929     1049.836     1432.668        1.014        0.258      111.591       23.704        0.045      347.081       25.792      861.519
09/08/2013  11:43:00       55.695      -49.069       14.427       30.714       69.920       34.665      943.344     4888.744     1201.677        0.637        0.352       74.227       45.988        0.384      346.652       25.053      861.504
09/08/2013  11:44:00       16.937       30.081       86.491       49.566       95.109       58.429     2456.782     9045.674     3413.991        1.179        0.746       34.522       64.603        3.502      347.478       26.476      861.480
09/08/2013  11:45:00       43.359       45.811       96.003       59.069      100.093       59.961     3489.174    10018.647     3595.313        1.515        0.855       63.077       62.957        0.996      347.264       26.107      861.459
09/08/2013  11:46:00       34.582       -7.934       48.825       55.975       80.779       38.893     3133.217     6525.246     1512.704        0.740        0.559       35.480       40.683        1.315      347.222       26.036      861.443
09/08/2013  11:47:00       14.701      -22.414       25.080       37.004       47.336       28.407     1369.321     2240.680      806.950        0.288        0.221       26.805       10.331        0.149      347.550       26.600      861.420
09/08/2013  11:48:00       77.049       48.930       61.220       79.819       89.818       57.765     6371.054     8067.289     3336.799        1.492        0.889       91.273       45.395        0.247      347.287       26.146      861.396
09/08/2013  11:49:00       61.344       47.744       -1.483       49.046       28.157       19.500     2405.535      792.819      380.234        0.481        0.179       77.734       14.001        0.032      346.631       25.017      861.400
09/08/2013  11:50:00       22.063       19.092       15.343       54.802       24.886       24.729     3003.307      619.316      611.548        0.266        0.212       29.176       22.297        0.584      347.200       25.998      861.367
09/08/2013  11:51:00      104.047       71.335       27.806       66.949       32.732       31.659     4482.113     1071.353     1002.302        1.162        0.328      126.152       36.836        0.085      347.243       26.071      861.366
09/08/2013  11:52:00       60.727       71.006       31.465       67.341       46.081       33.292     4534.845     2123.426     1108.370        0.874        0.388       93.433       28.918        0.096      347.368       26.287      861.355
09/08/2013  11:53:00       47.220       31.734       33.388       40.824       31.963       44.278     1666.587     1021.626     1960.511        0.450        0.232       56.893       20.589        0.131      347.288       26.149      861.342
09/08/2013  11:54:00       38.362       40.074        9.044       27.618       27.132       29.585      762.740      736.155      875.256        0.277        0.119       55.475       20.051        0.131      347.093       25.813      861.342
09/08/2013  11:55:00       67.846       44.423       22.368       35.074       31.200       27.153     1230.207      973.409      737.268        0.501        0.147       81.096       12.820        0.025      347.071       25.774      861.320
09/08/2013  11:56:00       41.376       59.966       20.343       61.060       51.844       32.858     3728.338     2687.851     1079.668        0.661        0.375       72.855       27.651        0.144      347.353       26.262      861.307
09/08/2013  11:57:00       34.908       71.985        6.565       45.213       41.806       30.055     2044.229     1747.744      903.317        0.557        0.235       80.002       22.179        0.077      347.744       26.936      861.291
09/08/2013  11:58:00      103.358       72.766       11.009       43.151       35.839       40.117     1862.038     1284.429     1609.372        1.043        0.238      126.403       24.347        0.037      347.367       26.286      861.269
09/08/2013  11:59:00       44.048       43.443        7.315       39.424       21.254       24.083     1554.216      451.728      580.004        0.323        0.129       61.866       11.924        0.037      347.320       26.204      861.262
09/08/2013  12:00:00       22.759       31.029       24.352       33.543       41.370       26.951     1125.117     1711.469      726.332        0.282        0.178       38.481       23.278        0.366      347.877       27.166      861.252
09/08/2013  12:01:00       26.178       37.140       10.682       39.790       43.229       33.805     1583.231     1868.747     1142.810        0.339        0.230       45.439       30.928        0.463      347.755       26.955      861.240
09/08/2013  12:02:00      -37.373       99.962       11.519       33.943       75.490       33.463     1152.134     5698.723     1119.801        0.974        0.399      106.720       39.966        0.140      347.591       26.672      861.232
09/08/2013  12:03:00        2.132       55.699        8.124       33.428       57.958       29.796     1117.402     3359.156      887.818        0.427        0.268       55.740       33.574        0.363      347.978       27.340      861.221
09/08/2013  12:04:00        5.491       99.005       12.029       34.231       92.290       39.724     1171.736     8517.450     1577.977        1.062        0.563       99.157       49.347        0.248      347.828       27.080      861.212
09/08/2013  12:05:00        8.823       50.308       26.559       38.546       49.345       35.273     1485.812     2434.940     1244.158        0.424        0.258       51.076       33.574        0.432      348.016       27.404      861.206
09/08/2013  12:06:00       16.156      161.590      -11.819       45.130       58.334       45.449     2036.743     3402.835     2065.569        1.701        0.375      162.395       34.348        0.045      347.472       26.464      861.199
09/08/2013  12:07:00        8.382      168.196      -17.242       46.297       90.462       39.046     2143.381     8183.424     1524.611        2.025        0.593      168.405       40.718        0.058      347.456       26.437      861.182
09/08/2013  12:08:00      -69.444      119.828      -10.554       52.799       59.995       32.595     2787.767     3599.402     1062.432        1.337        0.372      138.496       27.105        0.038      347.495       26.505      861.173
09/08/2013  12:09:00      -35.216       62.435        6.748       43.048       34.880       44.054     1853.113     1216.603     1940.748        0.510        0.251       71.682       38.666        0.291      347.614       26.711      861.164
09/08/2013  12:10:00       78.259       -3.224       28.203       42.649       33.536       35.129     1818.978     1124.688     1234.077        0.555        0.209       78.325       18.488        0.056      347.505       26.526      861.144
09/08/2013  12:11:00       22.956       60.352       -5.020       45.709       43.475       37.961     2089.348     1890.046     1441.035        0.481        0.271       64.570       30.326        0.221      347.576       26.646      861.139
09/08/2013  12:12:00       12.699       34.470        4.169       29.154       27.931       25.357      849.983      780.144      642.989        0.182        0.114       36.735       14.533        0.157      348.006       27.389      861.134
09/08/2013  12:13:00       -6.872       27.907       21.768       28.571       29.527       28.547      816.316      871.870      814.940        0.190        0.125       28.741       13.554        0.222      348.259       27.824      861.139
09/08/2013  12:14:00      -82.732       21.572        1.294       74.946       27.787       29.553     5616.955      772.103      873.403        0.729        0.363       85.498       26.839        0.099      347.802       27.036      861.127
09/08/2013  12:15:00     -117.216       -5.730       -3.668       43.716       58.834       25.290     1911.064     3461.387      639.589        0.990        0.301      117.356       19.309        0.027      347.524       26.556      861.111
09/08/2013  12:16:00      -12.055       10.703       25.967       52.234       31.506       26.070     2728.395      992.609      679.623        0.267        0.220       16.121       22.630        1.971      348.310       27.915      861.116
09/08/2013  12:17:00       19.643       56.329       15.524       67.501       84.867       37.144     4556.392     7202.477     1379.667        0.847        0.657       59.656       39.813        0.445      347.915       27.232      861.100
09/08/2013  12:18:00      102.291       63.902       39.474       66.360       39.771       41.086     4403.679     1581.766     1688.090        1.189        0.384      120.610       37.293        0.096      347.880       27.169      861.099
09/08/2013  12:19:00        6.226      -32.509       11.801       20.701       50.221       36.346      428.520     2522.185     1321.032        0.275        0.214       33.100       38.405        1.346      347.607       26.700      861.083
09/08/2013  12:20:00      -23.475       86.853        0.456       38.474       48.951       27.788     1480.253     2396.174      772.162        0.637        0.232       89.970       23.742        0.070      347.970       27.326      861.082
09/08/2013  12:21:00       21.290       27.649       32.384       58.225       42.392       32.807     3390.104     1797.055     1076.298        0.426        0.313       34.896       20.547        0.347      348.411       28.089      861.076
09/08/2013  12:22:00      108.148       60.434        9.314       48.966       33.618       35.216     2397.711     1130.156     1240.139        1.010        0.238      123.888       24.921        0.040      347.692       26.846      861.073
09/08/2013  12:23:00      111.466       57.758       16.322       39.675       44.167       34.876     1574.073     1950.706     1216.348        1.038        0.237      125.541       22.409        0.032      347.721       26.895      861.056
09/08/2013  12:24:00       66.175       59.615       45.829       92.640       57.713       39.339     8582.085     3330.835     1547.593        1.174        0.673       89.068       32.707        0.135      348.121       27.587      861.045
09/08/2013  12:25:00      159.236      110.543       18.387       57.993       50.519       47.617     3363.176     2552.197     2267.393        2.305        0.409      193.845       18.822        0.009      347.619       26.717      861.039
09/08/2013  12:26:00       90.868      102.387       24.433       40.688       34.757       47.539     1655.500     1208.022     2259.951        1.223        0.256      136.895       25.839        0.036      347.543       26.589      861.026
09/08/2013  12:27:00       55.332       57.776       21.753       58.313       46.511       44.323     3400.390     2163.259     1964.506        0.720        0.376       79.998       28.374        0.126      347.855       27.128      861.020
09/08/2013  12:28:00       44.383       49.690       35.494       33.387       24.625       40.612     1114.724      606.397     1649.315        0.453        0.169       66.625       22.622        0.115      347.648       26.770      860.996
09/08/2013  12:29:00        1.388       82.771      -21.213       34.440       26.192       22.299     1186.117      686.045      497.250        0.484        0.118       82.783        9.177        0.012      347.620       26.720      860.985
09/08/2013  12:30:00      -29.689        6.519       11.352       20.219       17.978       19.030      408.816      323.225      362.150        0.107        0.055       30.396       16.179        0.283      348.410       28.085      860.954
09/08/2013  12:31:00        8.315       29.140       34.832       27.797       31.048       22.023      772.674      963.977      484.991        0.218        0.111       30.303       17.044        0.316      348.310       27.914      860.939
09/08/2013  12:32:00       25.150      -20.304       23.657       24.794       38.411       21.130      614.756     1475.416      446.478        0.207        0.127       32.324       20.095        0.386      347.900       27.206      860.926
09/08/2013  12:33:00      -32.403        7.701        8.456       22.729       21.298       19.261      516.610      453.603      370.972        0.126        0.067       33.305       13.028        0.153      348.337       27.958      860.922
09/08/2013  12:34:00        9.699       11.133       24.414       22.505       24.107       30.705      506.476      581.132      942.808        0.142        0.102       14.765       17.469        1.400      348.634       28.473      860.910
09/08/2013  12:35:00       19.135       60.838        2.753       29.523       55.932       28.196      871.597     3128.333      795.041        0.443        0.240       63.776       30.340        0.226      348.402       28.074      860.901
09/08/2013  12:36:00       16.086      145.772       -9.471       37.191       79.795       43.908     1383.191     6367.189     1927.882        1.564        0.484      146.657       48.773        0.111      348.121       27.585      860.890
09/08/2013  12:37:00      -51.398      110.936      -11.332       33.558       52.064       30.613     1126.160     2710.670      937.152        0.992        0.239      122.264       25.975        0.045      348.057       27.477      860.887
09/08/2013  12:38:00      -35.344       54.599      -29.863       50.334       39.781       28.434     2533.484     1582.523      808.516        0.502        0.246       65.040       24.359        0.140      348.000       27.377      860.885
09/08/2013  12:39:00      -45.938       19.243       17.299       46.376       32.402       26.146     2150.737     1049.884      683.590        0.333        0.194       49.806       28.918        0.337      348.358       27.995      860.862
09/08/2013  12:40:00       31.483       26.678       -6.378       45.319       21.128       21.103     2053.816      446.379      445.340        0.234        0.147       41.266       24.858        0.363      347.968       27.321      860.855
09/08/2013  12:41:00       70.600       32.645        8.665       16.490       24.778       26.660      271.907      613.966      710.736        0.386        0.080       77.782       10.345        0.018      347.792       27.019      860.832
09/08/2013  12:42:00       -3.489       18.726       33.455       35.323       22.980       20.140     1247.749      528.084      405.637        0.183        0.109       19.048       19.415        1.039      348.295       27.887      860.817
09/08/2013  12:43:00      -30.485      -29.472       -2.109       23.793       23.533       18.898      566.111      553.821      357.128        0.164        0.074       42.402        7.795        0.034      348.244       27.797      860.802
09/08/2013  12:44:00       -6.660      -20.278       19.131       26.410       36.848       25.582      697.466     1357.800      654.421        0.177        0.135       21.343       22.247        1.086      348.273       27.848      860.781
09/08/2013  12:45:00       18.959       12.243       31.723       48.932       32.614       27.539     2394.329     1063.703      758.381        0.287        0.211       22.569       28.574        1.603      348.109       27.566      860.769
09/08/2013  12:46:00       15.752       -6.094       37.032       34.187       44.817       33.971     1168.722     2008.577     1154.052        0.299        0.217       16.890       21.920        1.684      348.662       28.523      860.748
09/08/2013  12:47:00       70.561       46.961       22.149       55.081       48.849       37.801     3033.862     2386.186     1428.920        0.726        0.342       84.760       31.035        0.134      348.281       27.862      860.751
09/08/2013  12:48:00      125.765       75.062       20.832       46.565       48.685       36.102     2168.280     2370.252     1303.356        1.386        0.292      146.462       17.586        0.014      348.015       27.403      860.740
09/08/2013  12:49:00       77.158       46.532       24.500       54.072       33.501       34.372     2923.795     1122.331     1181.416        0.697        0.261       90.103       23.154        0.066      348.186       27.700      860.730
09/08/2013  12:50:00       18.156       33.447       31.758       32.546       39.742       25.550     1059.236     1579.393      652.803        0.287        0.165       38.057       13.998        0.135      348.631       28.469      860.725
09/08/2013  12:51:00       96.174       35.335        6.046       56.590       39.403       32.503     3202.395     1552.571     1056.432        0.817        0.291      102.460       24.024        0.055      348.515       28.266      860.720
09/08/2013  12:52:00       32.191      -27.867       -7.765       28.552       37.872       23.199      815.206     1434.276      538.205        0.233        0.139       42.577        6.786        0.025      348.542       28.314      860.704
09/08/2013  12:53:00      -57.845      -66.820        1.223       68.631       73.671       38.044     4710.150     5427.447     1447.323        0.970        0.579       88.380       40.884        0.214      348.170       27.671      860.668
09/08/2013  12:54:00      -36.704      -89.151       -3.103       38.221       65.620       40.635     1460.829     4306.007     1651.228        0.836        0.371       96.411       37.487        0.151      348.788       28.740      860.668
09/08/2013  12:55:00      105.021     -176.164       -6.326       60.354       84.778       46.832     3642.608     7187.319     2193.202        2.756        0.651      205.093       57.579        0.079      348.110       27.565      860.672
09/08/2013  12:56:00       -8.389      -51.043       16.520       47.345       70.296       43.908     2241.531     4941.594     1927.882        0.603        0.456       51.727       32.551        0.396      348.502       28.245      860.661
09/08/2013  12:57:00      -87.184      -95.767        9.621      104.570       76.073       60.208    10934.968     5787.123     3624.954        1.860        1.017      129.508       68.388        0.279      348.343       27.968      860.641
09/08/2013  12:58:00     -120.312     -152.103      -11.967       57.456       65.155       38.860     3301.247     4245.110     1510.088        2.340        0.453      193.934       36.956        0.036      348.018       27.405      860.641
09/08/2013  12:59:00      -38.370     -117.433        0.269       61.033      122.338       44.266     3724.985    14966.476     1959.516        1.795        1.033      123.543       59.950        0.235      348.412       28.089      860.628
09/08/2013  13:00:00        6.892     -106.850       -6.453       51.929      105.560       40.278     2696.622    11142.890     1622.323        1.348        0.773      107.072       49.279        0.212      348.146       27.627      860.616
09/08/2013  13:01:00      -28.373      -69.375      -10.612       40.808       62.550       26.855     1665.286     3912.493      721.190        0.601        0.315       74.953       24.629        0.108      348.457       28.166      860.579
09/08/2013  13:02:00      -27.519      -62.885        0.887       52.959       54.592       36.535     2804.632     2980.311     1334.826        0.591        0.356       68.643       33.416        0.237      348.820       28.796      860.577
09/08/2013  13:03:00     -118.457      -28.626      -21.823       67.794       56.519       26.727     4596.034     3194.395      714.319        1.191        0.425      121.867       19.730        0.026      348.163       27.657      860.590
09/08/2013  13:04:00       43.543      -33.786        0.042       66.619       52.790       30.356     4438.103     2786.808      921.461        0.559        0.407       55.113       35.268        0.409      348.023       27.417      860.574
09/08/2013  13:05:00       56.266      -17.021       38.535       63.198       61.280       37.529     3993.963     3755.206     1408.400        0.705        0.458       58.784       38.225        0.423      348.485       28.215      860.570
09/08/2013  13:06:00       65.612      -50.316       22.657       57.164      100.739       55.897     3267.778    10148.323     3124.446        1.194        0.827       82.684       73.223        0.784      348.519       28.275      860.574
09/08/2013  13:07:00       55.344      -20.891       43.041       84.735      109.649       67.046     7179.994    12022.929     4495.177        1.452        1.185       59.156       82.448        1.943      348.787       28.736      860.554
09/08/2013  13:08:00       12.522       22.687       47.848       42.156      100.147       49.004     1777.131    10029.322     2401.383        0.858        0.710       25.914       55.209        4.539      348.691       28.571      860.555
09/08/2013  13:09:00       23.974      -25.362       29.513       38.953       97.863       48.238     1517.353     9577.093     2326.857        0.775        0.671       34.899       56.677        2.637      348.583       28.384      860.531
09/08/2013  13:10:00       -2.214       48.984       88.648       40.232       55.884       46.862     1618.585     3122.997     2196.072        0.860        0.347       49.034       41.472        0.715      348.762       28.695      860.504
09/08/2013  13:11:00       10.170       56.728      112.104       53.530       77.970       46.715     2865.431     6079.314     2182.299        1.351        0.556       57.632       41.143        0.510      348.778       28.722      860.493
09/08/2013  13:12:00       53.636      -16.474       60.850       58.648       83.490       52.918     3439.562     6970.632     2800.350        1.003        0.661       56.109       46.433        0.685      348.807       28.773      860.502
09/08/2013  13:13:00      155.560       69.980       22.789       67.264       61.569       43.250     4524.422     3790.742     1870.601        1.990        0.509      170.576       30.546        0.032      348.326       27.940      860.503
09/08/2013  13:14:00       89.858       45.851        2.801       67.198       61.852       39.391     4515.600     3825.692     1551.667        1.004        0.495      100.880       23.139        0.053      348.656       28.511      860.468
09/08/2013  13:15:00       73.476       62.267       17.508       72.119       53.347       41.335     5201.169     2845.875     1708.553        0.967        0.488       96.311       35.837        0.138      348.681       28.554      860.452
09/08/2013  13:16:00      174.220      103.138       96.969      127.706       87.902       76.850    16308.816     7726.684     5905.894        4.016        1.497      202.460       65.180        0.104      348.550       28.326      860.434
09/08/2013  13:17:00       41.218       52.043       69.071       73.348       60.625       54.408     5379.966     3675.367     2960.216        1.059        0.601       66.388       38.798        0.342      349.120       29.315      860.413
09/08/2013  13:18:00       33.000       50.268       86.115       65.015       95.046       81.746     4227.000     9033.712     6682.441        1.548        0.997       60.132       69.286        1.328      348.980       29.071      860.392
09/08/2013  13:19:00      143.458     -208.004      -30.737       96.134      126.125       74.888     9241.762    15907.466     5608.191        4.777        1.538      252.678       74.277        0.086      348.514       28.264      860.376
09/08/2013  13:20:00      165.203       -0.278       28.270       86.983      132.777       76.005     7565.978    17629.856     5776.748        2.953        1.549      165.203       76.103        0.212      348.436       28.127      860.382
09/08/2013  13:21:00      197.830      127.490       39.814       98.988       56.223       67.517     9798.615     3160.982     4558.593        3.724        0.876      235.352       35.727        0.023      348.420       28.099      860.399
09/08/2013  13:22:00      100.866      -24.218       41.036       89.001       99.466       59.005     7921.116     9893.392     3481.552        1.687        1.065      103.733       62.549        0.364      348.285       27.870      860.404
09/08/2013  13:23:00        9.396       54.632       -5.609       39.095       79.616       27.244     1528.428     6338.711      742.213        0.586        0.430       55.434       31.162        0.316      348.461       28.174      860.403
09/08/2013  13:24:00      -46.053       26.331      -11.695       53.247       36.477       25.466     2835.278     1330.606      648.529        0.388        0.241       53.049       25.344        0.228      348.584       28.386      860.389
09/08/2013  13:25:00      -94.217       54.290      -22.386       28.737       45.530       26.331      825.817     2072.985      693.300        0.796        0.180      108.739       21.738        0.040      348.496       28.235      860.353
09/08/2013  13:26:00      -79.895       28.726      -14.635       54.947       35.823       23.882     3019.119     1283.293      570.337        0.615        0.244       84.903       12.316        0.021      348.538       28.306      860.329
09/08/2013  13:27:00      -74.445       20.888       -2.415       70.280       30.902       29.551     4939.299      954.933      873.241        0.637        0.338       77.320       38.977        0.254      348.746       28.668      860.306
09/08/2013  13:28:00       -5.933       41.663       20.278       28.897       44.455       33.700      835.047     1976.241     1135.660        0.306        0.197       42.084       25.879        0.378      349.368       29.744      860.305
09/08/2013  13:29:00        7.349      115.564        3.851       56.468       84.827       46.015     3188.677     7195.663     2117.338        1.296        0.625      115.797       46.597        0.162      349.176       29.411      860.298
09/08/2013  13:30:00       26.112       69.009        0.992       35.083       76.017       38.563     1230.850     5778.613     1487.101        0.697        0.425       73.784       45.048        0.373      348.939       29.001      860.294
09/08/2013  13:31:00       65.877       34.243       21.883       64.555       62.922       43.770     4167.386     3959.184     1915.805        0.801        0.502       74.245       24.775        0.111      348.638       28.481      860.293
09/08/2013  13:32:00      163.585      131.047      101.674       98.930       78.244       82.997     9787.058     6122.142     6888.463        3.853        1.140      209.603       68.967        0.108      348.627       28.458      860.278
09/08/2013  13:33:00      115.249      150.469      115.292      110.124      107.187      104.412    12127.195    11488.962    10901.909        4.186        1.726      189.534       86.688        0.209      348.506       28.247      860.252
09/08/2013  13:34:00      170.143       86.422      114.580      104.312      104.550       83.772    10880.988    10930.634     7017.684        3.918        1.441      190.833       70.064        0.135      348.510       28.256      860.270
09/08/2013  13:35:00       94.994       63.738        9.060       51.497       35.567       38.988     2651.940     1264.997     1520.046        0.930        0.272      114.396       30.849        0.073      348.465       28.180      860.270
09/08/2013  13:36:00       20.302       61.353        1.143       83.844       51.056       48.879     7029.799     2606.681     2389.162        0.810        0.601       64.625       35.288        0.298      348.601       28.417      860.268
09/08/2013  13:37:00       46.400       59.928       -3.004       42.747       41.854       40.006     1827.341     1751.773     1600.515        0.547        0.259       75.791       29.282        0.149      348.812       28.782      860.254
09/08/2013  13:38:00     -124.650      -30.153      -35.011       47.313       43.301       15.315     2238.498     1874.996      234.553        1.101        0.217      128.246        9.499        0.005      348.528       28.288      860.233
09/08/2013  13:39:00      -78.248      -51.049       -8.190       80.372       53.691       36.857     6459.652     2882.732     1358.462        0.975        0.535       93.428       35.321        0.143      348.942       29.005      860.216
09/08/2013  13:40:00        7.530       -0.861        6.838       40.534       29.262       32.155     1642.991      856.260     1033.963        0.182        0.177        7.579       22.510        8.822      348.782       28.731      860.216
09/08/2013  13:41:00       99.340       38.872       48.447       77.619       61.738       49.253     6024.748     3811.568     2425.840        1.299        0.613      106.675       35.614        0.111      348.941       29.003      860.187
09/08/2013  13:42:00      118.598       95.751       45.361      115.045       77.477       57.999    13235.417     6002.754     3363.827        2.394        1.130      152.426       42.990        0.080      349.285       29.600      860.161
09/08/2013  13:43:00       62.048       34.459       83.001       73.651       80.291       72.306     5424.517     6446.687     5228.166        1.451        0.855       70.975       63.621        0.804      348.946       29.012      860.154
09/08/2013  13:44:00       26.370       -0.146       48.977       51.009       65.085       45.134     2601.907     4235.996     2037.040        0.598        0.444       26.370       41.656        2.495      349.122       29.317      860.139
09/08/2013  13:45:00       84.407     -119.512       20.951       79.607      105.125       65.180     6337.265    11051.275     4248.429        2.174        1.082      146.314       73.190        0.250      349.096       29.272      860.125
09/08/2013  13:46:00       82.092      -25.395       41.636       76.530       75.216       68.277     5856.828     5657.416     4661.743        1.264        0.809       85.930       61.172        0.507      348.937       28.998      860.126
09/08/2013  13:47:00       78.670       96.604      109.701       73.772       81.352       50.330     5442.367     6618.127     2533.104        2.107        0.730      124.585       44.424        0.127      348.798       28.755      860.121
09/08/2013  13:48:00      131.428       75.070       64.183       93.074       87.766       61.125     8662.822     7702.901     3736.288        2.356        1.005      151.356       51.390        0.115      348.922       28.968      860.129
09/08/2013  13:49:00       98.604       70.826       54.403       70.090       64.493       41.987     4912.542     4159.386     1762.876        1.426        0.542      121.405       39.431        0.105      349.041       29.176      860.122
09/08/2013  13:50:00       47.196       10.205       10.850       64.864       64.756       25.717     4207.319     4193.342      661.377        0.575        0.453       48.287       15.460        0.103      349.073       29.235      860.125
09/08/2013  13:51:00      -32.916      -52.827       15.315       47.080       47.206       34.975     2216.493     2228.367     1223.220        0.489        0.283       62.243       18.888        0.092      349.101       29.282      860.102
09/08/2013  13:52:00      -71.914       59.795       -4.959       50.281       72.252       37.584     2528.221     5220.338     1412.588        0.896        0.458       93.526       30.647        0.107      349.324       29.669      860.096
09/08/2013  13:53:00      -52.219      176.794      -16.791       41.113       91.873       35.681     1690.260     8440.597     1273.144        2.283        0.570      184.344       47.884        0.067      349.197       29.447      860.082
09/08/2013  13:54:00      -84.419      217.371      -21.206       74.943       84.008       50.707     5616.432     7057.416     2571.182        3.503        0.762      233.188       51.144        0.048      349.048       29.186      860.064
09/08/2013  13:55:00      -82.995      133.458      -19.691       51.522       61.090       34.805     2654.487     3731.933     1211.395        1.634        0.380      157.160       36.200        0.053      349.218       29.485      860.060
09/08/2013  13:56:00      -14.031      127.090       -2.302       56.987       69.893       35.036     3247.503     4885.010     1227.547        1.286        0.468      127.863       38.487        0.091      349.344       29.703      860.046
09/08/2013  13:57:00       -9.926      117.924        4.672       62.951      101.439       50.026     3962.869    10289.854     2502.559        1.539        0.838      118.341       60.878        0.265      349.402       29.804      860.033
09/08/2013  13:58:00      133.211      161.619       -5.748      134.374       91.429       59.613    18056.499     8359.343     3553.653        3.693        1.498      209.442       45.895        0.048      349.277       29.583      860.036
09/08/2013  13:59:00       28.527      244.135      -17.267       87.989      100.644       55.966     7742.143    10129.246     3132.145        4.085        1.050      245.796       49.702        0.041      349.206       29.462      860.029
09/08/2013  14:00:00       73.448      129.954        8.882       75.500       81.107       80.411     5700.270     6578.342     6465.885        2.055        0.937      149.274       60.076        0.162      349.357       29.724      860.023
09/08/2013  14:01:00       90.056      131.630       -6.869      103.692       91.743       83.690    10751.935     8416.697     7003.990        2.582        1.309      159.488       65.688        0.170      349.194       29.442      860.032
09/08/2013  14:02:00       64.165      171.530       -6.699       80.192      108.274       78.336     6430.819    11723.314     6136.522        2.893        1.215      183.139       72.939        0.159      349.074       29.234      860.032
09/08/2013  14:03:00        6.975      264.361      -35.372       61.270       76.348       54.832     3754.058     5828.958     3006.524        4.189        0.629      264.453       47.360        0.032      348.847       28.838      860.048
09/08/2013  14:04:00      -72.658      144.842      -27.497       30.471       77.706       34.446      928.499     6038.277     1186.538        1.758        0.408      162.045       28.230        0.030      348.922       28.970      860.047
09/08/2013  14:05:00       20.615       48.928       13.312       65.685       39.061       54.247     4314.565     1525.748     2942.791        0.589        0.439       53.093       51.149        0.928      349.062       29.215      860.019
09/08/2013  14:06:00       64.081       86.547       -3.079       64.662       55.826       46.865     4181.147     3116.563     2196.306        1.055        0.475      107.688       38.164        0.126      349.114       29.304      860.005
09/08/2013  14:07:00       75.595       70.719       -2.227       31.982       37.253       30.304     1022.863     1387.819      918.316        0.702        0.166      103.517       21.716        0.044      348.873       28.888      859.988
09/08/2013  14:08:00       37.566      -16.891        5.781       19.835       22.311       21.003      393.416      497.767      441.128        0.153        0.067       41.188       13.674        0.110      348.259       27.825      859.952
09/08/2013  14:09:00       -2.612      -23.291       -2.472       27.943       24.111       21.424      780.810      581.343      458.977        0.119        0.091       23.437       16.524        0.497      348.863       28.870      859.919
09/08/2013  14:10:00      -20.552        5.400       17.797       16.772       29.687       20.831      281.286      881.331      433.942        0.118        0.080       21.250       17.332        0.665      349.254       29.548      859.902
09/08/2013  14:11:00       34.818        4.504       11.766       39.379       40.833       34.820     1550.708     1667.363     1212.408        0.290        0.222       35.108       30.707        0.765      348.633       28.473      859.885
09/08/2013  14:12:00       42.016     -102.520       -0.641       49.887       70.990       30.592     2488.678     5039.581      935.853        1.037        0.423      110.796       34.185        0.095      348.889       28.915      859.865
09/08/2013  14:13:00       53.017      -80.658       16.750       73.711      104.067       50.875     5433.337    10829.926     2588.253        1.422        0.943       96.522       57.251        0.352      349.233       29.509      859.832
09/08/2013  14:14:00       97.858       78.053       33.601       75.168       70.188       51.741     5650.273     4926.384     2677.148        1.502        0.663      125.174       42.928        0.118      349.295       29.617      859.868
09/08/2013  14:15:00       96.990       63.523       11.884       77.644       59.195       49.782     6028.649     3504.097     2478.284        1.279        0.601      115.940       35.406        0.093      349.243       29.528      859.856
09/08/2013  14:16:00      230.367      157.660        8.594      107.354       80.353       70.982    11524.939     6456.574     5038.416        5.050        1.151      279.151       43.894        0.025      349.068       29.222      859.832
09/08/2013  14:17:00      188.200       96.652       50.096       99.521       76.354       67.036     9904.440     5829.868     4493.864        3.375        1.011      211.568       41.627        0.039      349.036       29.168      859.831
09/08/2013  14:18:00      148.078      104.718       58.954      102.777       58.272       61.098    10563.212     3395.582     3732.997        2.703        0.885      181.365       52.117        0.083      349.024       29.146      859.829
09/08/2013  14:19:00      125.672       93.465       11.438       65.223       46.047       47.307     4254.009     2120.312     2237.925        1.663        0.431      156.618       15.309        0.010      349.203       29.457      859.812
09/08/2013  14:20:00       69.203       76.812       65.243       70.108       87.167       48.344     4915.171     7598.017     2337.103        1.490        0.743      103.388       42.384        0.168      349.262       29.560      859.784
09/08/2013  14:21:00       15.468       47.320       77.579       50.220       45.602       51.275     2522.056     2079.522     2629.129        0.786        0.362       49.784       42.754        0.738      348.871       28.883      859.767
09/08/2013  14:22:00       70.714      -15.046       18.999       41.284       52.353       40.734     1704.385     2740.883     1659.290        0.584        0.305       72.297       37.308        0.266      348.508       28.257      859.745
09/08/2013  14:23:00       59.729       -6.746       46.905       53.150       77.559       57.289     2824.899     6015.324     3281.994        0.897        0.606       60.109       53.736        0.799      348.950       29.021      859.695
09/08/2013  14:24:00       67.333       20.937       75.996       77.149       72.619       56.740     5951.982     5273.503     3219.447        1.259        0.722       70.513       58.209        0.681      349.220       29.486      859.668
09/08/2013  14:25:00       10.905      -78.712        3.073       34.205       55.056       27.604     1169.989     3031.215      761.976        0.564        0.248       79.464       18.546        0.054      349.490       29.957      859.645
09/08/2013  14:26:00        1.595        1.188       24.248       31.849       57.386       29.794     1014.368     3293.151      887.675        0.289        0.260        1.989       26.321      175.191      349.630       30.198      859.643
09/08/2013  14:27:00       69.205       28.167       32.731       66.999       46.007       48.274     4488.832     2116.624     2330.400        0.779        0.447       74.718       35.490        0.226      349.122       29.318      859.639
09/08/2013  14:28:00       63.055       23.156       16.488       25.114       25.349       23.104      630.701      642.557      533.806        0.330        0.090       67.172        9.140        0.019      348.879       28.897      859.635
09/08/2013  14:29:00       56.090      -18.361        7.168       38.974       29.838       26.307     1518.959      890.279      692.078        0.332        0.155       59.019       19.725        0.112      349.015       29.133      859.633
09/08/2013  14:30:00       48.871       23.873       33.420       24.573       50.316       24.867      603.828     2531.671      618.349        0.391        0.188       54.390       25.364        0.217      348.626       28.460      859.600
09/08/2013  14:31:00       44.871        5.028       29.621       39.240       71.539       42.237     1539.766     5117.879     1783.975        0.568        0.422       45.152       49.411        1.198      348.710       28.605      859.566
09/08/2013  14:32:00       38.101      -71.929        6.014       40.628       58.369       28.919     1650.630     3406.948      836.331        0.628        0.295       81.397       25.569        0.099      349.401       29.802      859.544
09/08/2013  14:33:00        9.310       15.398       19.006       44.773       37.001       32.944     2004.596     1369.074     1085.330        0.257        0.223       17.993       26.411        2.154      349.213       29.476      859.508
09/08/2013  14:34:00       64.167        1.450       62.827      192.851       88.036       92.429    37191.658     7750.330     8543.173        3.076        2.674       64.184       36.032        0.315      349.271       29.574      859.419
09/08/2013  14:35:00     -188.257      160.764      -22.741      102.819      114.119       65.991    10571.767    13023.046     4354.809        4.487        1.397      247.560       77.310        0.098      349.695       30.310      859.421
09/08/2013  14:36:00     -291.720      103.376      -45.482       77.261      122.886       46.546     5969.294    15101.051     2166.535        6.054        1.162      309.495       38.417        0.015      349.450       29.882      859.449
09/08/2013  14:37:00     -132.634       18.481        0.157       68.796       85.062       39.956     4732.826     7235.604     1596.461        1.575        0.678      133.915       42.124        0.099      349.624       30.187      859.505
09/08/2013  14:38:00      -49.821      218.588      -12.236       68.927      116.814       48.415     4750.900    13645.495     2344.011        3.557        1.037      224.194       62.575        0.078      349.343       29.697      859.509
09/08/2013  14:39:00     -108.090      244.764      -34.986       85.518       54.933       43.864     7313.357     3017.610     1924.074        4.253        0.613      267.568       38.017        0.020      349.139       29.342      859.476
09/08/2013  14:40:00     -160.828      178.463      -32.718       67.370       74.367       45.093     4538.725     5530.387     2033.378        3.544        0.605      240.239       41.909        0.030      349.311       29.642      859.459
09/08/2013  14:41:00      -64.816      160.972       -7.053       73.461       96.848       53.913     5396.450     9379.601     2906.583        2.392        0.884      173.531       53.404        0.095      349.441       29.868      859.453
09/08/2013  14:42:00     -148.414       68.541      -23.985       64.601       51.684       40.695     4173.290     2671.287     1656.074        1.790        0.425      163.477       41.608        0.065      349.271       29.576      859.413
09/08/2013  14:43:00      -25.171      109.617       -4.014       87.833       69.844       45.441     7714.627     4878.127     2064.915        1.366        0.733      112.470       59.729        0.282      349.266       29.567      859.402
09/08/2013  14:44:00       -8.675       18.426       -8.190       33.189       33.605       25.265     1101.485     1129.270      638.340        0.167        0.143       20.366       17.819        0.766      349.472       29.926      859.388
09/08/2013  14:45:00      -14.207       -8.708       10.340       66.409       41.116       29.381     4410.212     1690.559      863.254        0.367        0.348       16.664       25.401        2.324      349.267       29.571      859.366
09/08/2013  14:46:00      -54.038       34.835       18.726       56.825       30.486       23.393     3229.096      929.383      547.214        0.459        0.235       64.293       21.364        0.110      349.187       29.431      859.348
09/08/2013  14:47:00       61.651      -25.371       15.529       39.079       22.768       25.596     1527.172      518.379      655.135        0.369        0.135       66.668       19.508        0.086      348.859       28.863      859.349
09/08/2013  14:48:00       27.862      -25.478       26.698       24.177       46.439       21.252      584.545     2156.549      451.632        0.266        0.160       37.755       21.280        0.318      349.361       29.733      859.336
09/08/2013  14:49:00       37.203      161.300       -4.496       55.969      110.595       43.286     3132.476    12231.272     1873.642        2.233        0.862      165.534       55.754        0.113      349.158       29.378      859.322
09/08/2013  14:50:00      -38.637      204.180      -23.699       66.842       84.422       38.231     4467.873     7127.124     1461.610        2.840        0.653      207.803       43.872        0.045      349.471       29.921      859.313
09/08/2013  14:51:00        0.906      104.355       -4.687       36.982       56.910       29.868     1367.645     3238.802      892.080        0.820        0.275      104.359       32.110        0.095      349.576       30.105      859.306
09/08/2013  14:52:00      -79.677      118.988      -16.826       83.219       66.831       36.474     6925.465     4466.440     1330.374        1.675        0.636      143.201       16.904        0.014      349.351       29.713      859.298
09/08/2013  14:53:00      -36.855       -8.631        5.216       43.316       30.734       25.134     1876.307      944.565      631.737        0.246        0.173       37.852       24.212        0.409      349.685       30.296      859.263
09/08/2013  14:54:00      -49.944       47.286       12.202       41.655       49.797       31.933     1735.160     2479.743     1019.734        0.506        0.262       68.778       31.552        0.210      349.953       30.760      859.247
09/08/2013  14:55:00     -143.884       71.958      -17.627      143.388       74.918       40.579    20560.008     5612.725     1646.629        2.700        1.391      160.874       51.861        0.104      349.658       30.248      859.248
09/08/2013  14:56:00      -74.927      179.650      -13.000      129.457      106.274       60.797    16759.217    11294.212     3696.218        3.490        1.587      194.649       68.038        0.122      349.384       29.771      859.252
09/08/2013  14:57:00      -10.804       37.424        0.162       64.685       61.612       57.202     4184.151     3796.015     3272.096        0.638        0.563       38.953       48.470        1.548      349.583       30.118      859.214
09/08/2013  14:58:00      -69.788       28.210       -4.749       51.435       42.620       36.835     2645.574     1816.435     1356.780        0.575        0.291       75.274       20.126        0.071      349.838       30.560      859.201
09/08/2013  14:59:00     -202.966      -20.053      -19.232       89.745       84.107       34.580     8054.116     7074.015     1195.760        2.914        0.816      203.954       30.993        0.023      349.632       30.201      859.196
09/08/2013  15:00:00     -280.813      -79.857      -23.399       81.113      100.521       45.931     6579.314    10104.569     2109.623        5.228        0.940      291.947       33.386        0.013      349.570       30.091      859.197
09/08/2013  15:01:00     -216.605       -6.222      -25.203       79.649       49.787       29.698     6343.956     2478.731      881.959        2.865        0.485      216.694       33.876        0.024      349.413       29.819      859.193
09/08/2013  15:02:00     -124.604      -21.587      -13.838       98.962       80.182       43.141     9793.493     6429.117     1861.121        1.713        0.904      126.460       40.472        0.102      349.251       29.542      859.190
09/08/2013  15:03:00      -34.652      -18.691        9.502       70.761       45.773       30.180     5007.165     2095.153      910.812        0.483        0.401       39.372       32.011        0.661      349.604       30.154      859.151
09/08/2013  15:04:00     -224.707     -180.204        1.596      109.813       93.604       55.089    12058.995     8761.705     3034.751        5.341        1.193      288.040       57.317        0.040      349.410       29.815      859.146
09/08/2013  15:05:00     -236.110     -108.266      -33.564       87.458      104.929       38.315     7648.982    11010.173     1468.073        4.436        1.006      259.749       38.456        0.022      349.117       29.306      859.198
09/08/2013  15:06:00      -57.155      -95.519      -15.649       65.248       47.297       27.928     4257.361     2237.017      779.956        0.995        0.364      111.313       16.032        0.021      349.308       29.639      859.168
09/08/2013  15:07:00      -43.523     -185.011      -26.060       75.331       92.972       33.245     5674.806     8643.879     1105.241        2.611        0.771      190.061       15.042        0.006      349.451       29.885      859.090
09/08/2013  15:08:00      -40.401     -169.456       -0.757       43.580       71.582       30.230     1899.232     5123.988      913.838        1.914        0.397      174.206       31.285        0.032      349.291       29.610      859.082
09/08/2013  15:09:00       -0.918       16.188       51.559       38.104       46.339       32.161     1451.878     2147.276     1034.334        0.378        0.232       16.214       32.662        4.058      349.773       30.447      859.082
09/08/2013  15:10:00       -4.745       40.500       66.857       24.601       37.550       28.397      605.198     1410.003      806.367        0.448        0.141       40.777       22.248        0.298      349.047       29.188      859.103
09/08/2013  15:11:00      132.000       75.302       37.883       88.458       59.756       55.048     7824.734     3570.839     3030.319        1.947        0.721      151.969       55.067        0.131      349.294       29.614      859.097
09/08/2013  15:12:00      116.611       89.375       49.940       76.577       71.544       56.945     5863.972     5118.562     3242.677        1.915        0.711      146.921       38.469        0.069      349.458       29.900      859.076
09/08/2013  15:13:00       23.391      -41.383       20.951       43.145       38.185       31.277     1861.527     1458.102      978.230        0.350        0.215       47.536        9.349        0.039      349.231       29.509      859.061
09/08/2013  15:14:00       91.449       61.864       11.212       63.624       59.207       38.992     4047.993     3505.497     1520.397        1.069        0.454      110.409       28.903        0.069      349.517       30.002      859.059
09/08/2013  15:15:00      125.193      105.026       13.038       83.626       61.355       47.401     6993.265     3764.375     2246.808        1.994        0.650      163.412       32.381        0.039      349.617       30.174      859.043
09/08/2013  15:16:00      -19.803      151.285      -16.912       51.047       70.256       40.221     2605.819     4935.895     1617.727        1.636        0.458      152.576       36.356        0.057      349.578       30.107      859.045
09/08/2013  15:17:00       63.880       87.149        2.830       51.176       45.093       34.897     2618.954     2033.390     1217.808        0.878        0.294      108.054       21.196        0.038      349.679       30.283      859.032
09/08/2013  15:18:00      -46.635      128.250      -14.012       97.494       98.510       49.073     9505.143     9704.298     2408.137        2.021        1.081      136.466       62.988        0.213      349.754       30.413      859.056
09/08/2013  15:19:00     -122.679      164.597      -23.290       74.970       93.805       48.558     5620.463     8799.370     2357.907        2.973        0.839      205.286       50.566        0.061      349.823       30.532      859.027
09/08/2013  15:20:00      -13.713      167.627       -2.736      127.702       88.558       62.500    16307.706     7842.538     3906.249        2.817        1.403      168.187       49.511        0.087      349.708       30.333      859.012
09/08/2013  15:21:00       -2.173      149.246      -10.680       41.272       79.548       39.507     1703.345     6327.847     1560.837        1.599        0.480      149.261       41.023        0.076      349.759       30.422      859.006
09/08/2013  15:22:00       38.219       83.489        1.416       78.363       55.253       41.081     6140.822     3052.882     1687.659        0.966        0.544       91.821       38.632        0.177      349.787       30.470      858.983
09/08/2013  15:23:00      -22.333      176.742      -24.668       82.983       88.481       43.182     6886.164     7828.907     1864.715        2.446        0.829      178.148       48.265        0.073      349.699       30.317      858.987
09/08/2013  15:24:00     -151.481      142.694      -27.397      115.011      117.186       49.120    13227.542    13732.501     2412.732        3.671        1.469      208.105       65.550        0.099      349.709       30.335      858.979
09/08/2013  15:25:00       -1.676       32.191       20.803       27.486       55.094       34.624      755.504     3035.368     1198.812        0.323        0.249       32.235       27.836        0.746      349.772       30.445      858.977
09/08/2013  15:26:00      -50.108      114.111       -5.346       45.066       83.538       36.379     2030.980     6978.580     1323.453        1.294        0.517      124.628       41.312        0.110      349.614       30.171      858.974
09/08/2013  15:27:00      -43.000      122.268       -5.139      104.895       89.990       49.849    11003.006     8098.162     2484.873        1.920        1.079      129.609       57.709        0.198      349.813       30.515      858.983
09/08/2013  15:28:00      -13.349      144.952      -24.313       69.860       62.520       31.908     4880.353     3908.809     1018.089        1.579        0.490      145.565       26.249        0.033      349.653       30.238      858.972
09/08/2013  15:29:00      -21.315       60.280       -8.921       23.279       32.100       22.719      541.913     1030.434      516.146        0.313        0.104       63.938       15.588        0.059      349.749       30.405      858.959
09/08/2013  15:30:00      -26.823      211.988      -19.019       56.849       98.986       45.499     3231.768     9798.234     2070.121        3.056        0.755      213.678       41.662        0.038      349.596       30.140      859.016
09/08/2013  15:31:00     -111.623      295.957      -37.367       99.487      219.671       51.304     9897.660    48255.343     2632.119        8.110        3.039      316.307       71.231        0.051      349.523       30.010      859.022
09/08/2013  15:32:00       17.877      -81.055        2.546       58.076       68.206       36.662     3372.784     4651.996     1344.103        0.813        0.468       83.003       26.036        0.098      349.570       30.096      858.895
09/08/2013  15:33:00       81.392      110.918       11.422       94.887       58.746       38.727     9003.538     3451.084     1499.786        1.650        0.698      137.577       36.834        0.072      349.466       29.914      858.922
09/08/2013  15:34:00      228.167       93.487      107.360      167.495      166.842      107.640    28054.481    27836.370    11586.307        6.989        3.374      246.577       96.031        0.152      349.382       29.765      858.797
09/08/2013  15:35:00      -65.438      208.587      -12.927      140.203      155.419       75.509    19656.888    24155.086     5701.575        4.873        2.476      218.611       84.534        0.150      349.646       30.224      858.901
09/08/2013  15:36:00      -61.526      493.352      -52.257      122.304      141.261       84.520    14958.288    19954.572     7143.679       14.598        2.103      497.173       72.992        0.022      349.543       30.044      858.924
09/08/2013  15:37:00     -119.318      340.964      -39.821      116.229      170.011       70.323    13509.207    28903.677     4945.394        8.971        2.368      361.238       72.984        0.041      349.622       30.182      858.907
09/08/2013  15:38:00      -15.199      346.422      -31.202      169.066      208.755       91.602    28583.265    43578.843     8390.992       10.087        4.028      346.755      107.658        0.096      349.666       30.258      858.882
09/08/2013  15:39:00       31.790      228.476        0.681       97.044      164.516       79.525     9417.524    27065.414     6324.300        4.800        2.140      230.677       91.586        0.158      349.685       30.292      858.871
09/08/2013  15:40:00      -33.422      223.586      -38.945       83.308      154.203       45.178     6940.179    23778.607     2041.042        4.269        1.638      226.070       58.984        0.068      349.791       30.476      858.877
09/08/2013  15:41:00      -16.641      183.646        2.292       79.735      151.798       51.880     6357.709    23042.609     2691.501        3.304        1.605      184.398       67.707        0.135      349.853       30.583      858.873
09/08/2013  15:42:00      -57.699      222.881      -38.846       81.034      119.812       44.184     6566.546    14354.835     1952.214        3.869        1.144      230.228       43.212        0.035      349.891       30.649      858.855
09/08/2013  15:43:00      -60.260      270.524      -33.048       72.675      121.249       45.531     5281.689    14701.412     2073.075        4.998        1.103      277.154       45.408        0.027      349.972       30.789      858.862
09/08/2013  15:44:00     -115.957      388.411      -46.457      113.446      197.102       69.726    12870.051    38849.331     4861.708       11.151        2.829      405.351       74.208        0.034      349.685       30.290      858.873
09/08/2013  15:45:00     -115.518      317.357      -28.931      102.583      156.803       69.961    10523.205    24587.026     4894.504        7.744        2.000      337.727       82.200        0.059      349.707       30.330      858.864
09/08/2013  15:46:00     -180.438      134.244      -16.980      133.258      166.304       57.353    17757.648    27656.880     3289.417        4.978        2.435      224.899       63.195        0.079      349.654       30.239      858.854
09/08/2013  15:47:00      -61.634      100.088      -17.611       48.306      135.815       41.653     2333.428    18445.793     1734.990        1.832        1.126      117.543       50.352        0.184      349.701       30.321      858.829
09/08/2013  15:48:00      -54.988      177.406       -1.796       51.753       86.477       49.080     2678.358     7478.327     2408.858        2.353        0.628      185.733       55.688        0.090      349.861       30.598      858.811
09/08/2013  15:49:00      -83.847      191.326      -30.074       61.717       59.186       36.180     3808.956     3503.021     1309.019        2.658        0.431      208.892       17.840        0.007      349.839       30.557      858.801
09/08/2013  15:50:00      -22.716      131.278      -19.520       64.824       72.866       39.730     4202.213     5309.405     1578.455        1.461        0.555      133.229       36.160        0.074      350.022       30.878      858.780
09/08/2013  15:51:00      -20.001      266.690      -26.122       60.191       83.455       47.372     3622.977     6964.729     2244.095        4.252        0.642      267.439       39.008        0.021      349.992       30.824      858.780
09/08/2013  15:52:00      -89.421      218.854      -38.716       85.244       95.116       53.732     7266.517     9047.141     2887.091        3.829        0.960      236.417       44.563        0.036      349.973       30.792      858.775
09/08/2013  15:53:00        3.455      446.576      -47.434      104.747      165.350       81.153    10971.934    27340.668     6585.859       12.329        2.245      446.589       89.627        0.040      349.759       30.419      858.772
09/08/2013  15:54:00      -66.643      451.965      -48.394       88.888      140.155       57.746     7901.114    19643.381     3334.642       12.096        1.544      456.852       66.239        0.021      349.703       30.320      858.761
09/08/2013  15:55:00       -9.844      312.941      -28.686      100.758      152.176       79.786    10152.131    23157.674     6365.814        6.926        1.984      313.096       78.045        0.062      349.780       30.455      858.760
09/08/2013  15:56:00     -147.452      255.983      -35.132      106.822      142.066       59.127    11410.975    20182.764     3496.048        6.179        1.754      295.414       60.770        0.042      349.914       30.689      858.741
09/08/2013  15:57:00      -42.226      331.908      -54.213      123.699      159.713       61.415    15301.390    25508.371     3771.757        7.972        2.229      334.583       69.906        0.044      349.964       30.776      858.715
09/08/2013  15:58:00     -159.095      263.013      -30.023       97.525      149.952       68.862     9511.123    22485.523     4742.010        6.606        1.837      307.387       65.175        0.045      350.049       30.923      858.759
09/08/2013  15:59:00      -60.010      371.461      -49.850      107.566      201.371       68.612    11570.369    40550.346     4707.608       10.044        2.841      376.277       77.442        0.042      349.859       30.593      858.792
09/08/2013  16:00:00      -79.954      422.386      -53.026      108.223      141.101       69.035    11712.232    19909.516     4765.816       11.199        1.819      429.887       70.696        0.027      349.594       30.131      858.807
09/08/2013  16:01:00      -17.789      422.595      -45.998      103.982      132.450       68.388    10812.186    17543.003     4676.890       10.702        1.652      422.969       67.955        0.026      349.515       29.996      858.808
09/08/2013  16:02:00      -78.233      413.962      -50.880       91.527      123.333       45.105     8377.194    15211.037     2034.448       10.284        1.281      421.289       43.234        0.011      349.512       29.990      858.813
09/08/2013  16:03:00     -215.898      174.250      -39.288       75.771      103.543       55.189     5741.291    10721.125     3045.842        4.901        0.975      277.443       48.848        0.031      349.753       30.408      858.796
09/08/2013  16:04:00      -46.204      130.724       -1.557      100.906       75.253       48.393    10182.034     5663.073     2341.888        1.870        0.909      138.649       53.062        0.146      349.759       30.421      858.759
09/08/2013  16:05:00     -208.631      166.964      -11.118      105.460       98.369       62.189    11121.845     9676.376     3867.481        4.809        1.233      267.215       56.138        0.044      349.710       30.335      858.748
09/08/2013  16:06:00      -98.512      206.414      -19.708       72.943       90.541       47.303     5320.716     8197.653     2237.603        3.422        0.788      228.717       51.877        0.051      349.614       30.170      858.724
09/08/2013  16:07:00      -43.667      155.353       -1.400       73.480       85.494       57.947     5399.351     7309.204     3357.819        2.105        0.803      161.374       49.858        0.095      349.781       30.459      858.696
09/08/2013  16:08:00      -48.480      259.257      -24.469       80.947      125.394       62.348     6552.485    15723.620     3887.308        4.816        1.308      263.751       70.956        0.072      349.765       30.431      858.691
09/08/2013  16:09:00      -38.143      359.890      -35.217      137.614      122.428       86.089    18937.535    14988.674     7411.233        8.677        2.067      361.906       82.208        0.052      349.821       30.526      858.641
09/08/2013  16:10:00      -43.128      534.017      -74.037      111.160      175.152       67.997    12356.480    30678.301     4623.541       17.008        2.383      535.755       71.822        0.018      349.585       30.117      858.685
09/08/2013  16:11:00        0.255      293.759      -38.690       45.739       88.939       30.440     2092.047     7910.167      926.584        4.936        0.546      293.759       37.330        0.016      349.474       29.925      858.660
09/08/2013  16:12:00       33.738      337.739      -39.304       77.601      155.915       71.000     6021.868    24309.594     5040.959        7.605        1.769      339.420       87.433        0.066      349.655       30.240      858.637
09/08/2013  16:13:00       13.944      174.786       -4.312       90.930      130.123       71.501     8268.220    16932.118     5112.423        3.053        1.516      175.341       80.799        0.212      349.644       30.221      858.631
09/08/2013  16:14:00      -44.523      181.261      -11.600       53.626       75.961       39.483     2875.801     5770.107     1558.915        2.259        0.510      186.649       39.607        0.045      349.504       29.977      858.607
09/08/2013  16:15:00      -40.943      237.165      -25.419       58.189      141.821       47.583     3385.910    20113.325     2264.185        4.216        1.288      240.673       63.509        0.070      349.596       30.136      858.589
09/08/2013  16:16:00       -1.941      275.503      -31.685       51.532      104.217       38.606     2655.550    10861.232     1490.391        4.596        0.750      275.510       50.117        0.033      349.382       29.767      858.585
09/08/2013  16:17:00       84.857      117.388       20.744      111.342      101.657       65.869    12397.066    10334.129     4338.666        2.424        1.353      144.847       61.854        0.182      349.656       30.241      858.559
09/08/2013  16:18:00      -74.437      311.671      -30.667       81.989      147.222       66.734     6722.200    21674.432     4453.383        6.823        1.643      320.436       78.558        0.060      349.737       30.380      858.595
09/08/2013  16:19:00     -115.223      266.598      -28.838      100.566      134.435       63.114    10113.569    18072.816     3983.438        5.867        1.608      290.432       54.509        0.035      349.808       30.504      858.589
09/08/2013  16:20:00     -208.175      280.885      -49.633      149.912      129.164       65.582    22473.507    16683.257     4301.016        8.407        2.173      349.619       54.962        0.025      349.967       30.781      858.593
09/08/2013  16:21:00      -93.901      339.226      -34.164      104.744      139.619       70.512    10971.253    19493.431     4972.011        8.024        1.772      351.983       60.963        0.030      349.804       30.497      858.602
09/08/2013  16:22:00     -177.915      240.780      -39.847      117.165      156.981       82.220    13727.602    24643.063     6760.046        6.816        2.257      299.381       78.683        0.069      349.843       30.565      858.618
09/08/2013  16:23:00     -136.280      424.446      -41.956      111.306      157.235       76.241    12389.051    24722.707     5812.724       12.170        2.146      445.788       83.034        0.035      349.514       29.994      858.640
09/08/2013  16:24:00        5.886      151.656        1.128       71.507      150.615       71.632     5113.188    22684.913     5131.170        2.798        1.646      151.770       80.298        0.280      349.704       30.327      858.606
09/08/2013  16:25:00     -128.218      387.971      -40.366      132.747      153.457       68.622    17621.670    23549.070     4708.932       10.723        2.294      408.609       78.330        0.037      349.495       29.962      858.619
09/08/2013  16:26:00      -30.647      165.232       -7.449       53.072       99.066       48.203     2816.686     9814.146     2323.549        2.162        0.748      168.050       59.872        0.127      349.557       30.070      858.572
09/08/2013  16:27:00        7.734      149.976       -5.593       63.261       77.628       41.496     4001.958     6026.168     1721.883        1.716        0.588      150.175       44.518        0.088      349.423       29.840      858.529
09/08/2013  16:28:00      -22.874      201.787      -11.862       57.633      106.757       45.311     3321.580    11397.048     2053.101        2.907        0.839      203.079       52.600        0.067      349.597       30.139      858.528
09/08/2013  16:29:00      -42.229      269.382      -39.188       71.913       75.872       37.460     5171.544     5756.544     1403.260        4.411        0.617      272.672       30.426        0.012      349.702       30.319      858.535
09/08/2013  16:30:00      -56.074      346.011      -38.353       92.487      174.130       62.064     8553.803    30321.355     3851.896        8.352        2.136      350.525       78.441        0.050      349.660       30.247      858.515
09/08/2013  16:31:00      -93.174      338.377      -55.990       98.600      153.113       64.543     9721.873    23443.627     4165.812        8.182        1.867      350.971       51.581        0.022      349.660       30.247      858.532
09/08/2013  16:32:00      -71.729      351.563      -27.832       90.646      103.081       57.931     8216.765    10625.603     3356.057        7.585        1.110      358.805       53.627        0.022      349.705       30.325      858.517
09/08/2013  16:33:00       17.015      456.849      -60.091      139.788      142.959       68.772    19540.774    20437.175     4729.656       12.865        2.235      457.165       69.669        0.023      349.609       30.161      858.497
09/08/2013  16:34:00       71.736      298.389      -39.291       81.459      160.131       69.291     6635.518    25641.910     4801.229        6.639        1.854      306.891       85.476        0.078      349.734       30.375      858.510
09/08/2013  16:35:00       20.314      348.423      -14.565      118.166      208.424       92.859    13963.258    43440.397     8622.742        9.401        3.301      349.015      108.372        0.096      349.649       30.230      858.493
09/08/2013  16:36:00      -21.136      266.639      -19.238       88.646      156.252       70.012     7858.056    24414.835     4901.704        5.454        1.859      267.476       84.476        0.100      349.778       30.452      858.472
09/08/2013  16:37:00     -161.393       33.863      -11.328       80.872      114.245       48.759     6540.319    13052.008     2377.409        2.464        1.098      164.907       57.190        0.120      350.040       30.909      858.491
09/08/2013  16:38:00     -211.352      200.250      -38.773      121.123      135.152       76.759    14670.774    18266.042     5891.882        6.254        1.941      291.153       70.916        0.059      349.837       30.553      858.530
09/08/2013  16:39:00      -94.358      318.266      -33.951      172.227      264.894       93.377    29662.251    70168.897     8719.324       10.993        5.428      331.959      108.478        0.107      349.612       30.164      858.499
09/08/2013  16:40:00      -27.291      554.699      -59.675      105.036      206.734       82.758    11032.482    42738.768     6848.865       18.630        3.031      555.370       99.017        0.032      349.420       29.831      858.462
09/08/2013  16:41:00     -117.824      341.625      -35.080      125.183      148.735       81.864    15670.782    22122.066     6701.633        8.815        2.225      361.372       85.858        0.056      349.567       30.085      858.506
09/08/2013  16:42:00      -81.547      599.447      -66.047       97.240      135.744       60.148     9455.703    18426.314     3617.751       20.092        1.575      604.968       52.629        0.008      349.438       29.860      858.460
09/08/2013  16:43:00      -77.773      353.022      -42.577      105.057      191.698       78.600    11036.955    36747.994     6177.976        9.321        2.698      361.488       94.789        0.069      349.607       30.156      858.457
09/08/2013  16:44:00      -39.570      424.051      -30.113      132.580      179.779       82.672    17577.412    32320.340     6834.680       11.950        2.837      425.893       92.376        0.047      349.613       30.165      858.438
09/08/2013  16:45:00      -36.768      562.867      -68.402      104.453      160.696       91.952    10910.520    25823.142     8455.113       18.401        2.259      564.067       88.092        0.024      349.533       30.025      858.416
09/08/2013  16:46:00     -147.073      492.316      -60.063      134.705      200.618       76.220    18145.549    40247.739     5809.413       16.590        3.210      513.815       74.799        0.021      349.472       29.923      858.456
09/08/2013  16:47:00      -65.814      472.981      -53.423      110.350      188.132       68.734    12177.121    35393.539     4724.318       14.159        2.615      477.538       84.261        0.031      349.391       29.782      858.453
09/08/2013  16:48:00      158.345      275.637        9.940      183.001      131.267      105.513    33489.379    17230.951    11132.931        8.149        3.093      317.882       93.852        0.087      349.408       29.808      858.396
09/08/2013  16:49:00      118.642      232.302       16.996      205.118      184.250      140.065    42073.297    33948.117    19618.131        8.197        4.782      260.845      103.958        0.159      349.441       29.867      858.336
09/08/2013  16:50:00        2.052      389.410      -30.193      135.011      226.431       84.509    18227.953    51271.107     7141.696       11.458        3.832      389.416      105.298        0.073      349.552       30.061      858.419
09/08/2013  16:51:00     -158.830      398.645      -52.273      108.672      151.505       66.720    11809.608    22953.806     4451.512       11.304        1.961      429.121       75.489        0.031      349.553       30.060      858.459
09/08/2013  16:52:00     -120.335      362.817      -34.439      109.553      181.759       73.803    12001.894    33036.324     5446.953        9.888        2.524      382.252       77.806        0.041      349.559       30.073      858.432
09/08/2013  16:53:00     -296.070      390.308      -74.501      178.577      163.986       87.046    31889.898    26891.417     7576.940       15.594        3.318      489.896      116.152        0.056      349.709       30.332      858.409
09/08/2013  16:54:00     -317.606      380.173      -73.998      195.624      179.443       91.396    38268.855    32199.932     8353.166       16.484        3.941      495.384      111.642        0.051      349.688       30.297      858.420
09/08/2013  16:55:00     -261.257      504.613      -63.541      211.568      224.508      108.144    44760.915    50403.777    11695.147       21.687        5.343      568.234      115.154        0.041      349.483       29.941      858.426
09/08/2013  16:56:00     -372.633      382.619      -83.112      157.223      174.229      103.814    24719.004    30355.649    10777.366       17.899        3.293      534.091       91.195        0.029      349.448       29.880      858.450
09/08/2013  16:57:00     -352.933      176.500      -66.804      205.606      181.808       84.319    42274.008    33054.115     7109.720       12.129        4.122      394.606       89.342        0.051      349.537       30.033      858.406
09/08/2013  16:58:00     -128.282      265.323      -44.762       84.079      119.337       55.408     7069.225    14241.314     3070.053        5.661        1.219      294.708       57.439        0.038      349.525       30.011      858.432
09/08/2013  16:59:00     -123.570      311.391      -22.297       92.892      181.596       68.598     8628.837    32977.260     4705.662        7.951        2.316      335.013       70.695        0.045      349.570       30.091      858.427
09/08/2013  17:00:00     -155.060      257.675      -24.972      108.647       93.346       69.436    11804.234     8713.530     4821.397        5.820        1.267      300.732       62.783        0.044      349.624       30.185      858.426
09/08/2013  17:01:00     -229.878      344.473      -48.214      122.104      155.092       77.410    14909.340    24053.626     5992.280       10.938        2.248      414.132       68.339        0.027      349.535       30.030      858.428
09/08/2013  17:02:00     -272.273      468.052      -70.765      158.791      168.017       91.792    25214.533    28229.835     8425.827       18.003        3.094      541.484       96.200        0.032      349.502       29.974      858.439
09/08/2013  17:03:00     -299.326      409.899      -90.154      157.607      130.962       96.675    24839.950    17150.998     9346.041       15.853        2.567      507.557      100.221        0.039      349.430       29.849      858.453
09/08/2013  17:04:00     -104.742      203.816      -14.500       90.762      127.278       64.583     8237.792    16199.625     4170.973        4.066        1.430      229.155       68.051        0.088      349.521       30.007      858.452
09/08/2013  17:05:00     -190.937      272.305      -45.527       94.966      138.170       56.685     9018.457    19090.905     3213.198        7.199        1.566      332.576       61.280        0.034      349.569       30.089      858.448
09/08/2013  17:06:00     -130.199      256.772      -37.701      135.228      105.582       65.399    18286.679    11147.658     4277.048        5.900        1.686      287.895       68.294        0.056      349.617       30.174      858.462
09/08/2013  17:07:00     -135.617      292.759      -26.954      139.858      157.383       71.700    19560.247    24769.485     5140.947        7.714        2.474      322.645       81.730        0.064      349.633       30.202      858.481
09/08/2013  17:08:00     -108.925      397.491      -43.672      106.120      134.013       65.069    11261.440    17959.516     4233.975       10.261        1.673      412.145       63.428        0.024      349.545       30.048      858.478
09/08/2013  17:09:00     -154.930      289.741      -50.185       86.237      103.781       51.192     7436.745    10770.455     2620.603        6.565        1.041      328.563       51.908        0.025      349.667       30.259      858.482
09/08/2013  17:10:00      -68.134      294.482      -41.772       86.519      154.995       53.748     7485.538    24023.436     2888.814        6.375        1.720      302.261       67.718        0.050      349.663       30.254      858.470
09/08/2013  17:11:00      -47.521      292.106      -20.851      103.943      216.460       86.942    10804.108    46854.889     7558.930        7.661        3.261      295.946       97.242        0.108      349.587       30.121      858.464
09/08/2013  17:12:00     -139.327      450.211      -55.287      108.131      132.419       66.317    11692.368    17534.728     4397.882       12.939        1.681      471.277       62.107        0.017      349.343       29.697      858.472
09/08/2013  17:13:00      -90.040      380.734      -43.624       97.918      101.495       49.645     9587.933    10301.197     2464.626        8.866        1.118      391.236       42.529        0.012      349.396       29.789      858.481
09/08/2013  17:14:00     -120.631      205.826        3.617      112.126      126.408       73.118    12572.234    15978.972     5346.250        4.541        1.695      238.571       64.692        0.074      349.528       30.018      858.454
09/08/2013  17:15:00     -145.973      188.581      -35.780      104.371      104.560       66.156    10893.369    10932.749     4376.553        4.217        1.310      238.476       57.659        0.058      349.649       30.229      858.466
09/08/2013  17:16:00     -112.131      145.758      -14.658       96.935      163.929       53.569     9396.329    26872.620     2869.625        3.658        1.957      183.898       48.344        0.069      349.666       30.259      858.453
09/08/2013  17:17:00     -129.247      434.465      -49.429      132.315      193.527       87.955    17507.258    37452.860     7736.133       13.529        3.135      453.282       81.461        0.032      349.510       29.986      858.489
09/08/2013  17:18:00     -201.359      404.857      -54.661      156.569      175.832       82.517    24513.888    30917.019     6808.996       13.483        3.112      452.167       76.113        0.028      349.496       29.961      858.504
09/08/2013  17:19:00     -228.875      428.204      -65.230      124.942      173.476       82.772    15610.487    30094.062     6851.178       14.627        2.628      485.533       78.354        0.026      349.394       29.787      858.503
09/08/2013  17:20:00     -209.573      297.070      -39.754      132.529      148.256       76.274    17563.982    21979.978     5817.736        8.955        2.268      363.554       87.478        0.058      349.454       29.890      858.464
09/08/2013  17:21:00     -103.950      423.063      -47.201       88.324      141.643       56.747     7801.063    20062.807     3220.191       11.154        1.554      435.647       55.900        0.016      349.393       29.785      858.446
09/08/2013  17:22:00     -312.520      212.121      -40.965      226.835      124.326       92.603    51454.320    15457.030     8575.240       10.990        3.774      377.709      106.681        0.080      349.529       30.020      858.467
09/08/2013  17:23:00     -224.471      299.004      -57.559      144.832      153.307       81.948    20976.333    23503.162     6715.428        9.714        2.560      373.886       97.187        0.068      349.475       29.925      858.486
09/08/2013  17:24:00     -205.264      434.160      -63.850      160.405      132.394       81.126    25729.665    17528.088     6581.433       14.226        2.492      480.238       81.223        0.029      349.437       29.859      858.478
09/08/2013  17:25:00     -232.791      439.238      -57.135      125.567      207.868       90.154    15767.180    43209.183     8127.706       15.873        3.355      497.113      105.674        0.045      349.411       29.815      858.508
09/08/2013  17:26:00     -205.614      443.426      -57.650      122.138      171.840       86.395    14917.649    29528.988     7464.025       14.706        2.596      488.778       79.201        0.026      349.383       29.768      858.515
09/08/2013  17:27:00     -255.058      435.658      -53.703      161.792      193.300       96.510    26176.737    37364.976     9314.207       16.528        3.643      504.829       96.627        0.037      349.421       29.832      858.507
09/08/2013  17:28:00     -231.109      316.878      -51.709      147.655      178.845       84.123    21801.933    31985.591     7076.743       10.867        3.043      392.203       94.652        0.058      349.434       29.855      858.529
09/08/2013  17:29:00     -227.520      237.087      -29.613      133.754      199.639      108.512    17890.227    39855.658    11774.749        8.917        3.476      328.597       95.798        0.085      349.440       29.866      858.561
09/08/2013  17:30:00     -237.774       96.556      -27.113      117.147      165.176       71.454    13723.489    27282.953     5105.644        5.634        2.306      256.631       78.979        0.095      349.445       29.874      858.537
09/08/2013  17:31:00     -225.638      157.710      -35.961      192.954      158.665       98.281    37231.059    25174.497     9659.089        7.456        3.603      275.290      104.096        0.143      349.374       29.752      858.530
09/08/2013  17:32:00     -223.605      300.396      -39.505      156.833      148.923       93.072    24596.705    22178.125     8662.406        9.861        2.772      374.482       77.318        0.043      349.369       29.743      858.513
09/08/2013  17:33:00     -269.479      251.584      -54.322      117.391      101.827       71.394    13780.702    10368.782     5097.036        8.405        1.462      368.665       71.940        0.038      349.336       29.687      858.539
09/08/2013  17:34:00     -186.606      329.904      -51.508      171.453      170.103       77.024    29396.067    28935.135     5932.657       10.527        3.213      379.023       69.930        0.034      349.313       29.646      858.510
09/08/2013  17:35:00      -28.058      499.575      -63.013      105.269      153.639       73.854    11081.469    23604.814     5454.409       14.723        2.007      500.362       76.588        0.023      349.278       29.586      858.483
09/08/2013  17:36:00     -159.487      353.938      -34.711      127.913      137.083       70.438    16361.828    18791.744     4961.536        9.601        2.006      388.212       64.036        0.027      349.313       29.647      858.511
09/08/2013  17:37:00     -209.248      364.043      -35.260      155.369      167.838       79.323    24139.621    28169.586     6292.169       11.807        2.930      419.895       86.273        0.042      349.296       29.616      858.529
09/08/2013  17:38:00     -190.646      301.824      -23.677      138.275      227.854       84.558    19120.101    51917.329     7150.123       10.308        3.909      356.993       94.329        0.070      349.310       29.640      858.517
09/08/2013  17:39:00     -166.715      321.765      -41.563      158.054      157.049       88.026    24981.030    24664.337     7748.665        9.521        2.870      362.390      109.263        0.091      349.329       29.673      858.545
09/08/2013  17:40:00     -116.938      541.866      -63.175      123.427      118.880       71.275    15234.255    14132.340     5080.189       17.286        1.722      554.340       67.515        0.015      349.216       29.477      858.560
09/08/2013  17:41:00     -115.521      319.042      -37.456       93.567      199.732       59.019     8754.772    39892.989     3483.238        8.432        2.607      339.312       69.139        0.042      349.329       29.675      858.567
09/08/2013  17:42:00     -218.541      164.183      -49.158      135.645      128.508       67.482    18399.635    16514.220     4553.771        5.829        1.973      273.343       61.841        0.051      349.445       29.876      858.581
09/08/2013  17:43:00     -178.783      202.399      -55.341       94.821      109.965       59.463     8991.017    12092.361     3535.878        5.030        1.231      270.053       22.545        0.007      349.502       29.973      858.574
09/08/2013  17:44:00     -152.113      251.580      -22.790       85.685      122.642       73.381     7341.998    15041.093     5384.741        5.735        1.388      293.992       59.523        0.041      349.373       29.750      858.562
09/08/2013  17:45:00     -136.587      246.049      -21.247       79.813       83.127       57.948     6370.152     6910.149     3357.953        4.814        0.832      281.418       45.458        0.026      349.418       29.827      858.562
09/08/2013  17:46:00     -168.951      223.221      -18.035      158.902      164.773       86.645    25249.705    27150.251     7507.352        6.929        2.995      279.950      104.064        0.138      349.359       29.726      858.569
09/08/2013  17:47:00     -165.985      280.156      -41.499      139.756      143.049       65.943    19531.785    20463.141     4348.473        7.604        2.217      325.635       50.411        0.024      349.365       29.737      858.570
09/08/2013  17:48:00     -237.212      273.534      -54.353      101.331      127.217       63.913    10268.033    16184.110     4084.866        8.228        1.527      362.064       56.087        0.024      349.349       29.707      858.581
09/08/2013  17:49:00     -184.180      242.418      -32.970      117.002      116.860       61.312    13689.508    13656.158     3759.139        6.243        1.555      304.448       63.934        0.044      349.309       29.638      858.581
09/08/2013  17:50:00     -129.405      176.365      -31.647       64.537      102.989       50.137     4165.037    10606.689     2513.725        3.307        0.864      218.747       36.801        0.028      349.320       29.659      858.589
09/08/2013  17:51:00     -118.445      293.479      -27.880       73.992      130.733       57.796     5474.825    17091.065     3340.353        6.342        1.295      316.479       60.784        0.037      349.256       29.547      858.590
09/08/2013  17:52:00     -136.643      394.357      -32.337      110.906      162.629       80.177    12300.103    26448.299     6428.314       11.020        2.259      417.359       78.482        0.035      349.166       29.392      858.571
09/08/2013  17:53:00     -115.665      404.823      -46.213      109.569      212.442       75.439    12005.426    45131.619     5691.012       12.110        3.141      421.023       72.641        0.030      349.166       29.390      858.566
09/08/2013  17:54:00     -127.896      356.558      -38.164       93.846      143.660       64.392     8807.066    20638.089     4146.299        8.926        1.680      378.802       69.202        0.033      349.136       29.338      858.583
09/08/2013  17:55:00     -204.213      205.155      -37.231      125.656      119.413       75.414    15789.345    14259.549     5687.344        6.045        1.787      289.467       61.601        0.045      349.182       29.419      858.603
09/08/2013  17:56:00     -164.090      149.210      -31.793      108.827      102.483       59.634    11843.273    10502.753     3556.187        3.805        1.295      221.786       59.563        0.072      349.154       29.372      858.601
09/08/2013  17:57:00     -130.978      209.369      -24.294      105.322      116.315       63.185    11092.641    13529.184     3992.301        4.509        1.431      246.962       69.222        0.079      349.150       29.364      858.601
09/08/2013  17:58:00     -183.882      217.655      -33.408       97.336       93.278       58.635     9474.332     8700.804     3438.039        5.195        1.081      284.932       58.423        0.042      349.185       29.426      858.608
09/08/2013  17:59:00     -142.020      174.019      -25.295       57.094      113.575       50.423     3259.710    12899.381     2542.516        3.489        0.935      224.616       46.805        0.043      349.195       29.441      858.612
09/08/2013  18:00:00     -158.891      104.720      -29.475       67.265      122.918       56.062     4524.539    15108.823     3142.975        2.992        1.139      190.296       36.645        0.037      349.225       29.494      858.605
09/08/2013  18:01:00     -189.161      220.961      -29.812      101.660      142.034       67.890    10334.851    20173.604     4609.013        6.030        1.756      290.871       63.419        0.048      349.287       29.602      858.612
09/08/2013  18:02:00     -127.620      223.144      -40.713      105.659      126.007       68.545    11163.925    15877.793     4698.419        4.973        1.587      257.061       73.704        0.082      349.214       29.476      858.597
09/08/2013  18:03:00     -181.076      142.944      -26.828       81.651       80.957       54.330     6666.893     6554.029     2951.709        3.505        0.809      230.698       49.350        0.046      349.304       29.631      858.612
09/08/2013  18:04:00     -204.610      176.389      -28.016      109.458      122.434       61.270    11981.065    14990.177     3753.970        5.224        1.536      270.145       58.382        0.047      349.233       29.505      858.617
09/08/2013  18:05:00     -199.418      154.441      -20.419      112.165      107.902       60.414    12581.053    11642.735     3649.845        4.595        1.394      252.229       47.719        0.036      349.231       29.503      858.624
09/08/2013  18:06:00     -248.613      202.246      -32.475      179.193      111.237       90.183    32110.060    12373.561     8132.953        7.818        2.631      320.487       96.178        0.090      349.147       29.357      858.619
09/08/2013  18:07:00     -167.559      261.756      -46.587      135.925      122.733       81.055    18475.667    15063.287     6569.965        6.943        2.005      310.793       81.235        0.068      349.156       29.373      858.638
09/08/2013  18:08:00      -92.862      292.054      -21.008      100.806      152.602       66.302    10161.923    23287.457     4395.938        6.610        1.892      306.462       68.991        0.051      349.105       29.286      858.626
09/08/2013  18:09:00     -214.609      345.423      -57.333       94.769      114.004       63.247     8981.142    12996.959     4000.233        9.731        1.299      406.662       59.450        0.021      349.076       29.235      858.640
09/08/2013  18:10:00     -199.808      240.834      -48.802      114.321      131.833       69.402    13069.338    17379.820     4816.656        6.778        1.763      312.928       76.897        0.060      349.130       29.328      858.667
09/08/2013  18:11:00     -121.318       65.043       -8.840       65.253       51.572       38.975     4257.919     2659.664     1519.012        1.373        0.422      137.654       26.485        0.037      349.256       29.550      858.671
09/08/2013  18:12:00     -230.057      201.876      -55.004      144.667      128.668       67.923    20928.606    16555.490     4613.522        6.939        2.105      306.072       80.370        0.069      349.178       29.411      858.679
09/08/2013  18:13:00     -177.061      268.243      -44.840       92.380      149.597       55.465     8533.994    22379.386     3076.381        6.965        1.699      321.411       62.830        0.038      349.142       29.349      858.691
09/08/2013  18:14:00     -164.826      158.078      -29.464       89.700       84.314       46.389     8046.157     7108.931     2151.934        3.516        0.865      228.378       46.947        0.042      349.143       29.350      858.691
09/08/2013  18:15:00     -116.014       83.615      -12.716       99.094       78.558       50.263     9819.657     6171.433     2526.341        1.956        0.926      143.006       38.830        0.074      349.095       29.268      858.684
09/08/2013  18:16:00     -118.905       40.034      -12.182       63.762       64.454       44.076     4065.560     4154.281     1942.705        1.302        0.508      125.463       31.098        0.061      349.153       29.371      858.683
09/08/2013  18:17:00     -117.252      110.816      -37.143       97.539      143.014       58.160     9513.930    20452.877     3382.631        3.037        1.667      161.333       52.752        0.107      349.147       29.359      858.673
09/08/2013  18:18:00     -174.307      232.140      -34.166      108.784      134.259       61.501    11834.059    18025.390     3782.421        5.953        1.682      290.296       65.380        0.051      349.016       29.133      858.679
09/08/2013  18:19:00     -201.590      219.541      -55.252      106.085      106.556       57.385    11253.983    11354.099     3293.044        5.889        1.295      298.055       61.951        0.043      349.075       29.233      858.694
09/08/2013  18:20:00     -224.715      189.504      -39.052      155.169      173.399       59.663    24077.554    30067.256     3559.718        7.281        2.885      293.953       77.893        0.070      349.025       29.149      858.695
09/08/2013  18:21:00     -118.589      128.506      -20.807       70.526      117.982       58.255     4973.918    13919.675     3393.681        2.664        1.114      174.863       50.634        0.084      349.062       29.212      858.672
09/08/2013  18:22:00     -135.326       71.219      -25.507       67.844       80.421       45.381     4602.792     6467.528     2059.477        1.858        0.656      152.923       26.184        0.029      349.093       29.267      858.681
09/08/2013  18:23:00     -191.014      144.135      -35.438       97.136      125.125       53.854     9435.370    15656.302     2900.228        4.325        1.400      239.293       42.252        0.031      349.002       29.109      858.695
09/08/2013  18:24:00     -168.461       52.508      -23.228      115.205      137.573       66.369    13272.225    18926.204     4404.798        3.413        1.830      176.454       62.586        0.126      349.015       29.130      858.678
09/08/2013  18:25:00     -170.890       68.836      -31.500      100.216      101.903       48.441    10043.341    10384.148     2346.495        2.885        1.139      184.233       53.868        0.085      349.018       29.136      858.691
09/08/2013  18:26:00      -95.320        0.685      -19.315       91.731       73.078       41.575     8414.606     5340.362     1728.455        1.247        0.774       95.323       32.061        0.113      348.996       29.100      858.693
09/08/2013  18:27:00     -223.882      -99.059      -15.403      149.633      148.630       60.336    22390.175    22090.967     3640.401        5.414        2.406      244.818       31.282        0.016      348.898       28.924      858.676
09/08/2013  18:28:00     -158.490      -10.020      -10.981       86.352      128.504       49.713     7456.668    16513.345     2471.427        2.589        1.322      158.806       43.640        0.076      348.909       28.946      858.680
09/08/2013  18:29:00     -173.269        9.224      -37.457       91.706       74.554       44.779     8409.935     5558.331     2005.151        2.374        0.799      173.515       31.199        0.032      348.880       28.896      858.682
09/08/2013  18:30:00     -108.845       17.993      -13.667       98.968      102.447       45.566     9794.600    10495.407     2076.222        1.736        1.118      110.323       24.162        0.048      348.955       29.026      858.682
09/08/2013  18:31:00     -167.597      111.534      -14.955       88.906      119.397       55.283     7904.202    14255.691     3056.199        3.298        1.261      201.316       37.791        0.035      348.935       28.991      858.668
09/08/2013  18:32:00     -165.461       40.027      -13.108       85.965      139.997       49.048     7390.062    19599.165     2405.727        2.927        1.470      170.234       36.982        0.047      348.890       28.912      858.679
09/08/2013  18:33:00     -122.148       65.460        1.478      122.967       79.915       54.699    15120.946     6386.335     2991.949        2.185        1.225      138.583       62.452        0.203      348.830       28.810      858.680
09/08/2013  18:34:00     -228.733       50.166      -36.839       78.354      114.821       46.573     6139.296    13183.962     2169.025        3.884        1.075      234.170       35.237        0.023      348.880       28.893      858.676
09/08/2013  18:35:00     -170.867       34.696      -33.580       89.283       72.495       45.641     7971.374     5255.499     2083.103        2.342        0.765      174.354       40.367        0.054      348.880       28.895      858.679
09/08/2013  18:36:00     -163.385      140.929      -16.736       99.460       96.391       54.093     9892.314     9291.283     2926.029        3.447        1.105      215.768       65.792        0.093      348.825       28.801      858.663
09/08/2013  18:37:00     -144.564       42.260      -26.370       66.266       87.052       49.373     4391.178     7578.046     2437.702        1.889        0.720      150.615       24.643        0.027      348.883       28.902      858.658
09/08/2013  18:38:00     -108.012       70.175      -13.825       68.906       89.741       44.916     4748.080     8053.500     2017.435        1.580        0.741      128.807       38.077        0.087      348.814       28.784      858.652
09/08/2013  18:39:00      -90.929        0.602       -3.850       55.680       51.203       34.658     3100.222     2621.759     1201.148        0.760        0.346       90.931       22.087        0.059      348.852       28.849      858.657
09/08/2013  18:40:00     -186.994      -49.569       -8.736      100.625       63.227       42.030    10125.309     3997.623     1766.511        2.669        0.794      193.453       35.547        0.034      348.714       28.609      858.660
09/08/2013  18:41:00     -159.173      -41.215      -27.056       77.187       45.984       33.668     5957.867     2114.519     1133.525        1.848        0.460      164.423       18.370        0.012      348.693       28.573      858.678
09/08/2013  18:42:00     -199.585       -1.780      -10.947      123.555       97.356       64.973    15265.863     9478.115     4221.523        3.446        1.448      199.593       64.574        0.105      348.704       28.593      858.679
09/08/2013  18:43:00      -67.177        1.301        4.178       81.631       52.690       44.182     6663.672     2776.193     1952.007        0.796        0.570       67.189       39.477        0.345      348.724       28.629      858.691
09/08/2013  18:44:00     -163.059      -24.765       -7.741       64.332       70.254       40.687     4138.563     4935.598     1655.427        1.899        0.536      164.929       35.274        0.046      348.650       28.500      858.710
09/08/2013  18:45:00     -153.169      -49.340       -3.380       61.972       62.620       39.945     3840.590     3921.242     1595.592        1.763        0.468      160.920       30.778        0.037      348.565       28.352      858.719
09/08/2013  18:46:00     -138.244      -15.461      -11.222       56.459       65.467       38.794     3187.607     4285.958     1504.997        1.423        0.449      139.106       20.253        0.021      348.551       28.328      858.722
09/08/2013  18:47:00     -189.077      -49.185      -16.768       97.333       64.426       37.237     9473.654     4150.716     1386.590        2.673        0.751      195.370       37.429        0.037      348.542       28.313      858.717
09/08/2013  18:48:00     -149.514      -72.576       15.076       79.451       75.925       49.385     6312.488     5764.660     2438.906        2.118        0.726      166.198       51.196        0.095      348.479       28.204      858.721
09/08/2013  18:49:00     -243.073      -46.943      -17.105       78.183       74.292       48.948     6112.639     5519.283     2395.951        3.780        0.701      247.565       34.911        0.020      348.465       28.177      858.721
09/08/2013  18:50:00     -188.700      -69.863      -20.633       65.494       61.718       41.169     4289.522     3809.137     1694.881        2.535        0.490      201.218       27.985        0.019      348.396       28.058      858.712
09/08/2013  18:51:00     -211.730      -42.683      -10.159       73.374       59.445       31.868     5383.691     3533.724     1015.540        2.834        0.497      215.990       26.989        0.016      348.358       27.991      858.718
09/08/2013  18:52:00     -206.438      -39.144      -11.493      101.156       80.995       45.356    10232.556     6560.223     2057.197        3.156        0.942      210.116       49.929        0.056      348.383       28.036      858.714
09/08/2013  18:53:00     -297.552      -43.746      -26.333       81.845       73.921       51.593     6698.541     5464.340     2661.788        5.298        0.741      300.751       43.063        0.021      348.390       28.047      858.723
09/08/2013  18:54:00     -244.668        3.964      -11.908       98.591      112.408       64.167     9720.200    12635.575     4117.453        4.324        1.324      244.700       53.027        0.047      348.403       28.070      858.727
09/08/2013  18:55:00     -182.200      -43.404      -17.920       77.528       81.134       44.491     6010.651     6582.749     1979.426        2.498        0.729      187.298       37.865        0.041      348.414       28.090      858.728
09/08/2013  18:56:00     -321.872      -24.258      -23.734      106.349       83.967       51.159    11310.137     7050.484     2617.291        6.286        1.049      322.785       39.964        0.015      348.383       28.034      858.737
09/08/2013  18:57:00     -153.198      -58.030      -17.449      105.506       91.966       33.897    11131.534     8457.810     1148.975        2.394        1.037      163.820       31.565        0.037      348.352       27.983      858.742
09/08/2013  18:58:00     -237.784        5.288      -18.048       91.387       83.112       40.263     8351.509     6907.570     1621.131        3.688        0.844      237.843       35.747        0.023      348.289       27.871      858.749
09/08/2013  18:59:00     -124.337      -17.751       -4.356       77.134       54.501       33.065     5949.585     2970.332     1093.269        1.290        0.501      125.598       34.587        0.076      348.311       27.912      858.763
09/08/2013  19:00:00     -167.844      -44.317      -11.521       65.705       48.188       36.757     4317.144     2322.039     1351.064        1.913        0.400      173.596       31.310        0.033      348.243       27.795      858.761
09/08/2013  19:01:00     -161.269      -22.147      -19.599       55.806       60.980       32.521     3114.339     3718.549     1057.617        1.738        0.395      162.783       26.846        0.027      348.221       27.757      858.757
09/08/2013  19:02:00     -156.006      -33.910      -19.162       53.140       44.897       27.668     2823.840     2015.720      765.534        1.573        0.280      159.649       23.460        0.022      348.192       27.708      858.764
09/08/2013  19:03:00     -108.643      -38.264       -1.557       52.624       57.548       33.407     2769.312     3311.757     1116.030        1.023        0.360      115.184       35.212        0.093      348.169       27.670      858.767
09/08/2013  19:04:00     -158.839      -55.536       -3.344       54.201       64.756       36.393     2937.727     4193.314     1324.430        1.839        0.423      168.268       30.219        0.032      348.126       27.594      858.769
09/08/2013  19:05:00     -150.544      -35.312      -17.366       30.574       52.835       27.999      934.786     2791.494      783.955        1.436        0.226      154.630       23.419        0.023      348.108       27.563      858.768
09/08/2013  19:06:00     -157.540      -48.475      -23.404       63.985       59.800       24.554     4094.023     3576.096      602.881        1.799        0.414      164.829       23.699        0.021      348.044       27.451      858.766
09/08/2013  19:07:00     -169.117      -52.678       -9.400       54.428       70.980       31.358     2962.440     5038.111      983.353        2.022        0.449      177.131       23.590        0.018      347.988       27.356      858.772
09/08/2013  19:08:00     -198.405      -64.983      -10.373       54.098       55.871       35.622     2926.548     3121.578     1268.951        2.550        0.366      208.775       28.577        0.019      347.943       27.277      858.779
09/08/2013  19:09:00     -225.743      -40.088      -13.502       78.812       82.026       42.257     6211.256     6728.238     1785.684        3.373        0.736      229.275       44.030        0.037      347.884       27.173      858.785
09/08/2013  19:10:00     -138.384      -66.711      -12.352       83.076       67.375       34.440     6901.689     4539.446     1186.093        1.819        0.631      153.625       37.639        0.060      347.863       27.139      858.792
09/08/2013  19:11:00     -185.690      -39.723       -0.072      104.100       72.118       44.751    10836.763     5201.032     2002.681        2.705        0.902      189.891       50.376        0.070      347.820       27.062      858.817
09/08/2013  19:12:00     -260.868      -46.066       -6.209       61.497       51.158       32.573     3781.851     2617.191     1060.970        3.883        0.373      264.904       24.690        0.009      347.847       27.110      858.830
09/08/2013  19:13:00     -189.795      -50.918       -1.721       72.907       71.971       40.857     5315.391     5179.754     1669.332        2.539        0.608      196.506       37.952        0.037      347.833       27.084      858.834
09/08/2013  19:14:00     -226.726      -27.035       -1.271       93.554       70.817       47.244     8752.261     5015.096     2231.950        3.407        0.800      228.332       50.743        0.049      347.827       27.075      858.856
09/08/2013  19:15:00     -174.332      -40.847       -9.058       65.619       41.973       32.064     4305.821     1761.747     1028.083        1.962        0.355      179.053       20.932        0.014      347.835       27.091      858.860
09/08/2013  19:16:00     -161.259      -64.129       -9.312       64.582       44.859       27.906     4170.857     2012.326      778.725        1.858        0.348      173.542       30.787        0.031      347.892       27.188      858.860
09/08/2013  19:17:00     -166.372      -60.650      -12.612       46.142       36.495       22.705     2129.126     1331.879      515.523        1.775        0.199      177.082       15.762        0.008      347.833       27.089      858.877
09/08/2013  19:18:00     -202.857      -15.040        6.094      104.144       70.516       50.375    10845.900     4972.453     2537.597        2.988        0.918      203.413       65.751        0.104      347.828       27.077      858.879
09/08/2013  19:19:00     -159.989      -31.005        8.304       94.270       70.021       38.126     8886.844     4902.925     1453.592        2.093        0.762      162.965       48.091        0.087      347.795       27.022      858.881
09/08/2013  19:20:00     -173.252      -64.567       -1.643       59.916       64.467       36.713     3589.932     4155.989     1347.809        2.164        0.455      184.892       33.517        0.033      347.712       26.878      858.890
09/08/2013  19:21:00     -235.123      -26.984       -4.465       78.560       61.878       42.302     6171.721     3828.939     1789.439        3.391        0.590      236.666       42.399        0.032      347.812       27.048      858.898
09/08/2013  19:22:00     -154.734      -79.765       -3.757       91.313       56.801       35.607     8338.125     3226.401     1267.891        2.157        0.642      174.084       28.341        0.027      347.825       27.072      858.912
09/08/2013  19:23:00     -148.218      -70.454       -3.721       71.960       44.032       30.586     5178.222     1938.813      935.508        1.750        0.403      164.111       33.976        0.043      347.799       27.028      858.911
09/08/2013  19:24:00     -115.788      -74.819        5.037       94.344       76.590       43.654     8900.795     5865.987     1905.686        1.785        0.834      137.857       53.480        0.150      347.753       26.948      858.931
09/08/2013  19:25:00     -183.718      -77.629        1.781       87.349       67.795       39.776     7629.870     4596.221     1582.105        2.679        0.690      199.445       39.504        0.039      347.820       27.062      858.940
09/08/2013  19:26:00     -192.883      -68.125       -5.714      102.659       68.582       41.969    10538.917     4703.465     1761.435        2.944        0.850      204.560       41.475        0.041      347.863       27.139      858.971
09/08/2013  19:27:00     -276.052      -84.894       -6.297       83.391       58.476       46.716     6954.042     3419.470     2182.338        4.800        0.628      288.811       47.076        0.027      347.837       27.091      858.975
09/08/2013  19:28:00     -182.886      -71.303       -7.080       68.344       50.018       31.937     4670.919     2501.838     1019.980        2.339        0.410      196.294       29.116        0.022      347.794       27.019      858.995
09/08/2013  19:29:00     -120.041      -36.750        1.273       62.358       60.450       34.478     3888.505     3654.202     1188.715        1.224        0.437      125.540       34.540        0.076      347.713       26.881      859.007
09/08/2013  19:30:00     -180.636      -75.194       -7.489       54.669       47.006       29.799     2988.650     2209.536      887.976        2.221        0.304      195.662       31.360        0.026      347.836       27.092      859.012
09/08/2013  19:31:00     -154.284      -27.376        9.831       68.606       55.391       32.925     4706.810     3068.145     1084.057        1.675        0.443      156.694       38.401        0.060      347.663       26.794      859.027
09/08/2013  19:32:00     -141.098      -60.600       -5.184       79.188       50.361       33.218     6270.754     2536.278     1103.423        1.676        0.496      153.562       39.760        0.067      347.712       26.879      859.033
09/08/2013  19:33:00     -175.450      -23.291       -3.075       62.896       47.216       30.391     3955.887     2229.327      923.602        1.922        0.355      176.990       31.621        0.032      347.624       26.726      859.045
09/08/2013  19:34:00     -154.840      -43.852       -0.300       57.456       46.933       28.965     3301.184     2202.692      838.951        1.612        0.317      160.930       28.568        0.032      347.629       26.736      859.058
09/08/2013  19:35:00     -121.138      -44.087        9.366       62.798       55.189       27.337     3943.616     3045.877      747.293        1.222        0.387      128.911       24.359        0.036      347.599       26.685      859.074
09/08/2013  19:36:00     -183.725      -25.875       -4.479       77.481       55.190       32.379     6003.264     3045.946     1048.432        2.227        0.505      185.538       32.636        0.031      347.573       26.637      859.090
09/08/2013  19:37:00     -174.444      -55.995       -6.736       49.852       44.682       26.916     2485.195     1996.490      724.462        1.941        0.260      183.211       18.730        0.010      347.574       26.640      859.108
09/08/2013  19:38:00     -167.996      -25.905       -2.850       59.891       40.941       28.904     3586.897     1676.202      835.451        1.750        0.305      169.981       29.793        0.031      347.518       26.543      859.126
09/08/2013  19:39:00     -125.691      -49.816       16.777       97.920       51.682       34.771     9588.326     2670.978     1209.057        1.601        0.673      135.203       43.673        0.104      347.479       26.475      859.135
09/08/2013  19:40:00     -215.759      -86.805      -16.276       53.807       63.747       35.658     2895.183     4063.714     1271.512        3.129        0.412      232.566       34.086        0.021      347.585       26.658      859.145
09/08/2013  19:41:00     -199.799      -69.493      -10.677       71.470       44.195       32.517     5107.906     1953.227     1057.360        2.649        0.406      211.539       33.851        0.026      347.569       26.630      859.154
09/08/2013  19:42:00     -138.386      -41.568       -0.600       82.929       52.854       32.893     6877.213     2793.583     1081.930        1.581        0.538      144.494       37.842        0.069      347.469       26.459      859.156
09/08/2013  19:43:00     -168.179      -81.539       -9.630       58.853       61.905       29.613     3463.685     3832.242      876.924        2.160        0.409      186.903       30.048        0.026      347.516       26.540      859.164
09/08/2013  19:44:00     -151.253      -92.661       -4.521       73.147       63.633       40.760     5350.496     4049.156     1661.406        2.127        0.553      177.379       41.450        0.055      347.483       26.482      859.171
09/08/2013  19:45:00     -171.839      -94.883       -2.198       39.026       57.285       25.012     1523.030     3281.543      625.581        2.198        0.272      196.294       20.016        0.010      347.435       26.401      859.172
09/08/2013  19:46:00     -173.922      -83.661       -4.871       62.768       39.170       31.061     3939.869     1534.252      964.787        2.185        0.322      192.998       34.668        0.032      347.474       26.467      859.183
09/08/2013  19:47:00     -173.658      -82.993        1.442       71.776       62.248       32.133     5151.739     3874.759     1032.539        2.355        0.503      192.471       38.294        0.040      347.447       26.422      859.195
09/08/2013  19:48:00     -143.591      -51.762       -1.195       60.991       63.487       26.966     3719.950     4030.601      727.167        1.589        0.424      152.636       28.205        0.034      347.390       26.322      859.203
09/08/2013  19:49:00     -162.903      -50.876       -0.989       63.819       38.286       26.771     4072.820     1465.793      716.665        1.769        0.313      170.663       29.776        0.030      347.307       26.180      859.216
09/08/2013  19:50:00     -146.987      -25.559        3.201       66.070       57.403       30.539     4365.221     3295.143      932.642        1.543        0.430      149.192       35.989        0.058      347.245       26.074      859.232
09/08/2013  19:51:00     -101.386      -37.343        8.369       82.215       45.396       26.930     6759.236     2060.812      725.220        1.064        0.477      108.045       35.886        0.110      347.070       25.773      859.240
09/08/2013  19:52:00     -151.151      -21.145       -5.233       69.178       55.756       33.601     4785.633     3108.762     1128.997        1.617        0.451      152.623       29.900        0.038      347.207       26.007      859.259
09/08/2013  19:53:00     -197.802      -23.161      -20.947       44.829       52.112       30.297     2009.662     2715.680      917.916        2.287        0.282      199.154       22.666        0.013      347.216       26.023      859.271
09/08/2013  19:54:00     -206.549      -22.748       -9.860       45.636       43.104       26.994     2082.652     1857.943      728.694        2.397        0.233      207.798       21.547        0.011      347.170       25.943      859.277
09/08/2013  19:55:00     -226.970      -51.733      -11.198       73.832       49.082       30.755     5451.116     2409.060      945.890        3.156        0.440      232.792       35.291        0.023      347.183       25.962      859.289
09/08/2013  19:56:00     -210.409      -31.260       -6.688       93.379       56.145       39.843     8719.599     3152.309     1587.430        2.937        0.673      212.718       46.854        0.049      347.175       25.950      859.305
09/08/2013  19:57:00     -197.226      -65.214       -3.134       77.708       59.986       33.928     6038.495     3598.378     1151.101        2.697        0.539      207.728       35.157        0.029      347.098       25.818      859.321
09/08/2013  19:58:00     -155.721      -46.602        4.489       86.594       55.664       40.493     7498.503     3098.501     1639.720        1.934        0.612      162.545       44.047        0.073      347.083       25.795      859.336
09/08/2013  19:59:00     -223.467      -51.845       -4.450       69.767       51.142       39.914     4867.430     2615.485     1593.091        3.086        0.454      229.403       40.363        0.031      347.127       25.868      859.337
09/08/2013  20:00:00     -163.847      -46.898        6.187       67.539       64.798       41.357     4561.457     4198.761     1710.372        1.977        0.524      170.427       41.265        0.059      347.103       25.828      859.342
09/08/2013  20:01:00     -253.529      -42.711      -24.796       73.132       73.167       43.335     5348.252     5353.432     1877.903        3.965        0.629      257.102       40.790        0.025      347.146       25.899      859.343
09/08/2013  20:02:00     -196.052      -62.143       -2.360       99.180       64.202       41.788     9836.743     4121.945     1746.238        2.900        0.785      205.665       45.088        0.048      347.139       25.890      859.357
09/08/2013  20:03:00     -190.373      -50.796       -3.475       78.362       60.790       34.373     6140.584     3695.433     1181.518        2.492        0.551      197.034       38.623        0.038      347.114       25.847      859.355
09/08/2013  20:04:00     -177.798      -57.252       -3.526       55.686       53.903       34.324     3100.922     2905.560     1178.109        2.104        0.359      186.788       28.503        0.023      347.126       25.867      859.376
09/08/2013  20:05:00     -207.920      -59.344       -2.640       50.355       50.285       27.717     2535.600     2528.545      768.251        2.629        0.292      216.223       25.930        0.014      347.029       25.698      859.402
09/08/2013  20:06:00     -264.637      -40.845      -16.588       69.435       53.783       32.762     4821.282     2892.636     1073.321        4.038        0.439      267.771       31.429        0.014      347.096       25.814      859.418
09/08/2013  20:07:00     -269.291      -48.726      -26.783       52.825       43.895       37.511     2790.521     1926.792     1407.089        4.087        0.306      273.664       31.202        0.013      347.024       25.688      859.426
09/08/2013  20:08:00     -236.457      -59.692      -11.479       64.610       65.797       41.447     4174.409     4329.211     1717.890        3.491        0.511      243.875       33.029        0.018      347.025       25.691      859.430
09/08/2013  20:09:00     -146.730      -22.920       -1.963       73.570       66.032       38.252     5412.510     4360.245     1463.223        1.665        0.562      148.509       32.207        0.047      346.972       25.604      859.437
09/08/2013  20:10:00     -162.954      -90.085       -2.638       94.813       63.085       45.800     8989.555     3979.763     2097.614        2.487        0.753      186.197       53.158        0.082      347.025       25.692      859.445
09/08/2013  20:11:00     -152.703      -61.465        2.770       95.525       55.375       31.688     9125.094     3066.407     1004.160        2.015        0.660      164.609       40.440        0.060      347.075       25.779      859.441
09/08/2013  20:12:00     -162.912      -62.254        1.591       65.258       56.319       33.253     4258.546     3171.876     1105.757        1.948        0.427      174.401       29.564        0.029      346.993       25.638      859.459
09/08/2013  20:13:00     -127.253      -48.829        4.094       84.095       61.408       36.438     7072.015     3770.899     1327.741        1.538        0.609      136.300       37.168        0.074      347.047       25.733      859.463
09/08/2013  20:14:00     -142.427      -39.935       12.479      110.665       67.437       46.401    12246.845     4547.720     2153.067        2.049        0.947      147.920       51.173        0.120      347.081       25.790      859.455
09/08/2013  20:15:00     -190.454     -105.531        0.731      114.062       94.013       49.258    13010.084     8838.382     2426.311        3.584        1.214      217.737       60.148        0.076      347.237       26.058      859.466
09/08/2013  20:16:00     -160.223      -67.239       10.737       93.511       84.096       50.614     8744.240     7072.077     2561.797        2.434        0.919      173.760       52.188        0.090      347.197       25.991      859.467
09/08/2013  20:17:00     -210.806      -88.260       -6.032      121.997       80.913       49.089    14883.279     6546.966     2409.763        3.805        1.192      228.536       59.325        0.067      347.213       26.017      859.473
09/08/2013  20:18:00     -275.171     -216.319      -15.959      124.394       99.648       63.412    15473.830     9929.784     4021.061        7.609        1.471      350.018       57.644        0.027      347.479       26.475      859.474
09/08/2013  20:19:00     -354.150     -159.783       -7.068      171.236      124.495       66.095    29321.598    15499.093     4368.534       10.009        2.459      388.526       84.030        0.047      347.520       26.545      859.465
09/08/2013  20:20:00     -277.463     -155.968       -1.945      161.500      111.988       65.645    26082.297    12541.372     4309.257        7.212        2.147      318.295       80.318        0.064      347.471       26.460      859.480
09/08/2013  20:21:00     -270.844     -123.860       -4.473      112.106       98.590       56.677    12567.707     9720.077     3212.312        5.710        1.275      297.822       50.420        0.029      347.491       26.494      859.493
09/08/2013  20:22:00     -307.359     -215.800      -10.295      157.402      110.054       69.998    24775.462    12111.807     4899.709        9.146        2.089      375.552       73.318        0.038      347.607       26.694      859.491
09/08/2013  20:23:00     -272.900     -131.586      -26.628      119.115      138.560       64.766    14188.447    19198.786     4194.570        6.503        1.879      302.968       51.757        0.029      347.554       26.604      859.497
09/08/2013  20:24:00     -258.169     -158.646        6.383      171.241      135.162       77.147    29323.351    18268.740     5951.672        7.269        2.677      303.018       89.073        0.086      347.574       26.639      859.504
09/08/2013  20:25:00     -344.460     -196.343       -7.305      152.289      108.308       75.580    23191.848    11730.672     5712.284        9.894        2.032      396.488       80.708        0.041      347.606       26.693      859.497
09/08/2013  20:26:00     -242.877      -92.083      -18.859      113.470      102.203       61.095    12875.366    10445.531     3732.658        4.743        1.353      259.748       61.082        0.055      347.524       26.554      859.519
09/08/2013  20:27:00     -158.300      -87.084      -11.817       95.484       86.140       50.067     9117.180     7420.083     2506.704        2.591        0.952      180.673       53.231        0.087      347.457       26.438      859.547
09/08/2013  20:28:00      -61.940      -25.839       11.232       94.080       43.934       36.524     8850.990     1930.215     1334.037        0.837        0.606       67.114       41.973        0.391      347.374       26.296      859.560
09/08/2013  20:29:00     -170.534       -9.836       -3.558       74.974       67.973       36.611     5621.061     4620.273     1340.358        2.038        0.579      170.818       42.450        0.062      347.293       26.155      859.579
09/08/2013  20:30:00     -130.798       -7.733      -12.075       62.688       66.036       28.020     3929.732     4360.767      785.133        1.319        0.454      131.027       20.642        0.025      347.184       25.969      859.589
09/08/2013  20:31:00     -156.840      -28.522      -10.304       61.345       65.639       33.726     3763.177     4308.498     1137.465        1.736        0.460      159.412       34.209        0.046      347.123       25.863      859.602
09/08/2013  20:32:00     -193.057      -36.716       -5.692       58.943       46.111       31.026     3474.307     2126.240      962.635        2.261        0.328      196.518       32.332        0.027      347.086       25.799      859.623
09/08/2013  20:33:00     -137.346       -8.057       -1.409       82.286       77.877       43.455     6770.979     6064.899     1888.354        1.682        0.736      137.582       47.399        0.119      347.032       25.707      859.625
09/08/2013  20:34:00     -245.448      -45.253      -16.355       73.407       66.037       34.825     5388.517     4360.888     1212.750        3.676        0.548      249.585       37.455        0.023      347.069       25.766      859.627
09/08/2013  20:35:00     -213.727      -50.901      -11.765       49.503       63.794       30.072     2450.549     4069.621      904.303        2.792        0.371      219.705       26.497        0.015      347.050       25.734      859.642
09/08/2013  20:36:00     -182.088       12.962      -18.839       33.375       39.053       19.871     1113.900     1525.119      394.844        1.836        0.152      182.549       14.110        0.006      347.002       25.653      859.659
09/08/2013  20:37:00     -125.308      -10.356      -11.270       30.492       63.616       24.117      929.792     4046.957      581.643        1.075        0.278      125.735       14.813        0.014      346.925       25.522      859.667
09/08/2013  20:38:00     -151.892      -12.858      -18.291       66.890       56.194       22.412     4474.278     3157.747      502.315        1.585        0.407      152.435       24.858        0.027      346.948       25.561      859.675
09/08/2013  20:39:00     -179.498        2.476      -15.526       63.354       38.253       34.546     4013.774     1463.282     1193.416        1.957        0.334      179.515       35.432        0.039      346.929       25.528      859.665
09/08/2013  20:40:00     -184.203       -0.683      -16.602       45.445       42.547       28.360     2065.219     1810.284      804.274        1.944        0.234      184.204       25.655        0.019      346.835       25.366      859.672
09/08/2013  20:41:00     -128.878      -41.214       -3.014       51.445       42.405       27.832     2646.608     1798.194      774.628        1.177        0.261      135.308       25.550        0.036      346.761       25.240      859.675
09/08/2013  20:42:00     -170.042      -35.350       -9.257       42.470       39.019       29.414     1803.666     1522.487      865.161        1.722        0.210      173.677       25.109        0.021      346.755       25.231      859.676
09/08/2013  20:43:00     -175.826      -48.123       -2.876       54.309       58.840       28.339     2949.429     3462.098      803.121        2.023        0.361      182.293       25.221        0.019      346.774       25.262      859.688
09/08/2013  20:44:00     -179.551      -69.654       14.662       81.738       88.164       45.970     6681.138     7772.837     2113.213        2.693        0.828      192.588       44.827        0.054      346.779       25.270      859.694
09/08/2013  20:45:00     -250.076     -104.561      -17.655       78.510       67.072       40.187     6163.801     4498.648     1615.011        4.303        0.614      271.056       22.526        0.007      346.916       25.504      859.702
09/08/2013  20:46:00     -330.768      -38.942      -32.041      101.906       68.596       38.741    10384.901     4705.476     1500.874        6.427        0.830      333.052       45.159        0.018      346.966       25.592      859.708
09/08/2013  20:47:00     -196.974      -42.424       -0.939       72.635       67.776       47.503     5275.813     4593.636     2256.513        2.636        0.606      201.490       45.558        0.051      346.904       25.484      859.708
09/08/2013  20:48:00     -269.326      -54.194       -8.884       62.888       56.469       36.046     3954.947     3188.743     1299.296        4.200        0.422      274.725       25.788        0.009      346.974       25.602      859.715
09/08/2013  20:49:00     -190.603      -29.344       -3.020       77.069       62.665       37.844     5939.575     3926.843     1432.163        2.425        0.565      192.849       34.258        0.032      346.928       25.526      859.721
09/08/2013  20:50:00     -171.139      -25.092      -11.236       61.759       56.944       37.423     3814.166     3242.641     1400.449        1.925        0.423      172.969       29.693        0.029      346.935       25.539      859.729
09/08/2013  20:51:00     -200.634      -47.667       -7.685       81.549       57.466       37.071     6650.268     3302.395     1374.258        2.695        0.566      206.219       39.678        0.037      346.853       25.397      859.752
09/08/2013  20:52:00     -202.030     -108.742       -4.011       67.816       55.326       37.379     4599.068     3060.971     1397.212        3.086        0.453      229.436       31.230        0.019      346.768       25.249      859.740
09/08/2013  20:53:00     -220.981      -87.326       -3.874       78.588       77.963       45.569     6176.023     6078.218     2076.555        3.540        0.717      237.610       41.119        0.030      346.894       25.467      859.740
09/08/2013  20:54:00     -240.404      -16.096       -8.549       93.912       65.758       49.076     8819.489     4324.114     2408.489        3.684        0.778      240.943       48.576        0.041      346.808       25.320      859.750
09/08/2013  20:55:00      -79.779      -37.173       26.610      106.825       92.113       47.415    11411.477     8484.760     2248.141        1.530        1.107       88.014       55.503        0.398      346.770       25.257      859.744
09/08/2013  20:56:00     -154.142      -27.556        1.448      119.789       58.295       44.422    14349.356     3398.301     1973.308        2.212        0.986      156.586       59.980        0.147      346.841       25.378      859.762
09/08/2013  20:57:00     -227.654        8.871      -19.167       81.776       72.896       45.378     6687.330     5313.865     2059.180        3.316        0.703      227.827       30.693        0.018      346.954       25.570      859.765
09/08/2013  20:58:00     -164.602       18.111      -12.295       39.500       39.589       24.591     1560.244     1567.320      604.736        1.565        0.187      165.595       24.157        0.021      346.792       25.295      859.793
09/08/2013  20:59:00      -81.686       26.002      -12.570       34.133       31.091       21.140     1165.065      966.634      446.892        0.504        0.129       85.725       14.940        0.030      346.748       25.221      859.817
09/08/2013  21:00:00      -73.665       33.657       -9.510       28.793       36.457       20.291      829.027     1329.138      411.723        0.461        0.128       80.990       12.361        0.023      346.748       25.220      859.825
09/08/2013  21:01:00      -61.158       41.318       -2.769       33.824       53.600       24.772     1144.033     2872.914      613.650        0.504        0.232       73.807       23.968        0.105      346.698       25.133      859.844
09/08/2013  21:02:00     -123.080      129.623      -30.951       39.806       40.855       26.844     1584.492     1669.104      720.578        1.844        0.199      178.748       22.226        0.015      346.703       25.140      859.842
09/08/2013  21:03:00      -81.071      102.971      -12.403       46.480       60.328       41.282     2160.392     3639.494     1704.196        1.242        0.375      131.056       32.154        0.060      346.582       24.933      859.872
09/08/2013  21:04:00      -91.410       97.008      -16.483       47.589       39.324       28.819     2264.677     1546.371      830.523        1.134        0.232      133.291       28.200        0.045      346.566       24.906      859.890
09/08/2013  21:05:00     -106.742        1.781      -13.702       40.852       24.095       20.604     1668.897      580.587      424.513        0.713        0.134      106.757       10.162        0.009      346.671       25.083      859.887
09/08/2013  21:06:00      -97.120      -19.273       -8.713       38.032       31.056       17.688     1446.451      964.446      312.865        0.630        0.136       99.014       15.657        0.025      346.623       25.003      859.892
09/08/2013  21:07:00      -95.694       56.272       -9.172       57.597       62.806       35.080     3317.439     3944.631     1230.613        1.045        0.425      111.013       25.717        0.054      346.580       24.930      859.897
09/08/2013  21:08:00      -99.432      100.908       -8.829       35.778       93.336       28.417     1280.035     8711.696      807.523        1.547        0.540      141.666       24.461        0.030      346.781       25.275      859.882
09/08/2013  21:09:00      -83.490       50.680       -7.621       34.268       59.402       29.716     1174.325     3528.579      883.015        0.759        0.279       97.668       21.012        0.046      346.978       25.613      859.870
09/08/2013  21:10:00      -75.259       27.439        1.304       36.995       29.475       20.826     1368.628      868.791      433.715        0.454        0.134       80.105       17.525        0.048      346.610       24.981      859.882
09/08/2013  21:11:00     -106.967      -29.200       -3.434       46.135       37.743       16.071     2128.473     1424.519      258.281        0.806        0.191      110.881       12.902        0.014      346.463       24.729      859.884
09/08/2013  21:12:00      -57.084       45.579       -3.190       28.324       15.217       13.208      802.275      231.550      174.442        0.328        0.060       73.048       13.501        0.034      346.357       24.546      859.883
09/08/2013  21:13:00      -36.560       52.275       -3.792       16.790       16.497       10.122      281.912      272.145      102.460        0.237        0.033       63.792        9.555        0.022      346.350       24.535      859.888
09/08/2013  21:14:00      -32.254       64.877       -0.588       16.631       19.760        9.815      276.574      390.467       96.336        0.301        0.038       72.452        7.935        0.012      346.256       24.372      859.884
09/08/2013  21:15:00      -30.253      112.845      -19.970       22.884       43.085       11.744      523.700     1856.280      137.933        0.828        0.126      116.830       16.179        0.019      346.182       24.245      859.901
09/08/2013  21:16:00      -50.304      104.814      -18.875       25.874       45.610       11.931      669.464     2080.316      142.343        0.838        0.145      116.260        6.567        0.003      346.138       24.171      859.897
09/08/2013  21:17:00      -67.177       25.029       -3.394       25.213       18.273       12.613      635.690      333.901      159.079        0.314        0.056       71.688       10.950        0.023      346.125       24.146      859.890
09/08/2013  21:18:00      -30.368       30.684        6.876       23.827       14.484       12.142      567.727      209.778      147.430        0.142        0.046       43.171       12.472        0.083      345.764       23.527      859.899
09/08/2013  21:19:00      -61.214       42.990       -8.328       38.496       26.047       19.252     1481.916      678.447      370.644        0.410        0.127       74.801       20.787        0.077      345.863       23.696      859.899
09/08/2013  21:20:00      -66.336       88.242       -9.783       22.823       33.049       17.498      520.897     1092.232      306.169        0.710        0.096      110.395       13.458        0.015      346.045       24.011      859.901
09/08/2013  21:21:00        1.482       42.643       -1.225       29.678       28.030       13.852      880.769      785.677      191.865        0.184        0.093       42.669       12.742        0.089      345.443       22.977      859.913
09/08/2013  21:22:00      -39.157       84.743      -13.552       32.500       58.323       14.120     1056.268     3401.544      199.386        0.678        0.233       93.352       18.751        0.040      345.860       23.693      859.906
09/08/2013  21:23:00      -95.191        9.278      -11.553       19.813       24.964       15.288      392.546      623.178      233.722        0.526        0.062       95.642       13.287        0.019      345.943       23.834      859.899
09/08/2013  21:24:00      -84.958        3.446       -7.876       22.837       16.335       12.072      521.514      266.835      145.737        0.411        0.047       85.028        5.292        0.004      345.950       23.848      859.899
09/08/2013  21:25:00      -65.986       14.560       -6.935       22.618       19.234       15.594      511.575      369.933      243.167        0.287        0.056       67.574       13.437        0.040      345.821       23.625      859.892
09/08/2013  21:26:00      -74.368       28.656       -6.837       16.671       21.271       12.626      277.916      452.459      159.419        0.364        0.044       79.698        8.566        0.012      345.722       23.455      859.897
09/08/2013  21:27:00      -65.239       90.014       -9.625       35.509       37.515       23.026     1260.911     1407.349      530.209        0.782        0.160      111.169       21.482        0.037      345.933       23.817      859.894
09/08/2013  21:28:00      -71.052       48.230       -9.940       18.339       20.661       11.529      336.327      426.861      132.920        0.418        0.045       85.876        9.326        0.012      345.838       23.654      859.891
09/08/2013  21:29:00      -66.272       14.551       -6.202       19.316       18.417       12.068      373.091      339.179      145.646        0.275        0.043       67.850        8.411        0.015      345.666       23.358      859.890
09/08/2013  21:30:00      -69.530       19.387       -4.178       21.404       19.196       13.613      458.119      368.480      185.319        0.312        0.051       72.182       10.842        0.023      345.765       23.527      859.874
09/08/2013  21:31:00      -80.230        5.546       -3.071       26.019       28.451       12.832      677.007      809.470      164.650        0.406        0.083       80.422       13.813        0.030      345.589       23.226      859.873
09/08/2013  21:32:00      -43.452       -6.326       -0.323       22.217       17.954       12.189      493.591      322.330      148.571        0.145        0.048       43.910        8.163        0.035      345.560       23.177      859.849
09/08/2013  21:33:00      -85.635       17.647       -0.142       31.949       25.649       17.834     1020.719      657.879      318.041        0.482        0.100       87.435       13.510        0.024      345.638       23.311      859.846
09/08/2013  21:34:00      -91.388       34.691       -2.352       29.717       20.616       21.015      883.124      425.002      441.646        0.565        0.087       97.751       11.113        0.013      345.651       23.334      859.862
09/08/2013  21:35:00      -83.755       11.725       -8.389       27.203       26.158       16.242      740.004      684.239      263.793        0.446        0.084       84.572       13.402        0.025      345.671       23.368      859.863
09/08/2013  21:36:00     -161.176      -45.578      -18.905       20.716       34.441       20.765      429.141     1186.212      431.168        1.523        0.102      167.496       13.710        0.007      345.362       22.838      859.871
09/08/2013  21:37:00      -68.557       16.906        0.459       46.519       20.929       20.398     2164.025      438.006      416.061        0.400        0.151       70.611       26.173        0.137      345.259       22.661      859.865
09/08/2013  21:38:00      -62.288       43.084       -0.307       37.257       30.352       23.130     1388.074      921.215      535.009        0.429        0.142       75.736       17.222        0.052      345.224       22.601      859.868
09/08/2013  21:39:00     -129.831       31.635      -20.235       36.178       28.661       22.442     1308.823      821.464      503.630        1.045        0.132      133.630       17.429        0.017      345.345       22.808      859.888
09/08/2013  21:40:00     -137.327        5.818      -18.136       38.370       33.411       19.449     1472.234     1116.324      378.247        1.109        0.148      137.451       17.334        0.016      345.604       23.254      859.875
09/08/2013  21:41:00     -152.586        0.494      -20.648       23.105       25.084       15.993      533.836      629.225      255.777        1.256        0.071      152.587       13.036        0.007      345.313       22.753      859.882
09/08/2013  21:42:00     -153.876       23.313      -11.813       32.658       25.342       15.690     1066.524      642.227      246.163        1.316        0.098      155.632       12.042        0.006      345.450       22.987      859.886
09/08/2013  21:43:00     -135.238       12.905      -12.946       32.340       32.849       11.683     1045.864     1079.079      136.490        1.044        0.113      135.853       10.024        0.005      345.742       23.490      859.884
09/08/2013  21:44:00     -115.950       22.565       -8.824       42.295       38.628       23.796     1788.896     1492.087      566.270        0.894        0.192      118.125       20.604        0.030      345.509       23.090      859.881
09/08/2013  21:45:00     -120.040       33.021       -6.915       37.832       26.436       21.706     1431.249      698.887      471.136        0.907        0.130      124.499       15.852        0.016      345.598       23.243      859.882
09/08/2013  21:46:00     -117.861       31.124      -12.037       28.474       29.922       22.349      810.786      895.298      499.475        0.860        0.110      121.902       13.513        0.012      345.643       23.320      859.901
09/08/2013  21:47:00     -130.640       42.189      -14.535       35.228       19.871       18.921     1241.026      394.876      358.007        1.053        0.100      137.283       15.320        0.012      345.775       23.546      859.906
09/08/2013  21:48:00     -114.136       25.394      -16.935       27.139       21.029       13.616      736.506      442.216      185.394        0.766        0.068      116.927       10.107        0.007      345.660       23.349      859.911
09/08/2013  21:49:00      -97.896       17.871       -6.052       20.606       25.776        9.232      424.623      664.419       85.234        0.556        0.059       99.513        6.714        0.005      345.575       23.202      859.915
09/08/2013  21:50:00      -59.618       28.039       -1.547       24.616       20.312       14.817      605.968      412.567      219.538        0.279        0.062       65.883       16.026        0.059      345.398       22.900      859.919
09/08/2013  21:51:00     -126.678       46.751      -15.353       30.664       23.305       17.896      940.279      543.104      320.260        1.014        0.090      135.030       12.522        0.009      345.601       23.247      859.933
09/08/2013  21:52:00     -100.520       26.415       -4.795       26.561       21.741       16.649      705.513      472.677      277.190        0.614        0.073      103.933        9.059        0.008      345.472       23.026      859.925
09/08/2013  21:53:00      -89.220       30.102      -13.830       21.786       24.474       18.584      474.628      598.956      345.368        0.524        0.071       94.161       11.589        0.015      345.494       23.064      859.924
09/08/2013  21:54:00     -105.028       21.083      -17.914       16.013       19.901       15.825      256.429      396.052      250.430        0.635        0.045      107.123        9.937        0.009      345.235       22.620      859.930
09/08/2013  21:55:00      -88.201       29.230       -7.333       38.718       25.807       19.723     1499.055      665.998      388.992        0.562        0.128       92.918       20.982        0.051      345.414       22.929      859.934
09/08/2013  21:56:00      -82.651       60.015       -5.218       38.163       30.475       23.187     1456.434      928.733      537.642        0.669        0.146      102.142       16.350        0.026      345.422       22.939      859.938
09/08/2013  21:57:00      -91.561       47.833      -13.052       24.713       31.248       17.242      610.746      976.440      297.299        0.636        0.094      103.302       15.059        0.021      345.487       23.052      859.949
09/08/2013  21:58:00      -90.569        4.395       -9.383       29.650       37.451       18.455      879.131     1402.542      340.586        0.547        0.131       90.676       12.520        0.019      345.245       22.637      859.957
09/08/2013  21:59:00     -108.083        1.703      -14.431       31.921       40.545       20.121     1018.973     1643.868      404.839        0.748        0.153      108.096       14.813        0.019      345.275       22.689      859.972
09/08/2013  22:00:00      -93.785       35.423      -14.723       32.016       27.464       17.367     1025.040      754.251      301.625        0.617        0.104      100.252       13.464        0.018      345.173       22.515      859.989
09/08/2013  22:01:00     -114.405       59.231      -12.287       43.058       50.017       25.692     1854.021     2501.654      660.073        1.088        0.251      128.829       23.002        0.032      345.410       22.918      860.008
09/08/2013  22:02:00     -129.305       70.298      -24.780       36.041       71.127       24.736     1298.933     5059.036      611.877        1.462        0.348      147.179       30.682        0.043      345.499       23.073      860.031
09/08/2013  22:03:00     -172.818      208.368      -38.575       67.453       95.276       38.515     4549.929     9077.594     1483.404        4.494        0.756      270.709       44.975        0.028      345.831       23.638      860.037
09/08/2013  22:04:00     -113.707       80.884      -13.773       47.084       40.341       32.351     2216.946     1627.415     1046.577        1.228        0.245      139.540       29.801        0.046      345.574       23.201      860.060
09/08/2013  22:05:00     -132.901      178.411      -33.273       43.174       50.283       29.112     1864.016     2528.407      847.488        2.792        0.262      222.470       24.342        0.012      345.786       23.563      860.069
09/08/2013  22:06:00     -120.796      134.438      -21.706       72.636       69.131       37.673     5275.963     4779.141     1419.277        2.230        0.574      180.736       39.311        0.047      345.756       23.512      860.064
09/08/2013  22:07:00     -170.570      116.743      -27.242       73.383       61.120       37.850     5385.054     3735.631     1432.615        2.701        0.528      206.696       21.178        0.010      345.781       23.553      860.075
09/08/2013  22:08:00      -95.820      134.517      -21.601       45.091       93.280       37.154     2033.154     8701.201     1380.390        1.993        0.606      165.155       32.447        0.039      345.782       23.557      860.083
09/08/2013  22:09:00     -143.971      149.546      -29.074       71.661       66.005       45.604     5135.354     4356.632     2079.684        2.775        0.579      207.586       47.954        0.053      345.736       23.478      860.111
09/08/2013  22:10:00      -89.298      213.847      -32.514       60.193       55.470       33.927     3623.181     3076.902     1151.012        3.130        0.393      231.742       30.438        0.017      345.922       23.795      860.113
09/08/2013  22:11:00     -127.404      138.613      -12.860       70.728       68.890       47.279     5002.452     4745.796     2235.314        2.379        0.599      188.269       35.640        0.036      345.730       23.467      860.116
09/08/2013  22:12:00     -126.263      188.101      -10.832       69.188      100.778       53.036     4787.049    10156.125     2812.861        3.460        0.888      226.549       56.274        0.062      345.761       23.520      860.135
09/08/2013  22:13:00     -240.592      231.339      -63.490       82.531       75.948       53.196     6811.436     5768.083     2829.773        6.542        0.770      333.770       54.773        0.027      345.879       23.720      860.143
09/08/2013  22:14:00     -204.920      178.835      -39.649       76.237       89.165       43.348     5812.075     7950.464     1879.086        4.559        0.782      271.982       35.897        0.017      345.737       23.478      860.154
09/08/2013  22:15:00     -140.127      133.759      -16.535       72.060       99.181       50.733     5192.640     9836.823     2573.842        2.770        0.880      193.719       46.210        0.057      345.711       23.435      860.169
09/08/2013  22:16:00     -180.272      129.901      -36.465       87.814       65.185       46.676     7711.264     4249.098     2178.623        3.242        0.707      222.199       44.014        0.039      345.722       23.452      860.178
09/08/2013  22:17:00     -164.503      220.526      -31.490       96.729      101.299       62.636     9356.465    10261.451     3923.280        5.011        1.177      275.123       59.802        0.047      345.710       23.431      860.204
09/08/2013  22:18:00     -134.878      154.046       -3.455       83.521      121.416       62.921     6975.768    14741.955     3958.997        3.380        1.284      204.749       52.205        0.065      345.624       23.285      860.221
09/08/2013  22:19:00     -196.197      143.704      -35.105       77.499       93.323       54.331     6006.127     8709.089     2951.823        3.902        0.883      243.196       42.456        0.030      345.669       23.361      860.236
09/08/2013  22:20:00     -182.774       72.113      -24.000       85.509       68.180       36.793     7311.845     4648.449     1353.742        2.625        0.666      196.485       36.787        0.035      345.642       23.316      860.258
09/08/2013  22:21:00     -208.110       96.606      -20.524       96.028       69.195       46.364     9221.383     4787.881     2149.586        3.461        0.808      229.439       36.645        0.026      345.613       23.265      860.261
09/08/2013  22:22:00     -129.368       81.251       -9.095       78.083       68.494       35.482     6096.891     4691.462     1258.999        1.773        0.602      152.767       37.200        0.059      345.571       23.195      860.274
09/08/2013  22:23:00     -201.011       82.636      -27.869       81.832       56.908       50.717     6696.449     3238.552     2572.230        3.026        0.625      217.334       43.373        0.040      345.599       23.240      860.285
09/08/2013  22:24:00     -154.140       39.711      -23.426       58.908       54.685       36.694     3470.164     2990.430     1346.445        1.684        0.390      159.173       29.059        0.033      345.606       23.255      860.289
09/08/2013  22:25:00     -124.344      -24.388      -12.433       49.948       32.719       23.416     2494.825     1070.526      548.288        1.016        0.206      126.713       19.278        0.023      345.561       23.178      860.309
09/08/2013  22:26:00     -139.422       16.156      -13.655       62.418       42.785       23.407     3896.064     1830.578      547.875        1.308        0.314      140.355       20.565        0.021      345.479       23.038      860.311
09/08/2013  22:27:00     -121.542      -17.812       -6.567       57.960       42.145       26.973     3359.371     1776.240      727.540        1.050        0.293      122.840       21.506        0.031      345.446       22.980      860.317
09/08/2013  22:28:00     -125.012      -24.180      -12.572       59.547       51.053       36.010     3545.832     2606.429     1296.696        1.191        0.372      127.329       33.983        0.071      345.435       22.962      860.335
09/08/2013  22:29:00      -65.922      -32.970        2.528       62.944       41.222       34.347     3961.962     1699.288     1179.745        0.614        0.342       73.707       34.407        0.218      345.231       22.612      860.337
09/08/2013  22:30:00     -118.931      -24.479       -4.649       71.518       49.517       35.387     5114.769     2451.935     1252.220        1.179        0.441      121.424       39.214        0.104      345.256       22.657      860.350
09/08/2013  22:31:00     -128.221       36.385      -12.443       55.720       47.148       25.194     3104.689     2222.962      634.737        1.194        0.298      133.283       17.036        0.016      345.451       22.990      860.350
09/08/2013  22:32:00       15.608      -45.833       -5.016       33.268       33.384       25.782     1106.763     1114.491      664.723        0.263        0.144       48.417       18.995        0.154      344.833       21.934      860.344
09/08/2013  22:33:00      -46.704      -20.433        7.982       44.544       37.930       25.113     1984.135     1438.713      630.645        0.336        0.203       50.978       25.351        0.247      345.120       22.425      860.340
09/08/2013  22:34:00       28.890      -31.736       -1.299       44.229       24.592       23.125     1956.214      604.743      534.771        0.247        0.155       42.916       16.426        0.147      344.526       21.409      860.342
09/08/2013  22:35:00      -58.323      -49.594        6.217       71.156       32.035       23.145     5063.143     1026.266      535.679        0.626        0.331       76.558       28.297        0.137      345.102       22.392      860.352
09/08/2013  22:36:00      -79.605      -40.157        2.949       36.592       29.265       24.904     1338.975      856.447      620.204        0.539        0.141       89.160       15.614        0.031      345.533       23.132      860.347
09/08/2013  22:37:00      -14.492      -10.239       15.768       59.817       37.652       29.582     3578.131     1417.695      875.110        0.322        0.294       17.744       33.300        3.522      344.933       22.104      860.355
09/08/2013  22:38:00      -32.162       -2.898       10.971       41.192       30.456       25.456     1696.777      927.580      647.993        0.222        0.164       32.292       20.560        0.405      345.227       22.607      860.358
09/08/2013  22:39:00      -13.964        7.675       14.507       37.469       27.804       21.933     1403.899      773.061      481.069        0.156        0.133       15.934       15.286        0.920      344.919       22.080      860.346
09/08/2013  22:40:00     -108.172      -15.485       -4.319       35.658       34.196       17.255     1271.509     1169.356      297.747        0.735        0.137      109.274       17.402        0.025      345.486       23.050      860.351
09/08/2013  22:41:00     -118.275      -18.117       -5.602       41.617       26.530       22.940     1732.001      703.827      526.240        0.865        0.148      119.655       20.837        0.030      345.473       23.029      860.344
09/08/2013  22:42:00     -142.755        7.869      -20.001       57.093       50.061       22.098     3259.561     2506.151      488.331        1.355        0.313      142.972       13.277        0.009      345.700       23.419      860.342
09/08/2013  22:43:00      -85.606       25.384       -8.153       38.934       24.359       17.027     1515.858      593.348      289.931        0.522        0.120       89.291       17.673        0.039      345.538       23.141      860.340
09/08/2013  22:44:00      -61.215      108.517       -6.791       45.736       54.187       31.481     2091.825     2936.221      991.045        1.079        0.301      124.592       29.206        0.055      345.488       23.056      860.334
09/08/2013  22:45:00      -51.461      121.725       -2.498       43.777       58.775       33.714     1916.419     3454.463     1136.618        1.199        0.325      132.156       30.744        0.054      345.384       22.877      860.365
09/08/2013  22:46:00      -96.792       87.161      -14.064       49.415       75.501       33.852     2441.886     5700.363     1145.965        1.322        0.464      130.252       26.386        0.041      345.379       22.865      860.385
09/08/2013  22:47:00      -88.191       87.397      -17.481       49.186       72.257       29.238     2419.246     5221.077      854.887        1.211        0.425      124.161       34.807        0.079      345.347       22.812      860.402
09/08/2013  22:48:00     -110.157       28.700      -20.835       42.060       66.893       27.309     1769.081     4474.630      745.767        1.019        0.349      113.834       24.228        0.045      345.267       22.675      860.414
09/08/2013  22:49:00      -92.672      -42.233       -4.247       45.376       31.620       24.056     2058.999      999.796      578.713        0.701        0.182      101.842       21.151        0.043      345.274       22.687      860.428
09/08/2013  22:50:00      -72.699      -43.750        0.954       47.849       35.571       22.930     2289.544     1265.325      525.775        0.564        0.204       84.848       22.764        0.072      345.149       22.474      860.430
09/08/2013  22:51:00     -120.748       17.020       -9.666       38.325       26.267       16.112     1468.831      689.960      259.605        0.869        0.121      121.942       19.454        0.025      345.199       22.559      860.443
09/08/2013  22:52:00     -110.486       28.964       -4.927       31.214       24.640       13.040      974.299      607.108      170.039        0.741        0.088      114.220        5.527        0.002      345.257       22.658      860.438
09/08/2013  22:53:00     -113.463        9.053      -10.231       13.070       20.993       12.056      170.826      440.699      145.354        0.691        0.038      113.824        3.238        0.001      345.468       23.019      860.430
09/08/2013  22:54:00      -63.823      -17.040        4.787       32.910       39.709       18.699     1083.073     1576.841      349.648        0.370        0.150       66.059       18.663        0.080      345.151       22.477      860.430
09/08/2013  22:55:00       17.841       -4.237       17.591       34.239       21.474       21.555     1172.300      461.154      464.630        0.137        0.105       18.338       10.816        0.348      343.889       20.318      860.436
09/08/2013  22:56:00       25.070       16.294        5.517       20.690       17.834       19.976      428.091      318.064      399.045        0.103        0.057       29.900       15.147        0.257      344.262       20.957      860.444
09/08/2013  22:57:00       16.036       16.998       -0.396       15.585       12.612       13.018      242.885      159.069      169.463        0.056        0.029       23.369        3.992        0.029      343.998       20.506      860.441
09/08/2013  22:58:00       10.712       39.241       10.493       17.234       18.769       12.718      297.024      352.265      161.750        0.129        0.041       40.676       10.112        0.062      344.119       20.711      860.448
09/08/2013  22:59:00      -49.711       99.649      -11.778       29.041       31.088       11.269      843.390      966.453      126.991        0.724        0.097      111.360       15.811        0.020      345.207       22.572      860.482
09/08/2013  23:00:00      -66.445       76.298      -12.798       40.099       40.834       20.981     1607.926     1667.383      440.205        0.706        0.186      101.175       19.377        0.037      345.218       22.593      860.484
09/08/2013  23:01:00      -17.437       10.272        2.857       15.168       14.442       17.746      230.070      208.568      314.906        0.059        0.038       20.238       12.003        0.352      344.834       21.935      860.473
09/08/2013  23:02:00       -4.770      -55.675        3.086       11.447       34.924       12.688      131.026     1219.691      160.978        0.232        0.076       55.879        4.149        0.006      345.111       22.409      860.455
09/08/2013  23:03:00       35.547      -67.433       -2.918       37.173       23.423       15.487     1381.867      548.628      239.835        0.399        0.109       76.229       17.183        0.051      345.324       22.773      860.434
09/08/2013  23:04:00       34.543      -55.620       25.189       36.160       34.114       27.921     1307.558     1163.773      779.608        0.409        0.163       65.474       19.087        0.085      345.188       22.540      860.429
09/08/2013  23:05:00      -21.736      -27.816       18.386       21.779       31.457       15.630      474.307      989.534      244.297        0.165        0.085       35.301       11.043        0.098      345.262       22.666      860.442
09/08/2013  23:06:00        5.043       36.306        6.078       27.070       36.672       18.022      732.765     1344.838      324.799        0.189        0.120       36.655       14.398        0.154      344.556       21.458      860.464
09/08/2013  23:07:00       20.226      114.859      -10.250       24.756       30.294       21.071      612.878      917.719      443.970        0.784        0.099      116.627       16.663        0.020      344.774       21.832      860.479
09/08/2013  23:08:00      -23.727       84.416       -9.199       22.751       30.244       17.287      517.619      914.689      298.836        0.475        0.087       87.687       13.629        0.024      344.961       22.152      860.484
09/08/2013  23:09:00      -51.943       56.047      -11.270       16.088        8.772        7.373      258.814       76.949       54.360        0.318        0.020       76.415        4.788        0.004      345.212       22.581      860.486
09/08/2013  23:10:00       14.521       29.366        7.065       28.964       16.793       15.091      838.895      281.997      227.742        0.124        0.067       32.760       13.607        0.173      344.526       21.407      860.494
09/08/2013  23:11:00       23.074        0.473       29.493       24.539       31.237       19.410      602.148      975.725      376.766        0.168        0.098       23.078       12.870        0.311      344.098       20.676      860.468
09/08/2013  23:12:00       60.756      -57.918       12.579       55.364       61.146       28.160     3065.181     3738.801      792.987        0.740        0.380       83.939       31.604        0.142      344.868       21.993      860.423
09/08/2013  23:13:00       45.079      -30.729        1.106       42.231       46.445       32.713     1783.499     2157.131     1070.159        0.399        0.251       54.556       29.297        0.288      344.514       21.387      860.425
09/08/2013  23:14:00        9.639       42.928        3.675       26.673       17.477       15.640      711.438      305.461      244.613        0.161        0.063       43.997       13.230        0.090      343.974       20.465      860.449
09/08/2013  23:15:00     -104.557       12.089       -9.213       47.869       39.653       19.620     2291.450     1572.344      384.938        0.771        0.212      105.253       20.200        0.037      344.561       21.467      860.474
09/08/2013  23:16:00      -85.275      -20.686       -4.246       34.574       22.362       18.291     1195.348      500.040      334.572        0.487        0.101       87.748       16.181        0.034      344.662       21.639      860.476
09/08/2013  23:17:00      -38.746       -3.276       -0.057       21.212       11.648       10.948      449.943      135.669      119.864        0.111        0.035       38.885        7.896        0.041      344.636       21.595      860.470
09/08/2013  23:18:00      -63.773       30.594       -9.805       30.890       11.051        6.902      954.180      122.129       47.632        0.311        0.056       70.732        5.076        0.005      344.946       22.127      860.485
09/08/2013  23:19:00      -78.457       36.992      -20.385       17.187       23.620       12.310      295.399      557.882      151.542        0.447        0.050       86.740        9.095        0.011      344.978       22.181      860.501
09/08/2013  23:20:00        7.121       14.458        9.764       47.032       20.798       15.675     2212.028      432.566      245.710        0.162        0.145       16.117       21.019        1.701      344.623       21.574      860.499
09/08/2013  23:21:00       94.334      -18.487       27.674       35.868       26.354       26.547     1286.496      694.534      704.759        0.635        0.134       96.128       20.671        0.046      344.052       20.598      860.451
09/08/2013  23:22:00       25.419      -45.416       24.487       43.422       74.412       36.753     1885.496     5537.080     1350.814        0.604        0.439       52.046       33.933        0.425      344.309       21.036      860.382
09/08/2013  23:23:00       27.287     -137.964      -19.301       39.513       51.453       20.780     1561.282     2647.456      431.788        1.239        0.232      140.636       12.634        0.008      345.086       22.366      860.380
09/08/2013  23:24:00      -77.226       22.981       -3.046       74.124       45.248       32.144     5494.421     2047.380     1033.229        0.754        0.429       80.573       24.210        0.090      344.689       21.686      860.434
09/08/2013  23:25:00     -196.056       24.938      -20.014       75.193       45.229       28.661     5653.991     2045.643      821.445        2.399        0.426      197.636       22.269        0.013      344.301       21.022      860.476
09/08/2013  23:26:00      -45.398        7.808       -3.848       42.087       38.045       16.484     1771.322     1447.412      271.716        0.281        0.175       46.065       12.727        0.076      344.329       21.070      860.469
09/08/2013  23:27:00       47.261      -40.660        5.689       37.935       22.913       19.545     1439.066      524.995      382.006        0.313        0.117       62.345       11.973        0.037      343.552       19.744      860.427
09/08/2013  23:28:00        2.532      -40.422       10.989       34.619       31.469       16.359     1198.459      990.276      267.618        0.211        0.123       40.501       17.926        0.196      344.216       20.877      860.409
09/08/2013  23:29:00     -132.831      -68.890       -5.704       60.616       37.084       19.262     3674.356     1375.222      371.021        1.392        0.271      149.633       23.212        0.024      344.612       21.554      860.427
09/08/2013  23:30:00      -98.796       15.894       -8.376       66.351       34.793       27.149     4402.402     1210.548      737.072        0.822        0.318      100.066       26.305        0.069      344.162       20.785      860.487
09/08/2013  23:31:00      -19.532       20.009        6.283       36.247       19.065       19.617     1313.812      363.472      384.815        0.144        0.103       27.962       18.393        0.433      343.944       20.414      860.471
09/08/2013  23:32:00        6.273       32.053        5.101       14.312       16.713       11.778      204.822      279.331      138.733        0.086        0.031       32.661       10.041        0.095      344.025       20.551      860.453
09/08/2013  23:33:00      -48.720       32.108        1.438       71.468       19.288       18.238     5107.614      372.025      332.637        0.461        0.291       58.348       31.435        0.290      344.058       20.608      860.475
09/08/2013  23:34:00     -156.498       36.886      -18.411       61.538       64.342       32.329     3786.980     4139.899     1045.142        1.758        0.449      160.786       32.255        0.040      344.047       20.586      860.506
09/08/2013  23:35:00      -35.842        8.161       13.500       58.308       31.071       32.531     3399.857      965.393     1058.252        0.348        0.271       36.760       36.261        0.973      343.821       20.204      860.481
09/08/2013  23:36:00       -6.401       13.315       36.992       23.209       34.266       22.751      538.647     1174.184      517.612        0.191        0.112       14.774       21.379        2.094      343.300       19.315      860.439
09/08/2013  23:37:00      -30.172        3.395        1.835       45.494       21.152       16.469     2069.665      447.403      271.212        0.186        0.139       30.363       21.479        0.500      343.577       19.787      860.445
09/08/2013  23:38:00     -216.203       72.253      -31.353       54.321       59.887       31.101     2950.762     3586.436      967.256        3.022        0.375      227.957       24.999        0.012      343.899       20.331      860.489
09/08/2013  23:39:00      -42.456      118.718      -10.276       65.802       44.171       35.828     4329.919     1951.055     1283.639        1.178        0.378      126.082       38.699        0.094      344.181       20.816      860.477
09/08/2013  23:40:00        9.325       59.127        1.453       23.011       24.558       15.655      529.491      603.084      245.093        0.248        0.069       59.857       11.610        0.038      344.202       20.853      860.463
09/08/2013  23:41:00      -36.053       63.815       -6.538       29.769       46.162       13.938      886.186     2130.952      194.263        0.431        0.161       73.295       17.188        0.055      344.344       21.096      860.497
09/08/2013  23:42:00      -62.723        4.627      -10.250       25.438       26.561       11.868      647.101      705.510      140.851        0.278        0.075       62.893        8.933        0.020      344.103       20.686      860.509
09/08/2013  23:43:00       -5.360       -2.530       -1.431       28.966       15.547        9.899      839.045      241.721       97.983        0.061        0.059        5.927       13.528        5.209      344.055       20.603      860.496
09/08/2013  23:44:00        1.356       45.710       -3.471       26.568       18.317       12.108      705.878      335.507      146.597        0.165        0.059       45.730        8.227        0.032      344.366       21.133      860.493
09/08/2013  23:45:00      -51.331       73.934      -10.429       21.925       21.643       15.163      480.722      468.427      229.909        0.469        0.059       90.006       10.395        0.013      344.336       21.081      860.531
09/08/2013  23:46:00      -31.959       98.446       -8.431       27.804       30.509       15.052      773.088      930.799      226.566        0.636        0.097      103.503       11.593        0.013      344.549       21.448      860.539
09/08/2013  23:47:00        8.136       59.403        8.155       19.955       39.577       16.627      398.203     1566.373      276.449        0.295        0.112       59.958       15.973        0.071      344.355       21.115      860.505
09/08/2013  23:48:00       -1.355       11.234       15.259       44.964       30.222       16.223     2021.806      913.390      263.171        0.178        0.160       11.315       11.648        1.060      344.247       20.930      860.474
09/08/2013  23:49:00     -141.103      -55.453      -11.412       37.107       25.999       18.248     1376.914      675.953      332.976        1.275        0.119      151.608       13.706        0.008      343.916       20.364      860.488
09/08/2013  23:50:00        1.119       22.851        5.175       90.117       52.371       23.578     8121.068     2742.720      555.945        0.598        0.571       22.878       22.065        0.930      344.547       21.445      860.484
09/08/2013  23:51:00      -52.724       24.556        1.032       71.800       28.433       25.698     5155.220      808.443      660.388        0.500        0.331       58.161       34.574        0.353      343.898       20.334      860.476
09/08/2013  23:52:00     -140.744       61.072      -15.842       50.192       35.027       30.221     2519.215     1226.897      913.327        1.422        0.233      153.423       17.347        0.013      344.203       20.855      860.503
09/08/2013  23:53:00       -0.791       92.632      -10.290       55.310       38.405       23.918     3059.251     1474.940      572.071        0.690        0.255       92.635       29.513        0.102      344.836       21.938      860.505
09/08/2013  23:54:00        7.881       20.547       -2.783       30.197       19.511       16.622      911.878      380.668      276.299        0.103        0.078       22.006       12.006        0.298      344.505       21.373      860.488
09/08/2013  23:55:00      -39.716      -23.871        0.088       26.742       32.736       18.346      715.133     1071.627      336.587        0.213        0.106       46.338       15.242        0.108      344.348       21.102      860.511
09/08/2013  23:56:00     -101.278       -1.981       -8.087       25.719       16.541       12.428      661.483      273.614      154.464        0.571        0.054      101.298        8.750        0.007      344.052       20.597      860.528
09/08/2013  23:57:00       14.155       15.616        4.279       23.314       23.693       13.816      543.565      561.367      190.890        0.088        0.065       21.076       12.204        0.335      344.471       21.316      860.531
09/08/2013  23:58:00      -43.778      103.485      -15.390       31.119       47.465       18.066      968.382     2252.943      326.365        0.820        0.177      112.364       12.436        0.012      345.115       22.416      860.563
09/08/2013  23:59:00      -44.413       78.467       -7.132       35.477       40.770       20.035     1258.627     1662.201      401.401        0.575        0.166       90.164       24.064        0.071      344.783       21.847      860.577
